GFSMA_prec_precacc24_015.txt.gz
Total_Precipitation_Accumulation
0.04 0.00 0.00 0.00 0.00 0.00 0.00 0.00 0.00 0.00 0.00 0.00 0.00 0.00 0.00 0.00 0.00 0.00 0.00 0.00 0.00 0.00 0.00 0.00 0.00 0.00 0.00 0.00 0.00 0.00 0.00 0.00 0.00 0.00 0.00 0.00 0.00 0.00 0.01 0.01 0.02 0.08 0.17
0.10 0.04 0.01 0.00 0.00 0.00 0.00 0.00 0.00 0.00 0.00 0.00 0.00 0.00 0.00 0.00 0.00 0.00 0.00 0.00 0.00 0.00 0.00 0.00 0.00 0.00 0.00 0.00 0.00 0.00 0.00 0.00 0.01 0.00 0.00 0.00 0.00 0.00 0.00 0.01 0.00 0.02 0.12
0.10 0.01 0.00 0.00 0.00 0.00 0.00 0.00 0.00 0.00 0.00 0.00 0.00 0.00 0.00 0.00 0.00 0.00 0.00 0.00 0.00 0.00 0.00 0.00 0.00 0.00 0.00 0.00 0.00 0.00 0.00 0.00 0.00 0.01 0.01 0.00 0.01 0.00 0.00 0.00 0.01 0.00 0.01
0.01 0.00 0.00 0.00 0.00 0.00 0.00 0.00 0.00 0.00 0.00 0.00 0.00 0.00 0.00 0.00 0.00 0.00 0.00 0.00 0.00 0.00 0.00 0.00 0.00 0.00 0.00 0.00 0.00 0.00 0.00 0.00 0.00 0.00 0.01 0.01 0.01 0.01 0.00 0.00 0.00 0.01 0.00
0.00 0.00 0.00 0.00 0.00 0.00 0.00 0.00 0.00 0.00 0.00 0.00 0.00 0.00 0.00 0.00 0.00 0.00 0.00 0.00 0.00 0.00 0.00 0.00 0.00 0.00 0.00 0.00 0.00 0.00 0.00 0.00 0.00 0.00 0.00 0.00 0.01 0.02 0.01 0.01 0.00 0.01 0.01
0.00 0.00 0.00 0.00 0.00 0.00 0.00 0.00 0.00 0.00 0.00 0.00 0.00 0.00 0.00 0.00 0.00 0.00 0.00 0.00 0.00 0.00 0.00 0.00 0.00 0.00 0.00 0.00 0.00 0.00 0.00 0.00 0.00 0.00 0.00 0.00 0.00 0.01 0.01 0.02 0.01 0.01 0.01
0.00 0.00 0.00 0.00 0.00 0.00 0.00 0.00 0.00 0.00 0.00 0.00 0.00 0.00 0.00 0.00 0.00 0.00 0.00 0.00 0.00 0.00 0.00 0.00 0.00 0.00 0.00 0.00 0.00 0.00 0.00 0.00 0.00 0.00 0.00 0.00 0.01 0.00 0.01 0.01 0.01 0.01 0.01
0.00 0.00 0.00 0.00 0.00 0.00 0.00 0.00 0.00 0.00 0.00 0.00 0.00 0.00 0.00 0.00 0.00 0.00 0.00 0.00 0.00 0.00 0.00 0.00 0.00 0.00 0.00 0.00 0.00 0.00 0.00 0.00 0.00 0.00 0.00 0.00 0.00 0.00 0.01 0.02 0.01 0.01 0.01
0.00 0.00 0.00 0.00 0.00 0.00 0.00 0.00 0.00 0.00 0.00 0.00 0.00 0.00 0.00 0.00 0.00 0.00 0.00 0.00 0.00 0.00 0.00 0.00 0.00 0.00 0.00 0.00 0.00 0.00 0.00 0.00 0.00 0.00 0.00 0.00 0.00 0.00 0.01 0.02 0.02 0.02 0.02
0.00 0.00 0.00 0.00 0.00 0.00 0.00 0.00 0.00 0.00 0.00 0.00 0.00 0.00 0.00 0.00 0.00 0.00 0.00 0.00 0.00 0.00 0.00 0.00 0.00 0.00 0.00 0.00 0.00 0.00 0.00 0.00 0.00 0.00 0.00 0.00 0.00 0.00 0.02 0.02 0.03 0.03 0.03
0.00 0.00 0.00 0.00 0.00 0.00 0.00 0.00 0.00 0.00 0.00 0.00 0.00 0.00 0.00 0.00 0.00 0.00 0.00 0.00 0.00 0.00 0.00 0.00 0.00 0.00 0.00 0.00 0.00 0.00 0.00 0.00 0.00 0.00 0.00 0.00 0.00 0.00 0.01 0.03 0.04 0.04 0.04
0.00 0.00 0.00 0.00 0.00 0.00 0.00 0.00 0.00 0.00 0.00 0.00 0.00 0.00 0.00 0.00 0.00 0.00 0.00 0.00 0.00 0.00 0.00 0.00 0.00 0.00 0.00 0.00 0.00 0.00 0.00 0.00 0.00 0.00 0.00 0.01 0.01 0.01 0.01 0.01 0.03 0.05 0.04
0.00 0.00 0.00 0.00 0.00 0.00 0.00 0.00 0.00 0.00 0.00 0.00 0.00 0.00 0.00 0.00 0.00 0.00 0.00 0.00 0.00 0.00 0.00 0.00 0.00 0.00 0.00 0.00 0.00 0.00 0.00 0.00 0.00 0.00 0.01 0.02 0.02 0.02 0.03 0.03 0.05 0.09 0.10
0.00 0.00 0.00 0.00 0.00 0.00 0.00 0.00 0.01 0.01 0.01 0.01 0.00 0.00 0.00 0.00 0.00 0.00 0.00 0.00 0.00 0.00 0.00 0.00 0.00 0.00 0.00 0.00 0.00 0.00 0.00 0.00 0.00 0.01 0.01 0.01 0.02 0.04 0.05 0.04 0.03 0.04 0.06
0.00 0.00 0.00 0.00 0.00 0.00 0.02 0.03 0.01 0.00 0.01 0.00 0.00 0.00 0.00 0.00 0.00 0.00 0.00 0.00 0.00 0.00 0.00 0.00 0.00 0.00 0.00 0.00 0.00 0.00 0.01 0.01 0.02 0.03 0.02 0.01 0.01 0.02 0.05 0.06 0.02 0.01 0.01
0.00 0.00 0.00 0.00 0.00 0.01 0.00 0.00 0.00 0.00 0.00 0.00 0.00 0.00 0.00 0.00 0.00 0.00 0.00 0.00 0.00 0.00 0.00 0.00 0.00 0.00 0.00 0.00 0.00 0.00 0.01 0.01 0.01 0.02 0.01 0.01 0.00 0.00 0.03 0.05 0.05 0.02 0.01
0.00 0.00 0.00 0.00 0.00 0.00 0.00 0.01 0.00 0.00 0.00 0.00 0.00 0.00 0.00 0.00 0.00 0.00 0.00 0.00 0.00 0.00 0.00 0.00 0.00 0.00 0.00 0.00 0.00 0.00 0.00 0.01 0.02 0.01 0.01 0.01 0.01 0.00 0.01 0.02 0.03 0.03 0.01
0.00 0.00 0.00 0.00 0.00 0.00 0.00 0.00 0.00 0.00 0.00 0.00 0.01 0.00 0.00 0.00 0.00 0.00 0.00 0.00 0.00 0.00 0.00 0.00 0.00 0.00 0.00 0.00 0.00 0.01 0.01 0.01 0.03 0.04 0.04 0.03 0.02 0.01 0.01 0.00 0.01 0.01 0.03
0.00 0.00 0.00 0.00 0.00 0.00 0.00 0.00 0.00 0.00 0.00 0.01 0.00 0.00 0.00 0.00 0.00 0.00 0.00 0.00 0.00 0.01 0.01 0.03 0.01 0.00 0.00 0.00 0.00 0.00 0.01 0.02 0.03 0.02 0.04 0.02 0.02 0.01 0.00 0.00 0.00 0.01 0.00
0.00 0.00 0.00 0.00 0.00 0.00 0.00 0.00 0.00 0.00 0.00 0.00 0.00 0.00 0.00 0.00 0.00 0.00 0.01 0.01 0.01 0.01 0.01 0.01 0.01 0.01 0.00 0.00 0.01 0.03 0.05 0.04 0.03 0.03 0.05 0.05 0.03 0.02 0.01 0.01 0.03 0.01 0.00
0.00 0.00 0.00 0.00 0.00 0.00 0.00 0.00 0.00 0.00 0.00 0.00 0.00 0.00 0.00 0.00 0.00 0.00 0.01 0.01 0.01 0.01 0.02 0.02 0.02 0.02 0.01 0.03 0.05 0.05 0.04 0.03 0.04 0.06 0.05 0.06 0.11 0.09 0.02 0.04 0.08 0.13 0.03
0.00 0.00 0.00 0.01 0.01 0.01 0.00 0.00 0.00 0.00 0.00 0.00 0.00 0.00 0.00 0.00 0.00 0.00 0.00 0.00 0.00 0.02 0.04 0.04 0.03 0.03 0.02 0.03 0.08 0.12 0.10 0.06 0.03 0.07 0.07 0.04 0.04 0.05 0.11 0.14 0.12 0.19 0.19
0.00 0.00 0.01 0.01 0.01 0.02 0.00 0.00 0.00 0.00 0.00 0.00 0.00 0.00 0.00 0.00 0.00 0.00 0.00 0.00 0.01 0.01 0.03 0.04 0.06 0.05 0.06 0.06 0.07 0.09 0.10 0.08 0.04 0.05 0.05 0.01 0.01 0.02 0.02 0.04 0.06 0.05 0.16
0.00 0.00 0.00 0.00 0.00 0.00 0.00 0.00 0.00 0.00 0.00 0.00 0.00 0.00 0.00 0.00 0.00 0.00 0.01 0.02 0.01 0.00 0.00 0.01 0.03 0.03 0.03 0.04 0.05 0.05 0.04 0.03 0.01 0.00 0.00 0.01 0.00 0.01 0.00 0.00 0.00 0.00 0.01
0.00 0.00 0.00 0.00 0.00 0.00 0.00 0.00 0.00 0.00 0.00 0.00 0.00 0.00 0.00 0.00 0.00 0.01 0.01 0.01 0.00 0.00 0.01 0.01 0.01 0.01 0.00 0.00 0.01 0.06 0.06 0.08 0.05 0.02 0.01 0.02 0.00 0.01 0.00 0.00 0.00 0.00 0.00
0.00 0.00 0.00 0.00 0.00 0.00 0.00 0.00 0.00 0.00 0.00 0.00 0.00 0.00 0.00 0.00 0.00 0.00 0.01 0.01 0.01 0.02 0.01 0.01 0.01 0.01 0.01 0.01 0.01 0.04 0.06 0.11 0.11 0.09 0.05 0.06 0.03 0.04 0.04 0.00 0.00 0.00 0.00

GFSMA_prec_precacc24_018.txt.gz
Total_Precipitation_Accumulation
0.04 0.00 0.00 0.00 0.00 0.00 0.00 0.00 0.00 0.00 0.00 0.00 0.00 0.00 0.00 0.00 0.00 0.00 0.00 0.00 0.00 0.00 0.00 0.00 0.00 0.00 0.00 0.00 0.00 0.00 0.00 0.00 0.00 0.00 0.00 0.00 0.00 0.00 0.01 0.01 0.02 0.08 0.17
0.10 0.04 0.01 0.00 0.00 0.00 0.00 0.00 0.00 0.00 0.00 0.00 0.00 0.00 0.00 0.00 0.00 0.00 0.00 0.00 0.00 0.00 0.00 0.00 0.00 0.00 0.00 0.00 0.00 0.00 0.00 0.00 0.01 0.00 0.00 0.00 0.00 0.00 0.00 0.01 0.00 0.02 0.12
0.10 0.01 0.00 0.00 0.00 0.00 0.00 0.00 0.00 0.00 0.00 0.00 0.00 0.00 0.00 0.00 0.00 0.00 0.00 0.00 0.00 0.00 0.00 0.00 0.00 0.00 0.00 0.00 0.00 0.00 0.00 0.00 0.00 0.01 0.01 0.00 0.01 0.00 0.00 0.00 0.01 0.00 0.01
0.01 0.00 0.00 0.00 0.00 0.00 0.00 0.00 0.00 0.00 0.00 0.00 0.00 0.00 0.00 0.00 0.00 0.00 0.00 0.00 0.00 0.00 0.00 0.00 0.00 0.00 0.00 0.00 0.00 0.00 0.00 0.00 0.00 0.00 0.01 0.01 0.01 0.01 0.00 0.00 0.00 0.01 0.00
0.00 0.00 0.00 0.00 0.00 0.00 0.00 0.00 0.00 0.00 0.00 0.00 0.00 0.00 0.00 0.00 0.00 0.00 0.00 0.00 0.00 0.00 0.00 0.00 0.00 0.00 0.00 0.00 0.00 0.00 0.00 0.00 0.00 0.00 0.00 0.00 0.01 0.02 0.01 0.01 0.00 0.01 0.01
0.00 0.00 0.00 0.00 0.00 0.00 0.00 0.00 0.00 0.00 0.00 0.00 0.00 0.00 0.00 0.00 0.00 0.00 0.00 0.00 0.00 0.00 0.00 0.00 0.00 0.00 0.00 0.00 0.00 0.00 0.00 0.00 0.00 0.00 0.00 0.00 0.00 0.01 0.01 0.02 0.01 0.01 0.01
0.00 0.00 0.00 0.00 0.00 0.00 0.00 0.00 0.00 0.00 0.00 0.00 0.00 0.00 0.00 0.00 0.00 0.00 0.00 0.00 0.00 0.00 0.00 0.00 0.00 0.00 0.00 0.00 0.00 0.00 0.00 0.00 0.00 0.00 0.00 0.00 0.01 0.00 0.01 0.01 0.01 0.01 0.01
0.00 0.00 0.00 0.00 0.00 0.00 0.00 0.00 0.00 0.00 0.00 0.00 0.00 0.00 0.00 0.00 0.00 0.00 0.00 0.00 0.00 0.00 0.00 0.00 0.00 0.00 0.00 0.00 0.00 0.00 0.00 0.00 0.00 0.00 0.00 0.00 0.00 0.00 0.01 0.02 0.01 0.01 0.01
0.00 0.00 0.00 0.00 0.00 0.00 0.00 0.00 0.00 0.00 0.00 0.00 0.00 0.00 0.00 0.00 0.00 0.00 0.00 0.00 0.00 0.00 0.00 0.00 0.00 0.00 0.00 0.00 0.00 0.00 0.00 0.00 0.00 0.00 0.00 0.00 0.00 0.00 0.01 0.02 0.02 0.02 0.02
0.00 0.00 0.00 0.00 0.00 0.00 0.00 0.00 0.00 0.00 0.00 0.00 0.00 0.00 0.00 0.00 0.00 0.00 0.00 0.00 0.00 0.00 0.00 0.00 0.00 0.00 0.00 0.00 0.00 0.00 0.00 0.00 0.00 0.00 0.00 0.00 0.00 0.00 0.02 0.02 0.03 0.03 0.03
0.00 0.00 0.00 0.00 0.00 0.00 0.00 0.00 0.00 0.00 0.00 0.00 0.00 0.00 0.00 0.00 0.00 0.00 0.00 0.00 0.00 0.00 0.00 0.00 0.00 0.00 0.00 0.00 0.00 0.00 0.00 0.00 0.00 0.00 0.00 0.00 0.00 0.00 0.01 0.03 0.04 0.04 0.04
0.00 0.00 0.00 0.00 0.00 0.00 0.00 0.00 0.00 0.00 0.00 0.00 0.00 0.00 0.00 0.00 0.00 0.00 0.00 0.00 0.00 0.00 0.00 0.00 0.00 0.00 0.00 0.00 0.00 0.00 0.00 0.00 0.00 0.00 0.00 0.01 0.01 0.01 0.01 0.01 0.03 0.05 0.05
0.00 0.00 0.00 0.00 0.00 0.00 0.00 0.00 0.00 0.00 0.00 0.00 0.00 0.00 0.00 0.00 0.00 0.00 0.00 0.00 0.00 0.00 0.00 0.00 0.00 0.00 0.00 0.00 0.00 0.00 0.00 0.00 0.00 0.00 0.01 0.02 0.02 0.02 0.03 0.03 0.05 0.09 0.10
0.00 0.00 0.00 0.00 0.00 0.00 0.00 0.00 0.01 0.01 0.01 0.01 0.00 0.00 0.00 0.00 0.00 0.00 0.00 0.00 0.00 0.00 0.00 0.00 0.00 0.00 0.00 0.00 0.00 0.00 0.00 0.00 0.00 0.01 0.01 0.01 0.02 0.04 0.05 0.04 0.03 0.04 0.06
0.00 0.00 0.00 0.00 0.00 0.00 0.02 0.03 0.01 0.00 0.01 0.00 0.00 0.00 0.00 0.00 0.00 0.00 0.00 0.00 0.00 0.00 0.00 0.00 0.00 0.00 0.00 0.00 0.00 0.00 0.01 0.01 0.02 0.03 0.02 0.01 0.01 0.02 0.05 0.06 0.02 0.01 0.01
0.00 0.00 0.00 0.00 0.00 0.01 0.00 0.00 0.00 0.00 0.00 0.00 0.00 0.00 0.00 0.00 0.00 0.00 0.00 0.00 0.00 0.00 0.00 0.00 0.00 0.00 0.00 0.00 0.00 0.00 0.01 0.01 0.01 0.02 0.01 0.01 0.00 0.00 0.03 0.05 0.05 0.02 0.01
0.00 0.00 0.00 0.00 0.00 0.00 0.00 0.01 0.00 0.00 0.00 0.00 0.00 0.00 0.00 0.00 0.00 0.00 0.00 0.00 0.00 0.00 0.00 0.00 0.00 0.00 0.00 0.00 0.00 0.00 0.00 0.01 0.02 0.01 0.01 0.01 0.01 0.00 0.01 0.02 0.03 0.03 0.01
0.00 0.00 0.00 0.00 0.00 0.00 0.00 0.00 0.00 0.00 0.00 0.00 0.01 0.00 0.00 0.00 0.00 0.00 0.00 0.00 0.00 0.00 0.00 0.00 0.00 0.00 0.00 0.00 0.00 0.01 0.01 0.01 0.03 0.04 0.04 0.03 0.02 0.01 0.01 0.00 0.01 0.01 0.03
0.00 0.00 0.00 0.00 0.00 0.00 0.00 0.00 0.00 0.00 0.00 0.01 0.00 0.00 0.00 0.00 0.00 0.00 0.00 0.00 0.00 0.01 0.01 0.03 0.01 0.00 0.00 0.00 0.00 0.00 0.01 0.02 0.03 0.02 0.04 0.02 0.02 0.01 0.00 0.00 0.01 0.01 0.01
0.00 0.00 0.00 0.00 0.00 0.00 0.00 0.00 0.00 0.00 0.00 0.00 0.00 0.00 0.00 0.00 0.00 0.00 0.01 0.01 0.01 0.01 0.01 0.01 0.01 0.01 0.00 0.00 0.01 0.03 0.05 0.04 0.03 0.03 0.05 0.05 0.03 0.02 0.01 0.01 0.03 0.01 0.01
0.00 0.00 0.00 0.00 0.00 0.00 0.00 0.00 0.00 0.00 0.00 0.00 0.00 0.00 0.00 0.00 0.00 0.00 0.01 0.01 0.01 0.01 0.02 0.02 0.02 0.02 0.01 0.03 0.05 0.05 0.04 0.03 0.04 0.06 0.05 0.06 0.11 0.09 0.02 0.04 0.09 0.14 0.04
0.00 0.00 0.00 0.01 0.01 0.01 0.00 0.00 0.00 0.00 0.00 0.00 0.00 0.00 0.00 0.00 0.00 0.00 0.00 0.00 0.00 0.02 0.04 0.04 0.03 0.03 0.02 0.03 0.08 0.13 0.10 0.06 0.03 0.07 0.07 0.04 0.04 0.05 0.11 0.14 0.14 0.23 0.22
0.00 0.00 0.01 0.01 0.01 0.02 0.00 0.00 0.00 0.00 0.00 0.00 0.00 0.00 0.00 0.00 0.00 0.00 0.00 0.00 0.01 0.01 0.03 0.04 0.06 0.05 0.06 0.06 0.07 0.09 0.10 0.08 0.04 0.05 0.05 0.01 0.01 0.02 0.02 0.05 0.06 0.10 0.19
0.00 0.00 0.00 0.00 0.00 0.00 0.00 0.00 0.00 0.00 0.00 0.00 0.00 0.00 0.00 0.00 0.00 0.00 0.01 0.02 0.01 0.00 0.00 0.01 0.03 0.03 0.03 0.04 0.05 0.05 0.04 0.04 0.01 0.00 0.00 0.01 0.00 0.01 0.00 0.00 0.00 0.00 0.02
0.00 0.00 0.00 0.00 0.00 0.00 0.00 0.00 0.00 0.00 0.00 0.00 0.00 0.00 0.00 0.00 0.00 0.01 0.01 0.01 0.00 0.00 0.01 0.01 0.01 0.01 0.00 0.00 0.02 0.07 0.07 0.08 0.06 0.02 0.01 0.02 0.00 0.01 0.00 0.00 0.00 0.00 0.00
0.00 0.00 0.00 0.00 0.00 0.00 0.00 0.00 0.00 0.00 0.00 0.00 0.00 0.00 0.00 0.00 0.00 0.00 0.01 0.01 0.01 0.02 0.01 0.01 0.01 0.01 0.01 0.01 0.01 0.04 0.06 0.13 0.12 0.10 0.05 0.11 0.03 0.04 0.05 0.00 0.00 0.00 0.00

GFSMA_prec_precacc24_024.txt.gz
Total_Precipitation_Accumulation
0.04 0.00 0.00 0.00 0.00 0.00 0.00 0.00 0.00 0.00 0.00 0.00 0.00 0.00 0.00 0.00 0.00 0.00 0.00 0.00 0.00 0.00 0.00 0.01 0.00 0.00 0.00 0.00 0.00 0.00 0.00 0.00 0.00 0.00 0.00 0.00 0.00 0.00 0.01 0.01 0.02 0.08 0.17
0.10 0.04 0.01 0.00 0.00 0.00 0.00 0.00 0.00 0.00 0.00 0.00 0.00 0.00 0.00 0.00 0.00 0.00 0.00 0.00 0.00 0.00 0.00 0.00 0.00 0.00 0.00 0.00 0.00 0.00 0.00 0.00 0.01 0.00 0.00 0.00 0.00 0.00 0.00 0.01 0.00 0.02 0.12
0.10 0.01 0.00 0.00 0.00 0.00 0.00 0.00 0.00 0.00 0.00 0.00 0.00 0.00 0.00 0.00 0.00 0.00 0.00 0.00 0.00 0.00 0.00 0.00 0.00 0.00 0.00 0.00 0.00 0.00 0.00 0.00 0.00 0.01 0.01 0.01 0.01 0.00 0.00 0.00 0.01 0.00 0.01
0.01 0.00 0.00 0.00 0.00 0.00 0.00 0.00 0.00 0.00 0.00 0.00 0.00 0.00 0.00 0.00 0.00 0.00 0.00 0.00 0.00 0.00 0.00 0.00 0.00 0.00 0.00 0.00 0.00 0.00 0.00 0.00 0.00 0.00 0.01 0.01 0.01 0.01 0.00 0.00 0.00 0.01 0.00
0.00 0.00 0.00 0.00 0.00 0.00 0.00 0.00 0.00 0.00 0.00 0.00 0.00 0.00 0.00 0.00 0.00 0.00 0.00 0.00 0.00 0.00 0.00 0.00 0.00 0.00 0.00 0.00 0.00 0.00 0.00 0.00 0.00 0.00 0.00 0.00 0.01 0.02 0.01 0.01 0.00 0.01 0.01
0.00 0.00 0.00 0.00 0.00 0.00 0.00 0.00 0.00 0.00 0.00 0.00 0.00 0.00 0.00 0.00 0.00 0.00 0.00 0.00 0.00 0.00 0.00 0.00 0.00 0.00 0.00 0.00 0.00 0.00 0.00 0.00 0.00 0.00 0.00 0.00 0.00 0.01 0.01 0.02 0.01 0.01 0.01
0.00 0.00 0.00 0.00 0.00 0.00 0.00 0.00 0.00 0.00 0.00 0.00 0.00 0.00 0.00 0.00 0.00 0.00 0.00 0.00 0.00 0.00 0.00 0.00 0.00 0.00 0.00 0.00 0.00 0.00 0.00 0.00 0.00 0.00 0.00 0.00 0.01 0.00 0.01 0.01 0.01 0.01 0.01
0.00 0.00 0.00 0.00 0.00 0.00 0.00 0.00 0.00 0.00 0.00 0.00 0.00 0.00 0.00 0.00 0.00 0.00 0.00 0.00 0.00 0.00 0.00 0.00 0.00 0.00 0.00 0.00 0.00 0.00 0.00 0.00 0.00 0.00 0.00 0.00 0.00 0.00 0.01 0.02 0.01 0.01 0.01
0.00 0.00 0.00 0.00 0.00 0.00 0.00 0.00 0.00 0.00 0.00 0.00 0.00 0.00 0.00 0.00 0.00 0.00 0.00 0.00 0.00 0.00 0.00 0.00 0.00 0.00 0.00 0.00 0.00 0.00 0.00 0.00 0.00 0.00 0.00 0.00 0.00 0.00 0.01 0.02 0.02 0.02 0.02
0.00 0.00 0.00 0.00 0.00 0.00 0.00 0.00 0.00 0.00 0.00 0.00 0.00 0.00 0.00 0.00 0.00 0.00 0.00 0.00 0.00 0.00 0.00 0.00 0.00 0.00 0.00 0.00 0.00 0.00 0.00 0.00 0.00 0.00 0.00 0.00 0.00 0.00 0.02 0.02 0.03 0.03 0.03
0.00 0.00 0.00 0.00 0.00 0.00 0.00 0.00 0.00 0.00 0.00 0.00 0.00 0.00 0.00 0.00 0.00 0.00 0.00 0.00 0.00 0.00 0.00 0.00 0.00 0.00 0.00 0.00 0.00 0.00 0.00 0.00 0.00 0.00 0.00 0.00 0.00 0.00 0.01 0.03 0.04 0.04 0.04
0.00 0.00 0.00 0.00 0.00 0.00 0.00 0.00 0.00 0.00 0.00 0.00 0.00 0.00 0.00 0.00 0.00 0.00 0.00 0.00 0.00 0.00 0.00 0.00 0.00 0.00 0.00 0.00 0.00 0.00 0.00 0.00 0.00 0.00 0.00 0.01 0.01 0.01 0.01 0.01 0.03 0.05 0.05
0.00 0.00 0.00 0.00 0.00 0.00 0.00 0.00 0.00 0.00 0.00 0.00 0.00 0.00 0.00 0.00 0.00 0.00 0.00 0.00 0.00 0.00 0.00 0.00 0.00 0.00 0.00 0.00 0.00 0.00 0.00 0.00 0.00 0.00 0.01 0.02 0.02 0.02 0.03 0.03 0.05 0.09 0.10
0.00 0.00 0.00 0.00 0.00 0.00 0.00 0.00 0.01 0.01 0.01 0.01 0.00 0.00 0.00 0.00 0.00 0.00 0.00 0.00 0.00 0.00 0.00 0.00 0.00 0.00 0.00 0.00 0.00 0.00 0.00 0.00 0.00 0.01 0.01 0.01 0.02 0.04 0.05 0.04 0.03 0.04 0.06
0.00 0.00 0.00 0.00 0.00 0.00 0.02 0.03 0.01 0.00 0.01 0.00 0.00 0.00 0.00 0.00 0.00 0.00 0.00 0.00 0.00 0.00 0.00 0.00 0.00 0.00 0.00 0.00 0.00 0.00 0.01 0.01 0.02 0.03 0.02 0.01 0.01 0.02 0.05 0.07 0.02 0.01 0.02
0.00 0.00 0.00 0.00 0.00 0.01 0.00 0.00 0.00 0.00 0.00 0.00 0.00 0.00 0.00 0.00 0.00 0.00 0.00 0.00 0.00 0.00 0.00 0.00 0.00 0.00 0.00 0.00 0.00 0.00 0.01 0.01 0.01 0.02 0.01 0.01 0.00 0.00 0.03 0.06 0.05 0.02 0.02
0.00 0.00 0.00 0.00 0.00 0.00 0.00 0.01 0.00 0.00 0.00 0.00 0.00 0.00 0.00 0.00 0.00 0.00 0.00 0.00 0.00 0.00 0.00 0.00 0.00 0.00 0.00 0.00 0.00 0.00 0.00 0.01 0.02 0.01 0.01 0.01 0.01 0.00 0.01 0.02 0.03 0.03 0.01
0.00 0.00 0.00 0.00 0.00 0.00 0.00 0.00 0.00 0.00 0.00 0.00 0.01 0.00 0.00 0.00 0.00 0.00 0.00 0.00 0.00 0.00 0.00 0.00 0.00 0.00 0.00 0.00 0.00 0.01 0.01 0.01 0.03 0.04 0.04 0.03 0.02 0.02 0.01 0.01 0.01 0.01 0.03
0.00 0.00 0.00 0.00 0.00 0.00 0.00 0.00 0.00 0.00 0.00 0.01 0.00 0.00 0.00 0.00 0.00 0.00 0.00 0.00 0.00 0.01 0.01 0.03 0.01 0.00 0.00 0.00 0.00 0.00 0.01 0.02 0.03 0.02 0.04 0.02 0.02 0.01 0.00 0.00 0.01 0.01 0.01
0.00 0.00 0.00 0.00 0.00 0.00 0.00 0.00 0.00 0.00 0.00 0.00 0.00 0.00 0.00 0.00 0.00 0.00 0.01 0.01 0.01 0.01 0.01 0.01 0.01 0.01 0.00 0.00 0.01 0.03 0.05 0.04 0.03 0.03 0.05 0.05 0.03 0.02 0.01 0.01 0.03 0.01 0.02
0.00 0.00 0.00 0.00 0.01 0.02 0.00 0.00 0.00 0.00 0.00 0.00 0.00 0.00 0.00 0.00 0.00 0.00 0.01 0.01 0.01 0.01 0.02 0.02 0.02 0.02 0.01 0.03 0.05 0.05 0.04 0.03 0.04 0.06 0.05 0.06 0.11 0.09 0.02 0.04 0.09 0.15 0.05
0.00 0.00 0.01 0.03 0.04 0.02 0.00 0.00 0.00 0.00 0.00 0.00 0.00 0.00 0.00 0.00 0.00 0.00 0.00 0.00 0.00 0.02 0.04 0.04 0.03 0.03 0.02 0.03 0.08 0.13 0.10 0.06 0.04 0.07 0.07 0.04 0.04 0.05 0.11 0.14 0.14 0.24 0.23
0.01 0.02 0.05 0.05 0.01 0.02 0.00 0.00 0.00 0.00 0.00 0.00 0.00 0.00 0.00 0.00 0.00 0.00 0.00 0.00 0.01 0.01 0.03 0.04 0.06 0.05 0.06 0.06 0.07 0.09 0.10 0.09 0.06 0.05 0.06 0.01 0.01 0.02 0.02 0.05 0.06 0.10 0.20
0.07 0.09 0.06 0.01 0.00 0.00 0.00 0.00 0.00 0.00 0.00 0.00 0.00 0.00 0.00 0.00 0.00 0.00 0.01 0.02 0.01 0.00 0.00 0.01 0.03 0.03 0.03 0.04 0.05 0.06 0.07 0.06 0.02 0.00 0.00 0.01 0.00 0.01 0.00 0.00 0.00 0.00 0.02
0.10 0.03 0.01 0.00 0.00 0.00 0.00 0.00 0.00 0.00 0.00 0.00 0.00 0.00 0.00 0.00 0.00 0.01 0.01 0.01 0.00 0.00 0.01 0.01 0.01 0.01 0.00 0.00 0.02 0.07 0.07 0.09 0.06 0.02 0.01 0.03 0.00 0.01 0.00 0.00 0.00 0.00 0.00
0.02 0.01 0.00 0.00 0.00 0.00 0.00 0.00 0.00 0.00 0.00 0.00 0.00 0.00 0.00 0.00 0.00 0.00 0.01 0.01 0.01 0.02 0.01 0.01 0.01 0.01 0.01 0.01 0.01 0.04 0.06 0.13 0.13 0.11 0.05 0.12 0.04 0.06 0.08 0.00 0.00 0.00 0.00

GFSMA_prec_precacc24_027.txt.gz
Total_Precipitation_Accumulation
0.04 0.00 0.00 0.00 0.00 0.00 0.00 0.00 0.00 0.00 0.00 0.00 0.00 0.00 0.00 0.00 0.00 0.00 0.00 0.00 0.00 0.00 0.00 0.01 0.00 0.00 0.00 0.00 0.00 0.00 0.00 0.00 0.00 0.00 0.00 0.00 0.00 0.00 0.01 0.01 0.01 0.02 0.06
0.09 0.04 0.01 0.00 0.00 0.00 0.00 0.00 0.00 0.00 0.00 0.00 0.00 0.00 0.00 0.00 0.00 0.00 0.00 0.00 0.00 0.00 0.00 0.00 0.00 0.00 0.00 0.00 0.00 0.00 0.00 0.00 0.01 0.00 0.00 0.00 0.00 0.00 0.00 0.01 0.00 0.00 0.03
0.09 0.01 0.00 0.00 0.00 0.00 0.00 0.00 0.00 0.00 0.00 0.00 0.00 0.00 0.00 0.00 0.00 0.00 0.00 0.00 0.00 0.00 0.00 0.00 0.00 0.00 0.00 0.00 0.00 0.00 0.00 0.00 0.00 0.00 0.01 0.01 0.01 0.00 0.00 0.00 0.01 0.00 0.00
0.00 0.00 0.00 0.00 0.00 0.00 0.00 0.00 0.00 0.00 0.00 0.00 0.00 0.00 0.00 0.00 0.00 0.00 0.00 0.00 0.00 0.00 0.00 0.00 0.00 0.00 0.00 0.00 0.00 0.00 0.00 0.00 0.00 0.00 0.00 0.00 0.01 0.01 0.00 0.00 0.00 0.01 0.00
0.00 0.00 0.00 0.00 0.00 0.00 0.00 0.00 0.00 0.00 0.00 0.00 0.00 0.00 0.00 0.00 0.00 0.00 0.00 0.00 0.00 0.00 0.00 0.00 0.00 0.00 0.00 0.00 0.00 0.00 0.00 0.00 0.00 0.00 0.00 0.00 0.00 0.01 0.01 0.01 0.00 0.01 0.01
0.00 0.00 0.00 0.00 0.00 0.00 0.00 0.00 0.00 0.00 0.00 0.00 0.00 0.00 0.00 0.00 0.00 0.00 0.00 0.00 0.00 0.00 0.00 0.00 0.00 0.00 0.00 0.00 0.00 0.00 0.00 0.00 0.00 0.00 0.00 0.00 0.00 0.01 0.01 0.02 0.01 0.01 0.01
0.00 0.00 0.00 0.00 0.00 0.00 0.00 0.00 0.00 0.00 0.00 0.00 0.00 0.00 0.00 0.00 0.00 0.00 0.00 0.00 0.00 0.00 0.00 0.00 0.00 0.00 0.00 0.00 0.00 0.00 0.00 0.00 0.00 0.00 0.00 0.00 0.00 0.00 0.01 0.01 0.01 0.01 0.01
0.00 0.00 0.00 0.00 0.00 0.00 0.00 0.00 0.00 0.00 0.00 0.00 0.00 0.00 0.00 0.00 0.00 0.00 0.00 0.00 0.00 0.00 0.00 0.00 0.00 0.00 0.00 0.00 0.00 0.00 0.00 0.00 0.00 0.00 0.00 0.00 0.00 0.00 0.00 0.01 0.01 0.01 0.01
0.00 0.00 0.00 0.00 0.00 0.00 0.00 0.00 0.00 0.00 0.00 0.00 0.00 0.00 0.00 0.00 0.00 0.00 0.00 0.00 0.00 0.00 0.00 0.00 0.00 0.00 0.00 0.00 0.00 0.00 0.00 0.00 0.00 0.00 0.00 0.00 0.00 0.00 0.00 0.01 0.01 0.02 0.02
0.00 0.00 0.00 0.00 0.00 0.00 0.00 0.00 0.00 0.00 0.00 0.00 0.00 0.00 0.00 0.00 0.00 0.00 0.00 0.00 0.00 0.00 0.00 0.00 0.00 0.00 0.00 0.00 0.00 0.00 0.00 0.00 0.00 0.00 0.00 0.00 0.00 0.00 0.00 0.01 0.02 0.03 0.03
0.00 0.00 0.00 0.00 0.00 0.00 0.00 0.00 0.00 0.00 0.00 0.00 0.00 0.00 0.00 0.00 0.00 0.00 0.00 0.00 0.00 0.00 0.00 0.00 0.00 0.00 0.00 0.00 0.00 0.00 0.00 0.00 0.00 0.00 0.00 0.00 0.00 0.00 0.00 0.01 0.03 0.04 0.04
0.00 0.00 0.00 0.00 0.00 0.00 0.00 0.01 0.01 0.00 0.00 0.00 0.00 0.00 0.00 0.00 0.00 0.00 0.00 0.00 0.00 0.00 0.00 0.00 0.00 0.00 0.00 0.00 0.00 0.00 0.00 0.00 0.00 0.00 0.00 0.00 0.00 0.00 0.01 0.01 0.03 0.04 0.05
0.01 0.01 0.00 0.00 0.00 0.01 0.01 0.00 0.00 0.00 0.00 0.00 0.00 0.00 0.00 0.00 0.00 0.00 0.00 0.00 0.00 0.00 0.00 0.00 0.00 0.00 0.00 0.00 0.00 0.00 0.00 0.00 0.00 0.00 0.00 0.01 0.01 0.02 0.03 0.03 0.04 0.08 0.10
0.01 0.01 0.00 0.00 0.00 0.00 0.00 0.00 0.01 0.01 0.01 0.01 0.00 0.00 0.00 0.00 0.00 0.00 0.00 0.00 0.00 0.00 0.00 0.00 0.00 0.00 0.00 0.00 0.00 0.00 0.00 0.00 0.00 0.00 0.01 0.01 0.01 0.03 0.04 0.04 0.03 0.04 0.07
0.01 0.00 0.00 0.00 0.01 0.02 0.02 0.03 0.01 0.00 0.01 0.00 0.00 0.00 0.00 0.00 0.00 0.00 0.00 0.00 0.00 0.00 0.00 0.00 0.00 0.00 0.00 0.00 0.00 0.00 0.01 0.01 0.00 0.01 0.01 0.01 0.00 0.01 0.04 0.06 0.03 0.01 0.02
0.01 0.00 0.00 0.01 0.01 0.01 0.00 0.00 0.00 0.00 0.00 0.00 0.00 0.00 0.00 0.00 0.00 0.00 0.00 0.00 0.00 0.00 0.00 0.00 0.00 0.00 0.00 0.00 0.00 0.00 0.00 0.01 0.00 0.00 0.01 0.01 0.00 0.00 0.01 0.04 0.05 0.02 0.02
0.01 0.00 0.00 0.00 0.00 0.00 0.00 0.01 0.00 0.00 0.00 0.00 0.00 0.00 0.00 0.00 0.00 0.00 0.00 0.00 0.00 0.00 0.00 0.00 0.00 0.00 0.00 0.00 0.00 0.00 0.00 0.01 0.02 0.01 0.01 0.01 0.01 0.00 0.01 0.01 0.02 0.02 0.01
0.00 0.00 0.00 0.00 0.00 0.00 0.00 0.00 0.00 0.00 0.00 0.00 0.01 0.00 0.00 0.00 0.00 0.00 0.00 0.00 0.00 0.00 0.00 0.00 0.00 0.00 0.00 0.00 0.00 0.00 0.01 0.01 0.03 0.04 0.04 0.03 0.02 0.02 0.01 0.01 0.00 0.00 0.02
0.00 0.00 0.00 0.00 0.00 0.00 0.00 0.00 0.00 0.00 0.00 0.01 0.00 0.00 0.00 0.00 0.00 0.00 0.00 0.00 0.00 0.00 0.01 0.01 0.01 0.00 0.00 0.00 0.00 0.00 0.00 0.02 0.03 0.02 0.04 0.02 0.02 0.01 0.00 0.00 0.01 0.01 0.01
0.00 0.00 0.00 0.00 0.00 0.00 0.01 0.03 0.02 0.00 0.00 0.00 0.00 0.00 0.00 0.00 0.00 0.00 0.00 0.00 0.01 0.01 0.01 0.01 0.00 0.00 0.00 0.00 0.01 0.02 0.04 0.04 0.03 0.03 0.05 0.05 0.03 0.02 0.01 0.00 0.02 0.01 0.02
0.00 0.00 0.00 0.00 0.01 0.05 0.07 0.05 0.00 0.00 0.00 0.00 0.00 0.00 0.00 0.00 0.00 0.00 0.00 0.00 0.00 0.00 0.01 0.01 0.01 0.01 0.01 0.01 0.02 0.03 0.03 0.03 0.04 0.06 0.05 0.06 0.11 0.09 0.02 0.04 0.05 0.13 0.05
0.00 0.00 0.01 0.04 0.08 0.10 0.04 0.00 0.00 0.00 0.00 0.00 0.00 0.00 0.00 0.00 0.00 0.00 0.00 0.00 0.00 0.00 0.01 0.02 0.02 0.02 0.02 0.02 0.05 0.08 0.08 0.06 0.04 0.07 0.07 0.04 0.04 0.05 0.11 0.14 0.14 0.22 0.21
0.01 0.03 0.07 0.12 0.11 0.06 0.00 0.00 0.00 0.00 0.00 0.00 0.00 0.00 0.00 0.00 0.00 0.00 0.00 0.00 0.00 0.00 0.01 0.01 0.02 0.03 0.05 0.05 0.05 0.07 0.08 0.08 0.06 0.05 0.06 0.01 0.01 0.02 0.02 0.05 0.06 0.09 0.19
0.11 0.15 0.16 0.10 0.02 0.00 0.01 0.01 0.00 0.00 0.00 0.00 0.00 0.00 0.00 0.00 0.00 0.00 0.00 0.00 0.00 0.00 0.00 0.00 0.02 0.02 0.03 0.03 0.04 0.05 0.07 0.06 0.02 0.00 0.00 0.01 0.00 0.01 0.00 0.00 0.00 0.00 0.02
0.18 0.12 0.04 0.01 0.02 0.01 0.01 0.00 0.00 0.00 0.00 0.00 0.00 0.00 0.00 0.00 0.00 0.00 0.00 0.00 0.00 0.00 0.00 0.00 0.00 0.00 0.00 0.00 0.01 0.04 0.04 0.07 0.06 0.02 0.01 0.03 0.00 0.01 0.00 0.00 0.00 0.00 0.00
0.03 0.03 0.04 0.03 0.02 0.00 0.00 0.00 0.00 0.00 0.00 0.00 0.00 0.00 0.00 0.00 0.00 0.00 0.00 0.00 0.00 0.01 0.00 0.00 0.00 0.00 0.01 0.01 0.01 0.04 0.05 0.09 0.09 0.09 0.05 0.12 0.04 0.06 0.09 0.00 0.00 0.00 0.00

GFSMA_prec_precacc24_030.txt.gz
Total_Precipitation_Accumulation
0.00 0.00 0.00 0.00 0.00 0.00 0.00 0.00 0.00 0.00 0.00 0.00 0.00 0.00 0.00 0.00 0.00 0.00 0.00 0.00 0.00 0.00 0.01 0.02 0.01 0.00 0.00 0.00 0.00 0.00 0.00 0.00 0.00 0.00 0.00 0.00 0.00 0.00 0.01 0.01 0.00 0.00 0.01
0.02 0.02 0.01 0.00 0.00 0.00 0.00 0.00 0.00 0.00 0.00 0.00 0.00 0.00 0.00 0.00 0.00 0.00 0.00 0.00 0.00 0.00 0.00 0.00 0.00 0.00 0.00 0.00 0.00 0.00 0.00 0.00 0.00 0.00 0.00 0.00 0.00 0.00 0.00 0.01 0.00 0.00 0.00
0.07 0.01 0.00 0.00 0.00 0.00 0.00 0.00 0.00 0.00 0.00 0.00 0.00 0.00 0.00 0.00 0.00 0.00 0.00 0.00 0.00 0.00 0.00 0.00 0.00 0.00 0.00 0.00 0.00 0.00 0.00 0.00 0.00 0.00 0.00 0.00 0.00 0.00 0.00 0.00 0.01 0.00 0.00
0.00 0.00 0.00 0.00 0.00 0.00 0.00 0.00 0.00 0.00 0.00 0.00 0.00 0.00 0.00 0.00 0.00 0.00 0.00 0.00 0.00 0.00 0.00 0.00 0.00 0.00 0.00 0.00 0.00 0.00 0.00 0.00 0.00 0.00 0.00 0.00 0.00 0.00 0.00 0.00 0.00 0.01 0.00
0.00 0.00 0.00 0.00 0.00 0.00 0.00 0.00 0.00 0.00 0.00 0.00 0.00 0.00 0.00 0.00 0.00 0.00 0.00 0.00 0.00 0.00 0.00 0.00 0.00 0.00 0.00 0.00 0.00 0.00 0.00 0.00 0.00 0.00 0.00 0.00 0.00 0.00 0.00 0.00 0.00 0.01 0.01
0.00 0.00 0.00 0.00 0.00 0.00 0.00 0.00 0.00 0.00 0.00 0.00 0.00 0.00 0.00 0.00 0.00 0.00 0.00 0.00 0.00 0.00 0.00 0.00 0.00 0.00 0.00 0.00 0.00 0.00 0.00 0.00 0.00 0.00 0.00 0.00 0.00 0.00 0.00 0.00 0.00 0.01 0.01
0.00 0.00 0.00 0.00 0.00 0.00 0.00 0.00 0.00 0.00 0.00 0.00 0.00 0.00 0.00 0.00 0.00 0.00 0.00 0.00 0.00 0.00 0.00 0.00 0.00 0.00 0.00 0.00 0.00 0.00 0.00 0.00 0.00 0.00 0.00 0.00 0.00 0.00 0.00 0.00 0.00 0.01 0.01
0.00 0.00 0.00 0.00 0.00 0.00 0.00 0.00 0.00 0.00 0.00 0.00 0.00 0.00 0.00 0.00 0.00 0.00 0.00 0.00 0.00 0.00 0.00 0.00 0.00 0.00 0.00 0.00 0.00 0.00 0.00 0.00 0.00 0.00 0.00 0.00 0.00 0.00 0.00 0.00 0.00 0.01 0.01
0.00 0.00 0.00 0.00 0.00 0.00 0.00 0.00 0.00 0.00 0.00 0.00 0.00 0.00 0.00 0.00 0.00 0.00 0.00 0.00 0.00 0.00 0.00 0.00 0.00 0.00 0.00 0.00 0.00 0.00 0.00 0.00 0.00 0.00 0.00 0.00 0.00 0.00 0.00 0.00 0.00 0.01 0.01
0.00 0.00 0.00 0.00 0.00 0.00 0.00 0.00 0.00 0.00 0.00 0.00 0.00 0.00 0.00 0.00 0.00 0.00 0.00 0.00 0.00 0.00 0.00 0.00 0.00 0.00 0.00 0.00 0.00 0.00 0.00 0.00 0.00 0.00 0.00 0.00 0.00 0.00 0.00 0.00 0.00 0.00 0.02
0.00 0.00 0.00 0.00 0.00 0.00 0.00 0.00 0.00 0.01 0.00 0.00 0.00 0.00 0.00 0.00 0.00 0.00 0.00 0.00 0.00 0.00 0.00 0.00 0.00 0.00 0.00 0.00 0.00 0.00 0.00 0.00 0.00 0.00 0.00 0.00 0.00 0.00 0.00 0.00 0.00 0.00 0.02
0.01 0.00 0.00 0.00 0.00 0.00 0.00 0.01 0.01 0.00 0.00 0.00 0.00 0.00 0.00 0.00 0.00 0.00 0.00 0.00 0.00 0.00 0.00 0.00 0.00 0.00 0.00 0.00 0.00 0.00 0.00 0.00 0.00 0.00 0.00 0.00 0.00 0.00 0.00 0.00 0.00 0.00 0.02
0.03 0.02 0.00 0.00 0.00 0.01 0.01 0.00 0.01 0.01 0.00 0.00 0.00 0.00 0.00 0.00 0.00 0.00 0.00 0.00 0.00 0.00 0.00 0.00 0.00 0.00 0.00 0.00 0.00 0.00 0.00 0.00 0.00 0.00 0.00 0.00 0.00 0.00 0.00 0.00 0.01 0.01 0.03
0.04 0.03 0.04 0.03 0.00 0.00 0.01 0.03 0.04 0.01 0.01 0.01 0.00 0.00 0.00 0.00 0.00 0.00 0.00 0.00 0.00 0.00 0.00 0.00 0.00 0.00 0.00 0.00 0.00 0.00 0.00 0.00 0.00 0.00 0.00 0.00 0.00 0.01 0.01 0.02 0.02 0.02 0.03
0.02 0.01 0.02 0.00 0.01 0.04 0.07 0.07 0.02 0.00 0.01 0.00 0.00 0.00 0.00 0.00 0.00 0.00 0.00 0.00 0.00 0.00 0.00 0.00 0.00 0.00 0.00 0.00 0.00 0.00 0.00 0.00 0.00 0.00 0.00 0.00 0.00 0.00 0.00 0.01 0.02 0.01 0.02
0.01 0.00 0.00 0.03 0.08 0.07 0.05 0.01 0.00 0.00 0.00 0.00 0.00 0.00 0.00 0.00 0.00 0.00 0.00 0.00 0.00 0.00 0.00 0.00 0.00 0.00 0.00 0.00 0.00 0.00 0.00 0.00 0.00 0.00 0.00 0.00 0.00 0.00 0.00 0.00 0.01 0.01 0.02
0.02 0.05 0.09 0.10 0.04 0.00 0.00 0.00 0.00 0.00 0.00 0.00 0.00 0.00 0.00 0.00 0.00 0.00 0.00 0.00 0.00 0.00 0.00 0.00 0.00 0.00 0.00 0.00 0.00 0.00 0.00 0.00 0.00 0.00 0.00 0.01 0.01 0.00 0.01 0.01 0.01 0.00 0.00
0.04 0.03 0.01 0.00 0.00 0.00 0.00 0.00 0.00 0.00 0.01 0.01 0.01 0.00 0.00 0.00 0.00 0.00 0.00 0.00 0.00 0.00 0.00 0.00 0.00 0.00 0.00 0.00 0.00 0.00 0.00 0.00 0.00 0.03 0.04 0.03 0.02 0.02 0.01 0.01 0.00 0.00 0.01
0.02 0.01 0.00 0.00 0.00 0.00 0.00 0.00 0.00 0.05 0.05 0.01 0.00 0.00 0.00 0.00 0.00 0.00 0.00 0.00 0.00 0.00 0.00 0.00 0.00 0.00 0.00 0.00 0.00 0.00 0.00 0.00 0.00 0.02 0.04 0.02 0.02 0.01 0.00 0.00 0.01 0.01 0.01
0.00 0.00 0.00 0.00 0.00 0.00 0.01 0.06 0.09 0.04 0.00 0.00 0.00 0.00 0.00 0.00 0.00 0.00 0.00 0.00 0.00 0.00 0.00 0.00 0.00 0.00 0.00 0.00 0.00 0.00 0.02 0.01 0.01 0.02 0.05 0.05 0.03 0.02 0.01 0.00 0.01 0.01 0.02
0.00 0.00 0.00 0.00 0.02 0.05 0.10 0.10 0.04 0.01 0.00 0.00 0.00 0.00 0.00 0.00 0.00 0.00 0.00 0.00 0.00 0.00 0.00 0.00 0.00 0.00 0.00 0.01 0.01 0.01 0.02 0.01 0.01 0.04 0.04 0.06 0.11 0.09 0.02 0.04 0.04 0.04 0.05
0.00 0.00 0.01 0.05 0.09 0.12 0.11 0.09 0.02 0.00 0.00 0.00 0.00 0.00 0.00 0.00 0.00 0.00 0.00 0.00 0.00 0.00 0.00 0.01 0.01 0.01 0.01 0.01 0.03 0.04 0.04 0.04 0.03 0.05 0.07 0.04 0.04 0.05 0.11 0.14 0.14 0.11 0.12
0.01 0.03 0.07 0.13 0.15 0.12 0.05 0.02 0.00 0.00 0.00 0.00 0.00 0.00 0.00 0.00 0.00 0.00 0.00 0.00 0.00 0.00 0.00 0.00 0.01 0.02 0.03 0.03 0.04 0.04 0.03 0.05 0.04 0.03 0.05 0.01 0.01 0.02 0.02 0.05 0.06 0.08 0.10
0.11 0.15 0.17 0.13 0.06 0.01 0.02 0.04 0.02 0.00 0.00 0.00 0.00 0.00 0.00 0.00 0.00 0.00 0.00 0.00 0.00 0.00 0.00 0.00 0.01 0.01 0.01 0.01 0.02 0.03 0.05 0.03 0.01 0.00 0.00 0.01 0.00 0.01 0.00 0.00 0.00 0.00 0.01
0.18 0.12 0.04 0.01 0.02 0.02 0.04 0.02 0.01 0.00 0.00 0.00 0.00 0.00 0.00 0.00 0.00 0.00 0.00 0.00 0.00 0.00 0.00 0.00 0.00 0.00 0.00 0.00 0.00 0.03 0.03 0.04 0.03 0.01 0.01 0.02 0.00 0.01 0.00 0.00 0.00 0.00 0.00
0.03 0.03 0.04 0.04 0.04 0.01 0.00 0.00 0.00 0.00 0.00 0.00 0.00 0.00 0.00 0.00 0.00 0.00 0.00 0.00 0.00 0.00 0.00 0.00 0.00 0.00 0.00 0.01 0.01 0.03 0.04 0.07 0.05 0.06 0.03 0.12 0.03 0.06 0.09 0.00 0.00 0.00 0.01

GFSMA_prec_precacc24_033.txt.gz
Total_Precipitation_Accumulation
0.00 0.00 0.00 0.00 0.00 0.00 0.00 0.00 0.00 0.00 0.00 0.00 0.00 0.00 0.00 0.00 0.00 0.00 0.00 0.00 0.00 0.00 0.02 0.03 0.01 0.00 0.00 0.00 0.00 0.00 0.00 0.00 0.00 0.00 0.00 0.00 0.00 0.00 0.01 0.01 0.00 0.00 0.00
0.02 0.01 0.00 0.00 0.00 0.00 0.00 0.00 0.00 0.00 0.00 0.00 0.00 0.00 0.00 0.00 0.00 0.00 0.00 0.00 0.00 0.00 0.00 0.00 0.00 0.00 0.00 0.00 0.00 0.00 0.00 0.00 0.00 0.00 0.00 0.00 0.00 0.00 0.00 0.01 0.00 0.00 0.00
0.07 0.01 0.00 0.00 0.00 0.00 0.00 0.00 0.00 0.00 0.00 0.00 0.00 0.00 0.00 0.00 0.00 0.00 0.00 0.00 0.00 0.00 0.00 0.00 0.00 0.00 0.00 0.00 0.00 0.00 0.00 0.00 0.00 0.00 0.00 0.00 0.00 0.00 0.00 0.00 0.01 0.00 0.00
0.00 0.00 0.00 0.00 0.00 0.00 0.00 0.00 0.00 0.00 0.00 0.00 0.00 0.00 0.00 0.00 0.00 0.00 0.00 0.00 0.00 0.00 0.00 0.00 0.00 0.00 0.00 0.00 0.00 0.00 0.00 0.00 0.00 0.00 0.00 0.00 0.00 0.00 0.00 0.00 0.00 0.01 0.00
0.00 0.00 0.00 0.00 0.00 0.00 0.00 0.00 0.00 0.00 0.00 0.00 0.00 0.00 0.00 0.00 0.00 0.00 0.00 0.00 0.00 0.00 0.00 0.00 0.00 0.00 0.00 0.00 0.00 0.00 0.00 0.00 0.00 0.00 0.00 0.00 0.00 0.00 0.00 0.00 0.00 0.00 0.01
0.00 0.00 0.00 0.00 0.00 0.00 0.00 0.00 0.00 0.00 0.00 0.00 0.00 0.00 0.00 0.00 0.00 0.00 0.00 0.00 0.00 0.00 0.00 0.00 0.00 0.00 0.00 0.00 0.00 0.00 0.00 0.00 0.00 0.00 0.00 0.00 0.00 0.00 0.00 0.00 0.00 0.00 0.00
0.00 0.00 0.00 0.00 0.00 0.00 0.00 0.00 0.00 0.00 0.00 0.00 0.00 0.00 0.00 0.00 0.00 0.00 0.00 0.00 0.00 0.00 0.00 0.00 0.00 0.00 0.00 0.00 0.00 0.00 0.00 0.00 0.00 0.00 0.00 0.00 0.00 0.00 0.00 0.00 0.00 0.00 0.00
0.00 0.00 0.00 0.00 0.00 0.00 0.00 0.00 0.00 0.00 0.00 0.00 0.00 0.00 0.00 0.00 0.00 0.00 0.00 0.00 0.00 0.00 0.00 0.00 0.00 0.00 0.00 0.00 0.00 0.00 0.00 0.00 0.00 0.00 0.00 0.00 0.00 0.00 0.00 0.00 0.00 0.00 0.00
0.00 0.00 0.00 0.00 0.00 0.00 0.00 0.00 0.00 0.00 0.00 0.00 0.00 0.00 0.00 0.00 0.00 0.00 0.00 0.00 0.00 0.00 0.00 0.00 0.00 0.00 0.00 0.00 0.00 0.00 0.00 0.00 0.00 0.00 0.00 0.00 0.00 0.00 0.00 0.00 0.00 0.00 0.00
0.00 0.00 0.00 0.00 0.00 0.00 0.00 0.00 0.00 0.00 0.00 0.00 0.00 0.00 0.00 0.00 0.00 0.00 0.00 0.00 0.00 0.00 0.00 0.00 0.00 0.00 0.00 0.00 0.00 0.00 0.00 0.00 0.00 0.00 0.00 0.00 0.00 0.00 0.00 0.00 0.00 0.00 0.00
0.00 0.00 0.00 0.00 0.00 0.00 0.00 0.00 0.00 0.01 0.00 0.00 0.00 0.00 0.00 0.00 0.00 0.00 0.00 0.00 0.00 0.00 0.00 0.00 0.00 0.00 0.00 0.00 0.00 0.00 0.00 0.00 0.00 0.00 0.00 0.00 0.00 0.00 0.00 0.00 0.00 0.00 0.00
0.02 0.02 0.01 0.00 0.00 0.00 0.00 0.01 0.01 0.00 0.00 0.01 0.00 0.00 0.00 0.00 0.00 0.00 0.00 0.00 0.00 0.00 0.00 0.00 0.00 0.00 0.00 0.00 0.00 0.00 0.00 0.00 0.00 0.00 0.00 0.00 0.00 0.00 0.00 0.00 0.00 0.00 0.01
0.04 0.04 0.03 0.03 0.03 0.03 0.04 0.02 0.02 0.03 0.03 0.01 0.00 0.00 0.00 0.00 0.00 0.00 0.00 0.00 0.00 0.00 0.00 0.00 0.00 0.00 0.00 0.00 0.00 0.00 0.00 0.00 0.00 0.00 0.00 0.00 0.00 0.00 0.00 0.00 0.00 0.00 0.01
0.17 0.16 0.10 0.07 0.04 0.02 0.02 0.03 0.05 0.04 0.03 0.01 0.00 0.00 0.00 0.00 0.00 0.00 0.00 0.00 0.00 0.00 0.00 0.00 0.00 0.00 0.00 0.00 0.00 0.00 0.00 0.00 0.00 0.00 0.00 0.00 0.00 0.00 0.01 0.01 0.01 0.01 0.02
0.03 0.02 0.02 0.01 0.02 0.04 0.06 0.10 0.09 0.04 0.02 0.01 0.00 0.00 0.00 0.00 0.00 0.00 0.00 0.00 0.00 0.00 0.00 0.00 0.00 0.00 0.00 0.00 0.00 0.00 0.00 0.00 0.00 0.00 0.00 0.00 0.00 0.00 0.00 0.01 0.01 0.01 0.01
0.01 0.00 0.00 0.03 0.09 0.14 0.15 0.10 0.04 0.01 0.00 0.00 0.00 0.00 0.00 0.00 0.00 0.00 0.00 0.00 0.00 0.00 0.00 0.00 0.00 0.00 0.00 0.00 0.00 0.00 0.00 0.00 0.00 0.00 0.00 0.00 0.00 0.00 0.00 0.00 0.00 0.00 0.01
0.03 0.05 0.10 0.12 0.09 0.05 0.02 0.00 0.00 0.00 0.00 0.00 0.01 0.01 0.00 0.00 0.00 0.00 0.00 0.00 0.00 0.00 0.00 0.00 0.00 0.00 0.00 0.00 0.00 0.00 0.00 0.00 0.00 0.00 0.00 0.01 0.01 0.00 0.01 0.01 0.01 0.00 0.00
0.04 0.03 0.01 0.01 0.00 0.00 0.00 0.00 0.01 0.00 0.01 0.05 0.05 0.01 0.00 0.00 0.00 0.00 0.00 0.00 0.00 0.00 0.00 0.00 0.00 0.00 0.00 0.00 0.00 0.00 0.00 0.00 0.00 0.00 0.01 0.01 0.02 0.02 0.01 0.01 0.00 0.00 0.01
0.02 0.01 0.01 0.02 0.02 0.01 0.01 0.01 0.01 0.05 0.08 0.04 0.01 0.00 0.00 0.00 0.00 0.00 0.00 0.00 0.00 0.00 0.00 0.00 0.00 0.00 0.00 0.00 0.00 0.00 0.00 0.00 0.00 0.00 0.01 0.02 0.02 0.01 0.00 0.00 0.01 0.01 0.01
0.00 0.00 0.00 0.01 0.01 0.00 0.01 0.06 0.09 0.07 0.06 0.04 0.01 0.00 0.00 0.00 0.00 0.00 0.00 0.00 0.00 0.00 0.00 0.00 0.00 0.00 0.00 0.00 0.00 0.00 0.00 0.00 0.00 0.00 0.01 0.04 0.03 0.02 0.01 0.00 0.01 0.01 0.02
0.00 0.00 0.00 0.00 0.01 0.06 0.11 0.11 0.12 0.11 0.03 0.00 0.00 0.00 0.00 0.00 0.00 0.00 0.00 0.00 0.01 0.01 0.01 0.00 0.00 0.00 0.00 0.00 0.00 0.00 0.00 0.00 0.00 0.01 0.01 0.04 0.11 0.09 0.02 0.03 0.03 0.03 0.02
0.00 0.00 0.01 0.04 0.08 0.13 0.13 0.12 0.05 0.01 0.00 0.00 0.00 0.00 0.00 0.00 0.00 0.00 0.00 0.00 0.00 0.01 0.01 0.01 0.00 0.00 0.00 0.01 0.01 0.02 0.01 0.01 0.01 0.02 0.01 0.01 0.03 0.05 0.11 0.14 0.14 0.10 0.05
0.01 0.03 0.07 0.12 0.14 0.11 0.06 0.02 0.01 0.00 0.01 0.00 0.00 0.00 0.00 0.00 0.00 0.00 0.00 0.00 0.00 0.00 0.00 0.00 0.01 0.01 0.02 0.01 0.00 0.01 0.01 0.02 0.02 0.00 0.01 0.00 0.01 0.01 0.02 0.05 0.06 0.08 0.05
0.11 0.15 0.17 0.13 0.05 0.01 0.02 0.04 0.03 0.01 0.01 0.00 0.00 0.00 0.00 0.00 0.00 0.00 0.00 0.00 0.00 0.00 0.00 0.00 0.00 0.00 0.00 0.00 0.00 0.01 0.03 0.03 0.00 0.00 0.00 0.01 0.00 0.00 0.00 0.00 0.00 0.00 0.00
0.18 0.12 0.04 0.01 0.02 0.02 0.04 0.03 0.02 0.00 0.00 0.00 0.00 0.00 0.00 0.00 0.00 0.00 0.00 0.00 0.00 0.00 0.00 0.00 0.00 0.00 0.00 0.00 0.00 0.02 0.02 0.03 0.01 0.00 0.00 0.01 0.00 0.00 0.00 0.00 0.00 0.00 0.00
0.03 0.03 0.04 0.04 0.05 0.02 0.01 0.00 0.00 0.00 0.00 0.00 0.00 0.00 0.00 0.00 0.00 0.00 0.00 0.00 0.00 0.00 0.01 0.00 0.00 0.00 0.00 0.00 0.01 0.02 0.03 0.06 0.04 0.04 0.01 0.09 0.02 0.06 0.08 0.00 0.00 0.00 0.01

GFSMA_prec_precacc24_036.txt.gz
Total_Precipitation_Accumulation
0.00 0.00 0.00 0.00 0.00 0.00 0.00 0.00 0.00 0.00 0.00 0.00 0.00 0.00 0.00 0.00 0.00 0.00 0.00 0.00 0.00 0.00 0.03 0.04 0.01 0.00 0.00 0.00 0.00 0.00 0.00 0.00 0.00 0.00 0.00 0.00 0.00 0.00 0.00 0.00 0.00 0.00 0.00
0.02 0.01 0.00 0.00 0.00 0.00 0.00 0.00 0.00 0.00 0.00 0.00 0.00 0.00 0.00 0.00 0.00 0.00 0.00 0.00 0.00 0.00 0.00 0.01 0.00 0.00 0.00 0.00 0.00 0.00 0.00 0.00 0.00 0.00 0.00 0.00 0.00 0.00 0.00 0.00 0.00 0.00 0.00
0.02 0.00 0.00 0.00 0.00 0.00 0.00 0.00 0.00 0.00 0.00 0.00 0.00 0.00 0.00 0.00 0.00 0.00 0.00 0.00 0.00 0.00 0.00 0.00 0.00 0.00 0.00 0.00 0.00 0.00 0.00 0.00 0.00 0.00 0.00 0.00 0.00 0.00 0.00 0.00 0.00 0.00 0.00
0.00 0.00 0.00 0.00 0.00 0.00 0.00 0.00 0.00 0.00 0.00 0.00 0.00 0.00 0.00 0.00 0.00 0.00 0.00 0.00 0.00 0.00 0.00 0.00 0.00 0.00 0.00 0.00 0.00 0.00 0.00 0.00 0.00 0.00 0.00 0.00 0.00 0.00 0.00 0.00 0.00 0.00 0.00
0.00 0.00 0.00 0.00 0.00 0.00 0.00 0.00 0.00 0.00 0.00 0.00 0.00 0.00 0.00 0.00 0.00 0.00 0.00 0.00 0.00 0.00 0.00 0.00 0.00 0.00 0.00 0.00 0.00 0.00 0.00 0.00 0.00 0.00 0.00 0.00 0.00 0.00 0.00 0.00 0.00 0.00 0.00
0.00 0.00 0.00 0.00 0.00 0.00 0.00 0.00 0.00 0.00 0.00 0.00 0.00 0.00 0.00 0.00 0.00 0.00 0.00 0.00 0.00 0.00 0.00 0.00 0.00 0.00 0.00 0.00 0.00 0.00 0.00 0.00 0.00 0.00 0.00 0.00 0.00 0.00 0.00 0.00 0.00 0.00 0.00
0.02 0.00 0.00 0.00 0.00 0.00 0.00 0.00 0.00 0.00 0.00 0.00 0.00 0.00 0.00 0.00 0.00 0.00 0.00 0.00 0.00 0.00 0.00 0.00 0.00 0.00 0.00 0.00 0.00 0.00 0.00 0.00 0.00 0.00 0.00 0.00 0.00 0.00 0.00 0.00 0.00 0.00 0.00
0.00 0.00 0.00 0.00 0.00 0.00 0.00 0.00 0.00 0.00 0.00 0.00 0.00 0.00 0.00 0.00 0.00 0.00 0.00 0.00 0.00 0.00 0.00 0.00 0.00 0.00 0.00 0.00 0.00 0.00 0.00 0.00 0.00 0.00 0.00 0.00 0.00 0.00 0.00 0.00 0.00 0.00 0.00
0.01 0.00 0.00 0.00 0.00 0.00 0.00 0.00 0.00 0.00 0.00 0.00 0.00 0.00 0.00 0.00 0.00 0.00 0.00 0.00 0.00 0.00 0.00 0.00 0.00 0.00 0.00 0.00 0.00 0.00 0.00 0.00 0.00 0.00 0.00 0.00 0.00 0.00 0.00 0.00 0.00 0.00 0.00
0.01 0.03 0.00 0.00 0.00 0.00 0.00 0.00 0.00 0.00 0.00 0.00 0.00 0.00 0.00 0.00 0.00 0.00 0.00 0.00 0.00 0.00 0.00 0.00 0.00 0.00 0.00 0.00 0.00 0.00 0.00 0.00 0.00 0.00 0.00 0.00 0.00 0.00 0.00 0.00 0.00 0.00 0.00
0.00 0.03 0.00 0.00 0.00 0.00 0.00 0.00 0.01 0.01 0.00 0.00 0.00 0.01 0.01 0.00 0.00 0.00 0.00 0.00 0.00 0.00 0.00 0.00 0.00 0.00 0.00 0.00 0.00 0.00 0.00 0.00 0.00 0.00 0.00 0.00 0.00 0.00 0.00 0.00 0.00 0.00 0.00
0.03 0.05 0.03 0.01 0.01 0.03 0.08 0.10 0.07 0.01 0.01 0.02 0.02 0.02 0.03 0.02 0.00 0.00 0.00 0.00 0.00 0.00 0.00 0.00 0.00 0.00 0.00 0.00 0.00 0.00 0.00 0.00 0.00 0.00 0.00 0.00 0.00 0.00 0.00 0.00 0.00 0.00 0.01
0.05 0.05 0.04 0.06 0.11 0.15 0.12 0.07 0.03 0.04 0.04 0.03 0.06 0.08 0.04 0.00 0.00 0.00 0.00 0.00 0.00 0.00 0.00 0.00 0.00 0.00 0.00 0.00 0.00 0.00 0.00 0.00 0.00 0.00 0.00 0.00 0.00 0.00 0.00 0.00 0.00 0.00 0.01
0.18 0.22 0.20 0.15 0.08 0.03 0.02 0.03 0.05 0.05 0.07 0.09 0.08 0.03 0.00 0.00 0.00 0.00 0.00 0.00 0.00 0.00 0.00 0.00 0.00 0.00 0.00 0.00 0.00 0.00 0.00 0.00 0.00 0.00 0.00 0.00 0.00 0.00 0.00 0.00 0.00 0.01 0.02
0.03 0.02 0.02 0.01 0.02 0.04 0.07 0.09 0.11 0.10 0.07 0.04 0.02 0.00 0.00 0.00 0.00 0.00 0.00 0.00 0.00 0.00 0.00 0.00 0.00 0.00 0.00 0.00 0.00 0.00 0.00 0.00 0.00 0.00 0.00 0.00 0.00 0.00 0.00 0.00 0.01 0.01 0.01
0.03 0.02 0.01 0.03 0.09 0.14 0.15 0.12 0.06 0.03 0.02 0.00 0.00 0.00 0.00 0.00 0.00 0.00 0.00 0.00 0.00 0.00 0.00 0.00 0.00 0.00 0.00 0.00 0.00 0.00 0.00 0.00 0.00 0.00 0.00 0.00 0.00 0.00 0.00 0.00 0.00 0.00 0.01
0.07 0.06 0.10 0.12 0.09 0.05 0.02 0.01 0.01 0.02 0.01 0.01 0.02 0.02 0.00 0.00 0.00 0.00 0.00 0.00 0.00 0.00 0.00 0.00 0.00 0.00 0.00 0.00 0.00 0.00 0.00 0.00 0.00 0.00 0.00 0.00 0.00 0.00 0.01 0.01 0.01 0.00 0.00
0.07 0.03 0.01 0.01 0.00 0.01 0.01 0.01 0.02 0.03 0.04 0.06 0.04 0.01 0.00 0.00 0.00 0.00 0.00 0.00 0.00 0.00 0.00 0.00 0.00 0.00 0.00 0.00 0.00 0.00 0.00 0.00 0.00 0.00 0.00 0.00 0.01 0.02 0.01 0.01 0.00 0.00 0.01
0.02 0.01 0.01 0.02 0.02 0.02 0.02 0.02 0.03 0.08 0.10 0.04 0.03 0.02 0.00 0.00 0.00 0.00 0.00 0.00 0.00 0.00 0.00 0.00 0.00 0.00 0.00 0.00 0.00 0.00 0.00 0.00 0.00 0.00 0.00 0.00 0.01 0.00 0.00 0.00 0.00 0.01 0.01
0.00 0.00 0.01 0.01 0.01 0.01 0.02 0.06 0.10 0.08 0.08 0.07 0.02 0.00 0.00 0.00 0.00 0.00 0.00 0.00 0.00 0.01 0.00 0.01 0.00 0.00 0.00 0.00 0.00 0.00 0.00 0.00 0.00 0.00 0.00 0.01 0.00 0.00 0.01 0.00 0.01 0.01 0.02
0.00 0.00 0.00 0.00 0.01 0.05 0.11 0.12 0.12 0.12 0.04 0.01 0.00 0.00 0.00 0.00 0.00 0.00 0.00 0.00 0.01 0.01 0.01 0.01 0.00 0.00 0.00 0.00 0.00 0.00 0.00 0.00 0.00 0.00 0.00 0.00 0.00 0.01 0.02 0.01 0.02 0.03 0.02
0.00 0.00 0.01 0.04 0.08 0.12 0.13 0.12 0.06 0.01 0.00 0.00 0.00 0.00 0.00 0.00 0.00 0.00 0.00 0.00 0.00 0.01 0.01 0.01 0.01 0.00 0.00 0.00 0.00 0.00 0.00 0.00 0.01 0.00 0.00 0.00 0.00 0.01 0.09 0.10 0.12 0.10 0.05
0.01 0.03 0.07 0.12 0.14 0.10 0.06 0.02 0.01 0.00 0.01 0.00 0.00 0.00 0.00 0.00 0.00 0.00 0.00 0.00 0.00 0.00 0.00 0.00 0.01 0.00 0.00 0.00 0.01 0.00 0.00 0.01 0.01 0.00 0.00 0.00 0.00 0.00 0.02 0.04 0.06 0.08 0.05
0.11 0.15 0.17 0.13 0.05 0.01 0.02 0.04 0.03 0.01 0.01 0.00 0.00 0.00 0.00 0.00 0.00 0.00 0.00 0.00 0.00 0.00 0.00 0.00 0.00 0.00 0.00 0.00 0.02 0.02 0.03 0.03 0.00 0.00 0.00 0.01 0.00 0.00 0.00 0.00 0.00 0.00 0.00
0.18 0.12 0.04 0.01 0.02 0.02 0.04 0.03 0.02 0.00 0.00 0.00 0.00 0.00 0.00 0.00 0.00 0.00 0.00 0.00 0.00 0.00 0.00 0.00 0.00 0.00 0.00 0.00 0.01 0.02 0.02 0.03 0.01 0.00 0.00 0.00 0.00 0.00 0.00 0.00 0.00 0.00 0.00
0.03 0.03 0.04 0.04 0.05 0.02 0.01 0.00 0.00 0.00 0.00 0.00 0.00 0.00 0.00 0.00 0.00 0.00 0.00 0.00 0.00 0.00 0.01 0.02 0.01 0.00 0.00 0.00 0.00 0.01 0.02 0.05 0.03 0.03 0.00 0.06 0.00 0.03 0.07 0.00 0.00 0.00 0.01

GFSMA_prec_precacc24_042.txt.gz
Total_Precipitation_Accumulation
0.00 0.00 0.00 0.00 0.00 0.00 0.00 0.00 0.00 0.00 0.00 0.00 0.00 0.00 0.00 0.00 0.00 0.00 0.00 0.00 0.00 0.01 0.04 0.05 0.02 0.00 0.00 0.00 0.00 0.00 0.00 0.00 0.00 0.00 0.00 0.00 0.00 0.00 0.00 0.00 0.00 0.00 0.00
0.00 0.00 0.02 0.00 0.00 0.00 0.00 0.00 0.00 0.00 0.00 0.00 0.00 0.00 0.00 0.00 0.00 0.00 0.00 0.00 0.00 0.00 0.01 0.02 0.01 0.00 0.00 0.00 0.00 0.00 0.00 0.00 0.00 0.00 0.00 0.00 0.00 0.00 0.00 0.00 0.00 0.00 0.00
0.01 0.02 0.03 0.01 0.00 0.00 0.00 0.00 0.00 0.00 0.00 0.00 0.00 0.00 0.00 0.00 0.00 0.00 0.00 0.00 0.00 0.00 0.00 0.00 0.00 0.00 0.00 0.00 0.00 0.00 0.00 0.00 0.00 0.00 0.00 0.00 0.00 0.00 0.00 0.00 0.00 0.00 0.00
0.00 0.00 0.01 0.00 0.00 0.00 0.00 0.00 0.00 0.00 0.00 0.00 0.00 0.00 0.00 0.00 0.00 0.00 0.00 0.00 0.00 0.00 0.00 0.00 0.00 0.00 0.00 0.00 0.00 0.00 0.00 0.00 0.00 0.00 0.00 0.00 0.00 0.00 0.00 0.00 0.00 0.00 0.00
0.00 0.00 0.00 0.00 0.00 0.00 0.00 0.00 0.00 0.00 0.00 0.00 0.00 0.00 0.00 0.00 0.00 0.00 0.00 0.00 0.00 0.00 0.00 0.00 0.00 0.00 0.00 0.00 0.00 0.00 0.00 0.00 0.00 0.00 0.00 0.00 0.00 0.00 0.00 0.00 0.00 0.00 0.00
0.03 0.02 0.01 0.01 0.00 0.00 0.00 0.00 0.00 0.00 0.00 0.00 0.00 0.00 0.00 0.00 0.00 0.00 0.00 0.00 0.00 0.00 0.00 0.00 0.00 0.00 0.00 0.00 0.00 0.00 0.00 0.00 0.00 0.00 0.00 0.00 0.00 0.00 0.00 0.00 0.00 0.00 0.00
0.10 0.04 0.01 0.00 0.00 0.00 0.00 0.00 0.00 0.00 0.00 0.00 0.00 0.00 0.00 0.00 0.00 0.00 0.00 0.00 0.00 0.00 0.00 0.00 0.00 0.00 0.00 0.00 0.00 0.00 0.00 0.00 0.00 0.00 0.00 0.00 0.00 0.00 0.00 0.00 0.00 0.00 0.00
0.06 0.04 0.01 0.00 0.00 0.00 0.00 0.00 0.00 0.00 0.00 0.00 0.00 0.00 0.00 0.00 0.00 0.00 0.00 0.00 0.00 0.00 0.00 0.00 0.00 0.00 0.00 0.00 0.00 0.00 0.00 0.00 0.00 0.00 0.00 0.00 0.00 0.00 0.00 0.00 0.00 0.00 0.00
0.04 0.06 0.02 0.00 0.00 0.00 0.00 0.00 0.00 0.00 0.00 0.00 0.00 0.00 0.00 0.00 0.00 0.00 0.00 0.00 0.00 0.00 0.00 0.00 0.00 0.00 0.00 0.00 0.00 0.00 0.00 0.00 0.00 0.00 0.00 0.00 0.00 0.00 0.00 0.00 0.00 0.00 0.00
0.06 0.19 0.07 0.02 0.00 0.00 0.00 0.00 0.00 0.00 0.00 0.00 0.01 0.00 0.00 0.00 0.00 0.00 0.00 0.00 0.00 0.00 0.00 0.00 0.00 0.00 0.00 0.00 0.00 0.00 0.00 0.00 0.00 0.00 0.00 0.00 0.00 0.00 0.00 0.00 0.00 0.00 0.00
0.03 0.11 0.09 0.05 0.01 0.03 0.04 0.03 0.02 0.03 0.08 0.11 0.06 0.02 0.01 0.01 0.00 0.00 0.00 0.00 0.00 0.00 0.00 0.00 0.00 0.00 0.00 0.00 0.00 0.00 0.00 0.00 0.00 0.00 0.00 0.00 0.00 0.00 0.00 0.00 0.00 0.00 0.00
0.17 0.21 0.19 0.14 0.09 0.10 0.16 0.17 0.16 0.10 0.06 0.05 0.03 0.02 0.04 0.06 0.04 0.01 0.00 0.00 0.00 0.00 0.00 0.00 0.00 0.00 0.00 0.00 0.00 0.00 0.00 0.00 0.00 0.00 0.00 0.00 0.00 0.00 0.00 0.00 0.00 0.00 0.00
0.30 0.28 0.26 0.22 0.18 0.24 0.22 0.16 0.08 0.05 0.04 0.04 0.07 0.12 0.11 0.06 0.03 0.01 0.00 0.00 0.00 0.00 0.00 0.00 0.00 0.00 0.00 0.00 0.00 0.00 0.00 0.00 0.00 0.00 0.00 0.00 0.00 0.00 0.00 0.00 0.00 0.00 0.00
0.31 0.43 0.38 0.35 0.20 0.12 0.12 0.09 0.06 0.06 0.07 0.09 0.10 0.07 0.05 0.03 0.01 0.00 0.00 0.00 0.00 0.00 0.00 0.00 0.00 0.00 0.00 0.00 0.00 0.00 0.00 0.00 0.00 0.00 0.00 0.00 0.00 0.00 0.00 0.00 0.00 0.00 0.01
0.14 0.21 0.25 0.20 0.15 0.17 0.17 0.16 0.13 0.10 0.07 0.05 0.03 0.02 0.01 0.01 0.00 0.00 0.00 0.00 0.00 0.00 0.00 0.00 0.00 0.00 0.00 0.00 0.00 0.00 0.00 0.00 0.00 0.00 0.00 0.00 0.00 0.00 0.00 0.00 0.00 0.00 0.01
0.33 0.36 0.31 0.24 0.26 0.26 0.23 0.17 0.08 0.04 0.03 0.03 0.02 0.01 0.01 0.02 0.01 0.01 0.01 0.01 0.00 0.00 0.00 0.00 0.00 0.00 0.00 0.00 0.00 0.00 0.00 0.00 0.00 0.00 0.00 0.00 0.00 0.00 0.00 0.00 0.00 0.00 0.01
0.45 0.37 0.30 0.25 0.16 0.10 0.05 0.01 0.02 0.04 0.04 0.03 0.03 0.04 0.02 0.01 0.01 0.02 0.02 0.01 0.00 0.00 0.00 0.00 0.00 0.00 0.00 0.00 0.00 0.00 0.00 0.00 0.00 0.00 0.00 0.00 0.00 0.00 0.00 0.00 0.00 0.00 0.00
0.63 0.18 0.10 0.08 0.05 0.04 0.02 0.01 0.03 0.04 0.05 0.09 0.07 0.04 0.02 0.01 0.01 0.01 0.01 0.00 0.00 0.00 0.00 0.00 0.00 0.00 0.00 0.00 0.00 0.00 0.00 0.00 0.00 0.00 0.00 0.00 0.00 0.00 0.00 0.00 0.00 0.00 0.00
0.26 0.04 0.03 0.06 0.05 0.04 0.03 0.02 0.03 0.09 0.11 0.06 0.05 0.04 0.03 0.02 0.01 0.00 0.00 0.00 0.00 0.00 0.00 0.00 0.00 0.00 0.00 0.00 0.00 0.00 0.00 0.00 0.00 0.00 0.00 0.00 0.00 0.00 0.00 0.00 0.00 0.00 0.00
0.10 0.05 0.04 0.04 0.02 0.02 0.02 0.07 0.10 0.08 0.09 0.08 0.03 0.01 0.00 0.00 0.00 0.00 0.00 0.00 0.00 0.01 0.00 0.01 0.00 0.00 0.00 0.00 0.00 0.01 0.01 0.01 0.01 0.01 0.01 0.00 0.00 0.00 0.00 0.00 0.00 0.00 0.01
0.06 0.04 0.03 0.02 0.02 0.06 0.12 0.13 0.13 0.12 0.04 0.01 0.00 0.00 0.00 0.00 0.00 0.00 0.00 0.00 0.01 0.01 0.01 0.01 0.01 0.00 0.00 0.00 0.00 0.01 0.02 0.01 0.00 0.00 0.01 0.00 0.00 0.00 0.00 0.00 0.00 0.01 0.01
0.02 0.01 0.02 0.04 0.09 0.12 0.15 0.13 0.06 0.01 0.00 0.00 0.00 0.00 0.00 0.00 0.00 0.00 0.00 0.00 0.00 0.01 0.01 0.01 0.01 0.00 0.00 0.00 0.01 0.02 0.02 0.03 0.03 0.00 0.01 0.00 0.00 0.00 0.00 0.00 0.01 0.01 0.01
0.01 0.03 0.07 0.12 0.14 0.10 0.06 0.02 0.01 0.00 0.01 0.00 0.00 0.00 0.00 0.00 0.00 0.00 0.00 0.00 0.00 0.00 0.00 0.00 0.01 0.00 0.00 0.00 0.02 0.03 0.03 0.05 0.04 0.01 0.01 0.01 0.00 0.01 0.00 0.01 0.01 0.00 0.01
0.11 0.15 0.17 0.13 0.05 0.01 0.02 0.04 0.03 0.01 0.01 0.00 0.00 0.00 0.00 0.00 0.00 0.00 0.00 0.00 0.00 0.00 0.00 0.00 0.00 0.00 0.00 0.01 0.03 0.04 0.06 0.05 0.02 0.01 0.01 0.02 0.00 0.00 0.00 0.00 0.00 0.00 0.00
0.18 0.12 0.04 0.01 0.02 0.02 0.04 0.03 0.02 0.00 0.00 0.00 0.00 0.00 0.00 0.00 0.00 0.00 0.00 0.00 0.00 0.00 0.00 0.00 0.00 0.00 0.00 0.00 0.01 0.03 0.03 0.05 0.05 0.01 0.01 0.03 0.02 0.02 0.01 0.00 0.00 0.00 0.00
0.03 0.03 0.04 0.04 0.05 0.02 0.01 0.00 0.00 0.00 0.00 0.00 0.00 0.00 0.00 0.00 0.00 0.00 0.00 0.00 0.00 0.00 0.01 0.02 0.01 0.00 0.00 0.00 0.01 0.02 0.02 0.07 0.06 0.04 0.01 0.03 0.02 0.05 0.08 0.00 0.00 0.00 0.01

GFSMA_prec_precacc24_045.txt.gz
Total_Precipitation_Accumulation
0.00 0.00 0.00 0.00 0.00 0.00 0.00 0.00 0.00 0.00 0.00 0.00 0.00 0.00 0.00 0.00 0.00 0.00 0.00 0.00 0.00 0.01 0.04 0.05 0.02 0.00 0.00 0.00 0.00 0.00 0.00 0.00 0.00 0.00 0.00 0.00 0.00 0.00 0.00 0.00 0.00 0.00 0.00
0.00 0.00 0.02 0.00 0.00 0.00 0.00 0.00 0.00 0.00 0.00 0.00 0.00 0.00 0.00 0.00 0.00 0.00 0.00 0.00 0.00 0.00 0.01 0.02 0.01 0.00 0.00 0.00 0.00 0.00 0.00 0.00 0.00 0.00 0.00 0.00 0.00 0.00 0.00 0.00 0.00 0.00 0.00
0.01 0.02 0.03 0.01 0.00 0.00 0.00 0.00 0.00 0.00 0.00 0.00 0.00 0.00 0.00 0.00 0.00 0.00 0.00 0.00 0.00 0.00 0.00 0.00 0.00 0.00 0.00 0.00 0.00 0.00 0.00 0.00 0.00 0.00 0.00 0.00 0.00 0.00 0.00 0.00 0.00 0.00 0.00
0.00 0.00 0.01 0.00 0.00 0.00 0.00 0.00 0.00 0.00 0.00 0.00 0.00 0.00 0.00 0.00 0.00 0.00 0.00 0.00 0.00 0.00 0.00 0.00 0.00 0.00 0.00 0.00 0.00 0.00 0.00 0.00 0.00 0.00 0.00 0.00 0.00 0.00 0.00 0.00 0.00 0.00 0.00
0.00 0.00 0.00 0.00 0.00 0.00 0.00 0.00 0.00 0.00 0.00 0.00 0.00 0.00 0.00 0.00 0.00 0.00 0.00 0.00 0.00 0.00 0.00 0.00 0.00 0.00 0.00 0.00 0.00 0.00 0.00 0.00 0.00 0.00 0.00 0.00 0.00 0.00 0.00 0.00 0.00 0.00 0.00
0.03 0.02 0.01 0.01 0.00 0.00 0.00 0.00 0.00 0.00 0.00 0.00 0.00 0.00 0.00 0.00 0.00 0.00 0.00 0.00 0.00 0.00 0.00 0.00 0.00 0.00 0.00 0.00 0.00 0.00 0.00 0.00 0.00 0.00 0.00 0.00 0.00 0.00 0.00 0.00 0.00 0.00 0.00
0.10 0.04 0.01 0.00 0.00 0.00 0.00 0.00 0.00 0.00 0.00 0.00 0.00 0.00 0.00 0.00 0.00 0.00 0.00 0.00 0.00 0.00 0.00 0.00 0.00 0.00 0.00 0.00 0.00 0.00 0.00 0.00 0.00 0.00 0.00 0.00 0.00 0.00 0.00 0.00 0.00 0.00 0.00
0.06 0.04 0.01 0.00 0.00 0.00 0.00 0.00 0.00 0.00 0.00 0.00 0.00 0.00 0.00 0.00 0.00 0.00 0.00 0.00 0.00 0.00 0.00 0.00 0.00 0.00 0.00 0.00 0.00 0.00 0.00 0.00 0.00 0.00 0.00 0.00 0.00 0.00 0.00 0.00 0.00 0.00 0.00
0.04 0.06 0.02 0.00 0.00 0.00 0.00 0.00 0.00 0.00 0.00 0.00 0.00 0.00 0.00 0.00 0.00 0.00 0.00 0.00 0.00 0.00 0.00 0.00 0.00 0.00 0.00 0.00 0.00 0.00 0.00 0.00 0.00 0.00 0.00 0.00 0.00 0.00 0.00 0.00 0.00 0.00 0.00
0.06 0.19 0.07 0.02 0.00 0.00 0.00 0.00 0.00 0.01 0.01 0.00 0.01 0.01 0.00 0.00 0.00 0.00 0.00 0.00 0.00 0.00 0.00 0.00 0.00 0.00 0.00 0.00 0.00 0.00 0.00 0.00 0.00 0.00 0.00 0.00 0.00 0.00 0.00 0.00 0.00 0.00 0.00
0.03 0.11 0.09 0.06 0.02 0.05 0.07 0.08 0.07 0.08 0.10 0.12 0.06 0.02 0.01 0.01 0.00 0.00 0.00 0.00 0.00 0.00 0.00 0.00 0.00 0.00 0.00 0.00 0.00 0.00 0.00 0.00 0.00 0.00 0.00 0.00 0.00 0.00 0.00 0.00 0.00 0.00 0.00
0.17 0.21 0.19 0.16 0.13 0.13 0.22 0.25 0.22 0.14 0.10 0.06 0.04 0.02 0.04 0.06 0.04 0.01 0.00 0.00 0.00 0.00 0.00 0.00 0.00 0.00 0.00 0.00 0.00 0.00 0.00 0.00 0.00 0.00 0.00 0.00 0.00 0.00 0.00 0.00 0.00 0.00 0.00
0.30 0.28 0.26 0.25 0.22 0.31 0.33 0.26 0.17 0.12 0.09 0.06 0.07 0.12 0.11 0.06 0.03 0.01 0.00 0.00 0.00 0.00 0.00 0.00 0.00 0.00 0.00 0.00 0.00 0.00 0.00 0.00 0.00 0.00 0.00 0.00 0.00 0.00 0.00 0.00 0.00 0.00 0.00
0.31 0.43 0.39 0.42 0.33 0.24 0.26 0.25 0.20 0.16 0.14 0.12 0.11 0.07 0.05 0.03 0.01 0.00 0.00 0.00 0.00 0.00 0.00 0.00 0.00 0.00 0.00 0.00 0.00 0.00 0.00 0.00 0.00 0.00 0.00 0.00 0.00 0.00 0.00 0.00 0.00 0.00 0.01
0.16 0.22 0.29 0.28 0.27 0.37 0.37 0.33 0.23 0.16 0.11 0.05 0.04 0.03 0.02 0.01 0.02 0.01 0.00 0.00 0.00 0.00 0.00 0.00 0.00 0.00 0.00 0.00 0.00 0.00 0.00 0.00 0.00 0.00 0.00 0.00 0.00 0.00 0.00 0.00 0.00 0.00 0.01
0.38 0.45 0.45 0.46 0.49 0.46 0.35 0.24 0.13 0.07 0.04 0.03 0.03 0.03 0.03 0.04 0.02 0.01 0.01 0.01 0.01 0.00 0.00 0.00 0.00 0.00 0.00 0.00 0.00 0.00 0.00 0.00 0.00 0.00 0.00 0.00 0.00 0.00 0.00 0.00 0.00 0.00 0.00
0.55 0.57 0.56 0.46 0.31 0.18 0.09 0.03 0.02 0.04 0.04 0.04 0.05 0.07 0.06 0.04 0.03 0.02 0.02 0.01 0.00 0.00 0.00 0.00 0.00 0.00 0.00 0.00 0.00 0.00 0.00 0.00 0.00 0.00 0.00 0.00 0.00 0.00 0.00 0.00 0.00 0.00 0.00
1.11 0.81 0.59 0.30 0.09 0.06 0.03 0.02 0.04 0.05 0.07 0.12 0.11 0.08 0.06 0.04 0.01 0.01 0.01 0.01 0.00 0.00 0.00 0.00 0.00 0.00 0.00 0.00 0.00 0.00 0.00 0.00 0.00 0.00 0.00 0.00 0.00 0.00 0.00 0.00 0.01 0.01 0.00
0.46 0.25 0.13 0.10 0.08 0.06 0.04 0.04 0.05 0.10 0.14 0.09 0.08 0.07 0.04 0.02 0.01 0.01 0.00 0.00 0.00 0.00 0.00 0.00 0.00 0.00 0.00 0.00 0.00 0.00 0.00 0.00 0.00 0.00 0.00 0.01 0.01 0.01 0.01 0.01 0.01 0.00 0.00
0.12 0.07 0.06 0.08 0.06 0.05 0.05 0.09 0.12 0.10 0.10 0.09 0.04 0.01 0.00 0.00 0.00 0.00 0.00 0.00 0.00 0.01 0.00 0.01 0.00 0.00 0.00 0.00 0.00 0.01 0.01 0.01 0.01 0.01 0.01 0.00 0.00 0.00 0.00 0.00 0.00 0.00 0.00
0.16 0.10 0.09 0.07 0.06 0.09 0.15 0.14 0.13 0.12 0.05 0.01 0.00 0.00 0.00 0.01 0.01 0.00 0.00 0.00 0.01 0.01 0.01 0.01 0.01 0.00 0.00 0.00 0.00 0.01 0.02 0.01 0.00 0.00 0.01 0.00 0.01 0.00 0.00 0.01 0.01 0.01 0.01
0.08 0.08 0.09 0.11 0.14 0.16 0.19 0.14 0.06 0.01 0.00 0.00 0.00 0.00 0.00 0.01 0.00 0.00 0.00 0.00 0.00 0.01 0.01 0.01 0.01 0.00 0.00 0.00 0.01 0.02 0.02 0.03 0.03 0.00 0.01 0.00 0.00 0.00 0.00 0.01 0.01 0.01 0.01
0.03 0.05 0.10 0.15 0.16 0.12 0.08 0.03 0.01 0.00 0.01 0.00 0.00 0.00 0.00 0.00 0.00 0.00 0.00 0.00 0.00 0.00 0.00 0.00 0.01 0.00 0.00 0.00 0.02 0.03 0.03 0.04 0.03 0.01 0.01 0.02 0.00 0.01 0.00 0.01 0.01 0.01 0.01
0.08 0.14 0.17 0.14 0.06 0.02 0.04 0.05 0.04 0.01 0.01 0.00 0.00 0.00 0.00 0.00 0.00 0.00 0.00 0.00 0.00 0.00 0.00 0.00 0.00 0.00 0.00 0.01 0.03 0.04 0.04 0.04 0.02 0.01 0.01 0.02 0.00 0.00 0.00 0.00 0.00 0.01 0.01
0.16 0.12 0.04 0.01 0.02 0.02 0.05 0.03 0.02 0.00 0.00 0.00 0.00 0.00 0.00 0.00 0.00 0.00 0.00 0.00 0.00 0.00 0.00 0.00 0.00 0.00 0.00 0.00 0.01 0.03 0.03 0.06 0.05 0.01 0.01 0.03 0.02 0.02 0.02 0.02 0.01 0.02 0.02
0.03 0.03 0.04 0.04 0.05 0.02 0.01 0.00 0.00 0.00 0.00 0.00 0.00 0.00 0.00 0.00 0.00 0.00 0.00 0.00 0.00 0.00 0.01 0.02 0.01 0.00 0.00 0.00 0.01 0.02 0.03 0.09 0.07 0.05 0.01 0.02 0.02 0.05 0.12 0.04 0.03 0.06 0.07

GFSMA_prec_precacc24_048.txt.gz
Total_Precipitation_Accumulation
0.00 0.00 0.00 0.00 0.00 0.00 0.00 0.00 0.00 0.00 0.00 0.00 0.00 0.00 0.00 0.00 0.00 0.00 0.00 0.00 0.00 0.01 0.05 0.04 0.01 0.00 0.00 0.00 0.00 0.00 0.00 0.00 0.00 0.00 0.00 0.00 0.00 0.00 0.00 0.00 0.00 0.00 0.00
0.00 0.00 0.02 0.00 0.00 0.00 0.00 0.00 0.00 0.00 0.00 0.00 0.00 0.00 0.00 0.00 0.00 0.00 0.00 0.00 0.00 0.00 0.02 0.02 0.01 0.00 0.00 0.00 0.00 0.00 0.00 0.00 0.00 0.00 0.00 0.00 0.00 0.00 0.00 0.00 0.00 0.00 0.00
0.01 0.02 0.03 0.01 0.00 0.00 0.00 0.00 0.00 0.00 0.00 0.00 0.00 0.00 0.00 0.00 0.00 0.00 0.00 0.00 0.00 0.00 0.00 0.00 0.00 0.00 0.00 0.00 0.00 0.00 0.00 0.00 0.00 0.00 0.00 0.00 0.00 0.00 0.00 0.00 0.00 0.00 0.00
0.00 0.00 0.01 0.00 0.00 0.00 0.00 0.00 0.00 0.00 0.00 0.00 0.00 0.00 0.00 0.00 0.00 0.00 0.00 0.00 0.00 0.00 0.00 0.00 0.00 0.00 0.00 0.00 0.00 0.00 0.00 0.00 0.00 0.00 0.00 0.00 0.00 0.00 0.00 0.00 0.00 0.00 0.00
0.00 0.00 0.00 0.00 0.00 0.00 0.00 0.00 0.00 0.00 0.00 0.00 0.00 0.00 0.00 0.00 0.00 0.00 0.00 0.00 0.00 0.00 0.00 0.00 0.00 0.00 0.00 0.00 0.00 0.00 0.00 0.00 0.00 0.00 0.00 0.00 0.00 0.00 0.00 0.00 0.00 0.00 0.00
0.04 0.03 0.01 0.01 0.00 0.00 0.00 0.00 0.00 0.00 0.00 0.00 0.00 0.00 0.00 0.00 0.00 0.00 0.00 0.00 0.00 0.00 0.00 0.00 0.00 0.00 0.00 0.00 0.00 0.00 0.00 0.00 0.00 0.00 0.00 0.00 0.00 0.00 0.00 0.00 0.00 0.00 0.00
0.12 0.06 0.02 0.02 0.01 0.00 0.00 0.00 0.00 0.00 0.00 0.00 0.00 0.00 0.00 0.00 0.00 0.00 0.00 0.00 0.00 0.00 0.00 0.00 0.00 0.00 0.00 0.00 0.00 0.00 0.00 0.00 0.00 0.00 0.00 0.00 0.00 0.00 0.00 0.00 0.00 0.00 0.00
0.07 0.07 0.04 0.01 0.01 0.01 0.00 0.00 0.00 0.00 0.00 0.00 0.00 0.00 0.00 0.00 0.00 0.00 0.00 0.00 0.00 0.00 0.00 0.00 0.00 0.00 0.00 0.00 0.00 0.00 0.00 0.00 0.00 0.00 0.00 0.00 0.00 0.00 0.00 0.00 0.00 0.00 0.00
0.04 0.06 0.03 0.00 0.00 0.00 0.00 0.00 0.00 0.00 0.00 0.00 0.00 0.00 0.00 0.00 0.00 0.00 0.00 0.00 0.00 0.00 0.00 0.00 0.00 0.00 0.00 0.00 0.00 0.00 0.00 0.00 0.00 0.00 0.00 0.00 0.00 0.00 0.00 0.00 0.00 0.00 0.00
0.06 0.19 0.07 0.02 0.00 0.00 0.00 0.01 0.00 0.01 0.01 0.00 0.01 0.01 0.00 0.00 0.00 0.00 0.00 0.00 0.00 0.00 0.00 0.00 0.00 0.00 0.00 0.00 0.00 0.00 0.00 0.00 0.00 0.00 0.00 0.00 0.00 0.00 0.00 0.00 0.00 0.00 0.00
0.03 0.11 0.09 0.06 0.02 0.05 0.08 0.09 0.08 0.10 0.12 0.14 0.09 0.03 0.01 0.01 0.00 0.00 0.00 0.00 0.00 0.00 0.00 0.00 0.00 0.00 0.00 0.00 0.00 0.00 0.00 0.00 0.00 0.00 0.00 0.00 0.00 0.00 0.00 0.00 0.00 0.00 0.00
0.17 0.21 0.19 0.16 0.13 0.14 0.23 0.27 0.26 0.19 0.15 0.09 0.07 0.05 0.05 0.06 0.04 0.01 0.00 0.00 0.00 0.00 0.00 0.00 0.00 0.00 0.00 0.00 0.00 0.00 0.00 0.00 0.00 0.00 0.00 0.00 0.00 0.00 0.00 0.00 0.00 0.00 0.00
0.30 0.28 0.26 0.25 0.22 0.31 0.36 0.30 0.22 0.17 0.16 0.11 0.12 0.15 0.14 0.07 0.04 0.02 0.01 0.00 0.00 0.00 0.00 0.00 0.00 0.00 0.00 0.00 0.00 0.00 0.00 0.00 0.00 0.00 0.00 0.00 0.00 0.00 0.00 0.00 0.00 0.00 0.00
0.31 0.43 0.39 0.41 0.33 0.25 0.27 0.29 0.26 0.27 0.27 0.26 0.22 0.13 0.07 0.04 0.02 0.01 0.01 0.00 0.00 0.00 0.00 0.00 0.00 0.00 0.00 0.00 0.00 0.00 0.00 0.00 0.00 0.00 0.00 0.00 0.00 0.00 0.00 0.00 0.00 0.00 0.01
0.16 0.22 0.29 0.28 0.27 0.40 0.50 0.53 0.48 0.40 0.33 0.24 0.14 0.05 0.03 0.02 0.03 0.02 0.01 0.00 0.00 0.00 0.00 0.00 0.00 0.00 0.00 0.00 0.00 0.00 0.00 0.00 0.00 0.00 0.00 0.00 0.00 0.00 0.00 0.00 0.00 0.00 0.00
0.38 0.45 0.46 0.48 0.52 0.54 0.56 0.51 0.38 0.27 0.19 0.12 0.06 0.05 0.05 0.06 0.04 0.04 0.04 0.03 0.02 0.00 0.00 0.00 0.00 0.00 0.00 0.00 0.00 0.00 0.00 0.00 0.00 0.00 0.00 0.00 0.00 0.00 0.00 0.00 0.00 0.00 0.00
0.55 0.58 0.60 0.52 0.39 0.30 0.31 0.29 0.17 0.14 0.11 0.08 0.07 0.09 0.08 0.08 0.08 0.07 0.06 0.04 0.02 0.01 0.01 0.00 0.00 0.00 0.00 0.00 0.00 0.00 0.00 0.00 0.00 0.00 0.00 0.00 0.00 0.00 0.00 0.00 0.00 0.00 0.00
1.15 0.90 0.68 0.45 0.30 0.18 0.12 0.10 0.06 0.07 0.11 0.13 0.11 0.09 0.09 0.08 0.08 0.07 0.05 0.03 0.02 0.00 0.00 0.00 0.00 0.00 0.00 0.00 0.00 0.00 0.00 0.00 0.00 0.00 0.00 0.00 0.00 0.00 0.00 0.00 0.01 0.01 0.01
0.49 0.30 0.20 0.15 0.10 0.07 0.05 0.04 0.05 0.11 0.14 0.09 0.10 0.10 0.09 0.08 0.06 0.03 0.02 0.00 0.00 0.00 0.00 0.00 0.00 0.00 0.00 0.00 0.00 0.00 0.00 0.00 0.00 0.00 0.00 0.01 0.01 0.01 0.01 0.01 0.01 0.01 0.01
0.17 0.16 0.14 0.15 0.09 0.05 0.05 0.10 0.12 0.11 0.12 0.11 0.08 0.04 0.03 0.01 0.01 0.00 0.00 0.00 0.00 0.01 0.00 0.01 0.00 0.00 0.00 0.00 0.00 0.01 0.01 0.01 0.01 0.01 0.01 0.00 0.00 0.00 0.00 0.00 0.00 0.00 0.00
0.24 0.19 0.18 0.09 0.09 0.12 0.18 0.17 0.15 0.14 0.07 0.03 0.01 0.01 0.01 0.01 0.01 0.01 0.00 0.00 0.01 0.01 0.01 0.01 0.01 0.00 0.00 0.00 0.00 0.01 0.02 0.01 0.00 0.00 0.01 0.00 0.01 0.00 0.00 0.01 0.01 0.01 0.01
0.11 0.13 0.15 0.13 0.15 0.20 0.26 0.19 0.08 0.02 0.01 0.01 0.01 0.00 0.00 0.02 0.00 0.00 0.00 0.00 0.00 0.01 0.01 0.01 0.01 0.00 0.00 0.00 0.01 0.02 0.02 0.03 0.02 0.00 0.01 0.00 0.00 0.00 0.00 0.01 0.01 0.01 0.01
0.08 0.08 0.11 0.18 0.24 0.18 0.15 0.06 0.04 0.01 0.01 0.01 0.00 0.00 0.00 0.01 0.01 0.00 0.00 0.00 0.00 0.00 0.00 0.00 0.01 0.00 0.00 0.00 0.02 0.03 0.03 0.04 0.03 0.01 0.01 0.02 0.00 0.01 0.00 0.01 0.01 0.01 0.01
0.10 0.12 0.16 0.18 0.11 0.05 0.08 0.07 0.05 0.01 0.01 0.00 0.00 0.01 0.01 0.01 0.01 0.00 0.00 0.00 0.00 0.00 0.00 0.00 0.00 0.00 0.00 0.01 0.03 0.04 0.04 0.04 0.02 0.01 0.01 0.02 0.00 0.00 0.00 0.00 0.00 0.01 0.01
0.14 0.13 0.08 0.05 0.05 0.04 0.08 0.05 0.03 0.00 0.00 0.01 0.01 0.01 0.01 0.01 0.01 0.00 0.00 0.00 0.00 0.00 0.00 0.00 0.00 0.00 0.00 0.00 0.01 0.03 0.03 0.06 0.05 0.01 0.01 0.03 0.02 0.02 0.02 0.02 0.01 0.02 0.02
0.04 0.04 0.05 0.04 0.06 0.03 0.04 0.02 0.01 0.00 0.01 0.01 0.01 0.01 0.01 0.00 0.00 0.00 0.00 0.00 0.00 0.00 0.01 0.02 0.01 0.00 0.00 0.00 0.01 0.02 0.03 0.09 0.07 0.05 0.01 0.02 0.02 0.05 0.12 0.04 0.03 0.06 0.09

GFSMA_prec_precacc24_051.txt.gz
Total_Precipitation_Accumulation
0.00 0.00 0.00 0.00 0.00 0.00 0.00 0.00 0.00 0.00 0.00 0.00 0.00 0.00 0.00 0.00 0.00 0.00 0.00 0.00 0.00 0.01 0.05 0.04 0.01 0.00 0.00 0.00 0.00 0.00 0.00 0.00 0.00 0.00 0.00 0.00 0.00 0.00 0.00 0.00 0.00 0.00 0.00
0.00 0.00 0.02 0.00 0.00 0.00 0.00 0.00 0.00 0.00 0.00 0.00 0.00 0.00 0.00 0.00 0.00 0.00 0.00 0.00 0.00 0.00 0.02 0.02 0.01 0.00 0.00 0.00 0.00 0.00 0.00 0.00 0.00 0.00 0.00 0.00 0.00 0.00 0.00 0.00 0.00 0.00 0.00
0.01 0.02 0.03 0.01 0.00 0.00 0.00 0.00 0.00 0.00 0.00 0.00 0.00 0.00 0.00 0.00 0.00 0.00 0.00 0.00 0.00 0.00 0.00 0.00 0.00 0.00 0.00 0.00 0.00 0.00 0.00 0.00 0.00 0.00 0.00 0.00 0.00 0.00 0.00 0.00 0.00 0.00 0.00
0.00 0.00 0.01 0.00 0.00 0.00 0.00 0.00 0.00 0.00 0.00 0.00 0.00 0.00 0.00 0.00 0.00 0.00 0.00 0.00 0.00 0.00 0.00 0.00 0.00 0.00 0.00 0.00 0.00 0.00 0.00 0.00 0.00 0.00 0.00 0.00 0.00 0.00 0.00 0.00 0.00 0.00 0.00
0.00 0.00 0.00 0.00 0.00 0.00 0.00 0.00 0.00 0.00 0.00 0.00 0.00 0.00 0.00 0.00 0.00 0.00 0.00 0.00 0.00 0.00 0.00 0.00 0.00 0.00 0.00 0.00 0.00 0.00 0.00 0.00 0.00 0.00 0.00 0.00 0.00 0.00 0.00 0.00 0.00 0.00 0.00
0.04 0.03 0.01 0.01 0.00 0.00 0.00 0.00 0.00 0.00 0.00 0.00 0.00 0.00 0.00 0.00 0.00 0.00 0.00 0.00 0.00 0.00 0.00 0.00 0.00 0.00 0.00 0.00 0.00 0.00 0.00 0.00 0.00 0.00 0.00 0.00 0.00 0.00 0.00 0.00 0.00 0.00 0.00
0.12 0.06 0.02 0.02 0.01 0.01 0.00 0.00 0.00 0.00 0.00 0.00 0.00 0.00 0.00 0.00 0.00 0.00 0.00 0.00 0.00 0.00 0.00 0.00 0.00 0.00 0.00 0.00 0.00 0.00 0.00 0.00 0.00 0.00 0.00 0.00 0.00 0.00 0.00 0.00 0.00 0.00 0.00
0.07 0.07 0.05 0.04 0.03 0.02 0.00 0.00 0.00 0.00 0.00 0.00 0.00 0.00 0.00 0.00 0.00 0.00 0.00 0.00 0.00 0.00 0.00 0.00 0.00 0.00 0.00 0.00 0.00 0.00 0.00 0.00 0.00 0.00 0.00 0.00 0.00 0.00 0.00 0.00 0.00 0.00 0.00
0.05 0.06 0.04 0.03 0.04 0.03 0.01 0.00 0.00 0.00 0.00 0.00 0.00 0.00 0.00 0.00 0.00 0.00 0.00 0.00 0.00 0.00 0.00 0.00 0.00 0.00 0.00 0.00 0.00 0.00 0.00 0.00 0.00 0.00 0.00 0.00 0.00 0.00 0.00 0.00 0.00 0.00 0.00
0.07 0.19 0.07 0.02 0.01 0.01 0.01 0.03 0.01 0.01 0.01 0.00 0.01 0.01 0.00 0.00 0.00 0.00 0.00 0.00 0.00 0.00 0.00 0.00 0.00 0.00 0.00 0.00 0.00 0.00 0.00 0.00 0.00 0.00 0.00 0.00 0.00 0.00 0.00 0.00 0.00 0.00 0.00
0.03 0.11 0.09 0.06 0.02 0.05 0.08 0.11 0.10 0.12 0.13 0.15 0.09 0.04 0.02 0.01 0.01 0.01 0.01 0.00 0.00 0.00 0.00 0.00 0.00 0.00 0.00 0.00 0.00 0.00 0.00 0.00 0.00 0.00 0.00 0.00 0.00 0.00 0.00 0.00 0.00 0.00 0.00
0.17 0.21 0.19 0.16 0.13 0.14 0.22 0.26 0.29 0.21 0.17 0.12 0.09 0.06 0.06 0.08 0.04 0.02 0.01 0.01 0.00 0.00 0.00 0.00 0.00 0.00 0.00 0.00 0.00 0.00 0.00 0.00 0.00 0.00 0.00 0.00 0.00 0.00 0.00 0.01 0.02 0.01 0.01
0.29 0.27 0.25 0.25 0.22 0.30 0.35 0.30 0.23 0.19 0.18 0.14 0.15 0.21 0.18 0.10 0.06 0.04 0.02 0.01 0.01 0.00 0.00 0.00 0.00 0.00 0.00 0.00 0.00 0.00 0.00 0.00 0.00 0.00 0.00 0.00 0.00 0.00 0.00 0.00 0.01 0.02 0.01
0.30 0.42 0.39 0.41 0.33 0.25 0.26 0.29 0.26 0.27 0.28 0.29 0.30 0.26 0.24 0.18 0.13 0.10 0.04 0.02 0.02 0.01 0.00 0.00 0.00 0.00 0.00 0.00 0.00 0.00 0.00 0.00 0.00 0.00 0.00 0.00 0.00 0.00 0.00 0.00 0.01 0.00 0.01
0.15 0.22 0.29 0.28 0.26 0.39 0.50 0.53 0.48 0.40 0.35 0.28 0.23 0.18 0.13 0.10 0.09 0.06 0.03 0.02 0.03 0.05 0.03 0.01 0.00 0.00 0.00 0.00 0.00 0.00 0.00 0.00 0.00 0.00 0.00 0.00 0.00 0.00 0.00 0.00 0.00 0.00 0.01
0.38 0.45 0.46 0.47 0.51 0.54 0.56 0.51 0.40 0.30 0.25 0.19 0.14 0.13 0.11 0.10 0.08 0.07 0.07 0.06 0.04 0.04 0.03 0.00 0.00 0.00 0.00 0.00 0.00 0.00 0.00 0.00 0.00 0.00 0.00 0.00 0.00 0.00 0.00 0.00 0.00 0.00 0.00
0.54 0.58 0.60 0.52 0.39 0.30 0.33 0.37 0.41 0.47 0.45 0.38 0.33 0.27 0.17 0.16 0.13 0.11 0.09 0.06 0.04 0.02 0.02 0.01 0.00 0.00 0.00 0.00 0.00 0.00 0.00 0.00 0.00 0.00 0.00 0.00 0.00 0.00 0.00 0.00 0.00 0.00 0.00
1.14 0.90 0.68 0.45 0.30 0.19 0.13 0.13 0.19 0.21 0.24 0.27 0.23 0.19 0.15 0.14 0.11 0.09 0.07 0.05 0.03 0.02 0.01 0.01 0.00 0.00 0.00 0.00 0.00 0.00 0.00 0.00 0.00 0.00 0.00 0.00 0.00 0.00 0.00 0.00 0.01 0.01 0.01
0.49 0.30 0.20 0.15 0.11 0.07 0.05 0.05 0.09 0.20 0.27 0.16 0.12 0.11 0.10 0.10 0.08 0.04 0.03 0.02 0.02 0.01 0.01 0.01 0.00 0.00 0.00 0.00 0.00 0.00 0.00 0.00 0.00 0.00 0.00 0.01 0.01 0.01 0.01 0.01 0.01 0.01 0.01
0.17 0.16 0.15 0.16 0.11 0.06 0.04 0.07 0.11 0.11 0.12 0.11 0.08 0.04 0.04 0.03 0.02 0.03 0.03 0.03 0.02 0.01 0.01 0.01 0.00 0.00 0.00 0.00 0.00 0.01 0.01 0.01 0.01 0.01 0.01 0.00 0.00 0.00 0.00 0.00 0.00 0.00 0.00
0.25 0.21 0.21 0.11 0.11 0.11 0.12 0.15 0.15 0.14 0.08 0.04 0.02 0.02 0.03 0.05 0.06 0.03 0.01 0.01 0.01 0.02 0.02 0.02 0.01 0.00 0.00 0.00 0.00 0.01 0.02 0.01 0.00 0.00 0.01 0.00 0.01 0.00 0.00 0.01 0.01 0.01 0.01
0.13 0.18 0.20 0.20 0.17 0.17 0.31 0.29 0.16 0.06 0.03 0.03 0.03 0.02 0.04 0.06 0.02 0.02 0.01 0.00 0.00 0.01 0.01 0.01 0.01 0.00 0.00 0.00 0.01 0.02 0.02 0.03 0.02 0.00 0.01 0.00 0.00 0.00 0.00 0.01 0.01 0.01 0.01
0.09 0.10 0.11 0.16 0.21 0.23 0.28 0.15 0.13 0.06 0.07 0.06 0.03 0.02 0.01 0.01 0.02 0.00 0.01 0.01 0.00 0.00 0.00 0.00 0.01 0.00 0.00 0.00 0.02 0.03 0.03 0.04 0.03 0.01 0.01 0.02 0.00 0.01 0.00 0.01 0.01 0.01 0.01
0.09 0.09 0.09 0.13 0.12 0.10 0.16 0.13 0.10 0.03 0.03 0.02 0.02 0.02 0.01 0.01 0.01 0.01 0.00 0.00 0.00 0.00 0.00 0.00 0.00 0.00 0.00 0.01 0.03 0.04 0.03 0.03 0.02 0.01 0.01 0.02 0.00 0.00 0.00 0.00 0.00 0.01 0.01
0.10 0.10 0.08 0.08 0.06 0.08 0.14 0.08 0.06 0.01 0.01 0.02 0.01 0.01 0.01 0.01 0.02 0.02 0.00 0.00 0.00 0.00 0.00 0.00 0.00 0.00 0.00 0.00 0.01 0.03 0.03 0.06 0.05 0.01 0.01 0.03 0.02 0.02 0.02 0.02 0.01 0.02 0.02
0.06 0.05 0.05 0.05 0.09 0.06 0.09 0.05 0.03 0.00 0.01 0.01 0.01 0.02 0.03 0.01 0.02 0.01 0.00 0.00 0.00 0.00 0.01 0.02 0.01 0.00 0.00 0.00 0.01 0.02 0.03 0.09 0.07 0.05 0.01 0.02 0.02 0.04 0.11 0.04 0.03 0.06 0.09

GFSMA_prec_precacc24_054.txt.gz
Total_Precipitation_Accumulation
0.00 0.00 0.00 0.00 0.00 0.00 0.00 0.00 0.00 0.00 0.00 0.00 0.00 0.00 0.00 0.00 0.00 0.00 0.00 0.00 0.00 0.01 0.04 0.03 0.01 0.00 0.00 0.00 0.00 0.00 0.00 0.00 0.00 0.00 0.00 0.00 0.00 0.00 0.00 0.00 0.00 0.00 0.00
0.00 0.00 0.02 0.00 0.00 0.00 0.00 0.00 0.00 0.00 0.00 0.00 0.00 0.00 0.00 0.00 0.00 0.00 0.00 0.00 0.00 0.01 0.02 0.02 0.01 0.00 0.00 0.00 0.00 0.00 0.00 0.00 0.00 0.00 0.00 0.00 0.00 0.00 0.00 0.00 0.00 0.00 0.00
0.01 0.02 0.03 0.01 0.00 0.00 0.00 0.00 0.00 0.00 0.00 0.00 0.00 0.00 0.00 0.00 0.00 0.00 0.00 0.00 0.00 0.00 0.01 0.01 0.00 0.00 0.00 0.00 0.00 0.00 0.00 0.00 0.00 0.00 0.00 0.00 0.00 0.00 0.00 0.00 0.00 0.00 0.00
0.00 0.00 0.01 0.00 0.00 0.00 0.00 0.00 0.00 0.00 0.00 0.00 0.00 0.00 0.00 0.00 0.00 0.00 0.00 0.00 0.00 0.00 0.00 0.00 0.00 0.00 0.00 0.00 0.00 0.00 0.00 0.00 0.00 0.00 0.00 0.00 0.00 0.00 0.00 0.00 0.00 0.00 0.00
0.00 0.00 0.00 0.00 0.00 0.00 0.00 0.00 0.00 0.00 0.00 0.00 0.00 0.00 0.00 0.00 0.00 0.00 0.00 0.00 0.00 0.00 0.00 0.00 0.00 0.00 0.00 0.00 0.00 0.00 0.00 0.00 0.00 0.00 0.00 0.00 0.00 0.00 0.00 0.00 0.00 0.00 0.00
0.04 0.03 0.01 0.01 0.00 0.00 0.00 0.00 0.00 0.00 0.00 0.00 0.00 0.00 0.00 0.00 0.00 0.00 0.00 0.00 0.00 0.00 0.00 0.00 0.00 0.00 0.00 0.00 0.00 0.00 0.00 0.00 0.00 0.00 0.00 0.00 0.00 0.00 0.00 0.00 0.00 0.00 0.00
0.12 0.06 0.02 0.02 0.01 0.01 0.01 0.01 0.00 0.00 0.00 0.00 0.00 0.00 0.00 0.00 0.00 0.00 0.00 0.00 0.00 0.00 0.00 0.00 0.00 0.00 0.00 0.00 0.00 0.00 0.00 0.00 0.00 0.00 0.00 0.00 0.00 0.00 0.00 0.00 0.00 0.00 0.00
0.07 0.07 0.05 0.04 0.03 0.02 0.00 0.01 0.00 0.00 0.00 0.00 0.00 0.00 0.00 0.00 0.00 0.00 0.00 0.00 0.00 0.00 0.00 0.00 0.00 0.00 0.00 0.00 0.00 0.00 0.00 0.00 0.00 0.00 0.00 0.00 0.00 0.00 0.00 0.00 0.00 0.00 0.00
0.05 0.06 0.04 0.03 0.04 0.03 0.01 0.00 0.00 0.00 0.00 0.00 0.00 0.00 0.00 0.00 0.00 0.00 0.00 0.00 0.00 0.00 0.00 0.00 0.00 0.00 0.00 0.00 0.00 0.00 0.00 0.00 0.00 0.00 0.00 0.00 0.00 0.00 0.00 0.00 0.00 0.00 0.00
0.07 0.19 0.07 0.02 0.01 0.01 0.01 0.03 0.02 0.02 0.01 0.01 0.01 0.01 0.00 0.00 0.00 0.01 0.00 0.00 0.00 0.00 0.00 0.00 0.00 0.00 0.00 0.00 0.00 0.00 0.00 0.00 0.00 0.00 0.00 0.00 0.00 0.00 0.00 0.00 0.00 0.00 0.00
0.03 0.11 0.09 0.06 0.03 0.05 0.08 0.11 0.10 0.12 0.13 0.18 0.11 0.04 0.02 0.01 0.01 0.02 0.02 0.01 0.01 0.00 0.00 0.00 0.00 0.00 0.00 0.00 0.00 0.00 0.00 0.00 0.00 0.00 0.00 0.00 0.00 0.00 0.01 0.01 0.02 0.01 0.01
0.16 0.20 0.19 0.16 0.16 0.15 0.23 0.29 0.31 0.21 0.17 0.13 0.13 0.08 0.07 0.08 0.05 0.02 0.01 0.02 0.03 0.02 0.02 0.01 0.00 0.00 0.00 0.00 0.00 0.00 0.00 0.00 0.00 0.00 0.00 0.00 0.00 0.00 0.00 0.02 0.04 0.04 0.04
0.27 0.26 0.25 0.24 0.22 0.30 0.35 0.30 0.25 0.18 0.19 0.15 0.17 0.23 0.19 0.11 0.08 0.05 0.04 0.06 0.08 0.06 0.05 0.02 0.00 0.00 0.00 0.00 0.00 0.00 0.00 0.00 0.00 0.00 0.00 0.00 0.00 0.00 0.00 0.00 0.01 0.02 0.03
0.27 0.41 0.35 0.38 0.33 0.24 0.25 0.26 0.23 0.27 0.28 0.29 0.30 0.26 0.24 0.19 0.16 0.19 0.24 0.29 0.28 0.16 0.07 0.03 0.01 0.01 0.01 0.00 0.00 0.00 0.00 0.00 0.00 0.00 0.00 0.00 0.00 0.00 0.00 0.00 0.01 0.00 0.01
0.14 0.21 0.28 0.27 0.26 0.37 0.46 0.48 0.48 0.40 0.35 0.28 0.23 0.18 0.14 0.10 0.11 0.12 0.13 0.14 0.17 0.21 0.14 0.07 0.06 0.01 0.00 0.00 0.00 0.00 0.00 0.00 0.00 0.00 0.00 0.00 0.00 0.00 0.00 0.00 0.00 0.00 0.01
0.37 0.45 0.46 0.45 0.44 0.47 0.52 0.50 0.40 0.30 0.25 0.19 0.14 0.13 0.13 0.14 0.14 0.15 0.16 0.16 0.16 0.22 0.21 0.06 0.01 0.00 0.00 0.00 0.00 0.00 0.00 0.00 0.00 0.00 0.00 0.00 0.00 0.00 0.00 0.00 0.00 0.00 0.00
0.53 0.54 0.50 0.42 0.35 0.30 0.33 0.37 0.41 0.47 0.45 0.39 0.34 0.30 0.24 0.25 0.27 0.25 0.25 0.21 0.16 0.14 0.12 0.05 0.02 0.01 0.00 0.00 0.00 0.00 0.00 0.00 0.00 0.00 0.00 0.00 0.00 0.00 0.00 0.00 0.00 0.00 0.00
1.11 0.87 0.67 0.45 0.30 0.19 0.13 0.13 0.19 0.21 0.23 0.27 0.28 0.28 0.25 0.31 0.36 0.29 0.19 0.12 0.09 0.07 0.06 0.04 0.02 0.01 0.01 0.01 0.00 0.00 0.00 0.00 0.00 0.00 0.00 0.00 0.00 0.00 0.00 0.00 0.01 0.01 0.01
0.47 0.29 0.19 0.14 0.10 0.07 0.05 0.05 0.09 0.15 0.22 0.18 0.17 0.16 0.13 0.12 0.09 0.07 0.07 0.06 0.06 0.05 0.04 0.03 0.02 0.01 0.01 0.00 0.00 0.00 0.00 0.00 0.00 0.00 0.00 0.01 0.01 0.01 0.01 0.01 0.01 0.01 0.01
0.17 0.16 0.15 0.16 0.11 0.06 0.04 0.04 0.04 0.07 0.13 0.13 0.09 0.05 0.05 0.04 0.04 0.05 0.06 0.05 0.05 0.04 0.03 0.03 0.02 0.01 0.00 0.00 0.00 0.01 0.01 0.01 0.01 0.01 0.01 0.00 0.00 0.00 0.00 0.00 0.00 0.00 0.00
0.25 0.21 0.21 0.11 0.10 0.10 0.09 0.10 0.12 0.14 0.08 0.04 0.03 0.02 0.03 0.06 0.07 0.03 0.01 0.01 0.01 0.02 0.02 0.02 0.01 0.00 0.00 0.00 0.00 0.01 0.02 0.01 0.00 0.00 0.01 0.00 0.01 0.00 0.00 0.01 0.01 0.01 0.01
0.13 0.18 0.20 0.19 0.16 0.16 0.26 0.24 0.17 0.08 0.05 0.04 0.04 0.03 0.04 0.08 0.03 0.05 0.04 0.03 0.01 0.01 0.01 0.01 0.01 0.00 0.00 0.00 0.01 0.02 0.02 0.03 0.02 0.00 0.01 0.00 0.00 0.00 0.00 0.01 0.01 0.01 0.01
0.09 0.10 0.11 0.15 0.18 0.18 0.27 0.18 0.17 0.08 0.09 0.10 0.06 0.05 0.04 0.05 0.09 0.02 0.05 0.03 0.01 0.00 0.00 0.00 0.01 0.00 0.00 0.00 0.02 0.03 0.03 0.04 0.03 0.01 0.01 0.02 0.00 0.01 0.00 0.01 0.01 0.01 0.01
0.09 0.08 0.09 0.11 0.10 0.11 0.19 0.14 0.14 0.04 0.04 0.04 0.04 0.04 0.04 0.04 0.04 0.04 0.01 0.01 0.00 0.00 0.00 0.00 0.00 0.00 0.00 0.01 0.03 0.04 0.03 0.03 0.02 0.01 0.01 0.02 0.00 0.00 0.00 0.00 0.00 0.01 0.01
0.10 0.10 0.09 0.09 0.08 0.11 0.19 0.10 0.08 0.01 0.02 0.03 0.03 0.04 0.05 0.04 0.10 0.08 0.01 0.00 0.00 0.00 0.00 0.00 0.00 0.00 0.00 0.00 0.01 0.03 0.03 0.06 0.05 0.01 0.01 0.03 0.02 0.02 0.02 0.02 0.01 0.02 0.02
0.06 0.05 0.06 0.06 0.12 0.07 0.16 0.09 0.06 0.01 0.02 0.03 0.03 0.05 0.10 0.05 0.06 0.03 0.01 0.00 0.00 0.00 0.01 0.02 0.01 0.00 0.00 0.00 0.01 0.02 0.03 0.08 0.07 0.05 0.01 0.02 0.02 0.04 0.11 0.04 0.03 0.06 0.08

GFSMA_prec_precacc24_057.txt.gz
Total_Precipitation_Accumulation
0.01 0.01 0.01 0.00 0.00 0.00 0.00 0.00 0.00 0.00 0.00 0.00 0.00 0.00 0.00 0.00 0.00 0.00 0.00 0.00 0.00 0.01 0.03 0.02 0.01 0.00 0.00 0.00 0.00 0.00 0.00 0.00 0.00 0.00 0.00 0.00 0.00 0.00 0.00 0.00 0.00 0.00 0.00
0.02 0.01 0.03 0.01 0.00 0.00 0.00 0.00 0.00 0.00 0.00 0.00 0.00 0.00 0.00 0.00 0.00 0.00 0.00 0.00 0.00 0.01 0.02 0.02 0.01 0.00 0.00 0.00 0.00 0.00 0.00 0.00 0.00 0.00 0.00 0.00 0.00 0.00 0.00 0.00 0.00 0.00 0.00
0.01 0.02 0.03 0.01 0.00 0.00 0.00 0.00 0.00 0.00 0.00 0.00 0.00 0.00 0.00 0.00 0.00 0.00 0.00 0.00 0.00 0.00 0.01 0.01 0.00 0.00 0.00 0.00 0.00 0.00 0.00 0.00 0.00 0.00 0.00 0.00 0.00 0.00 0.00 0.00 0.00 0.00 0.00
0.00 0.00 0.01 0.00 0.00 0.00 0.00 0.00 0.00 0.00 0.00 0.00 0.00 0.00 0.00 0.00 0.00 0.00 0.00 0.00 0.00 0.00 0.00 0.01 0.00 0.00 0.00 0.00 0.00 0.00 0.00 0.00 0.00 0.00 0.00 0.00 0.00 0.00 0.00 0.00 0.00 0.00 0.00
0.00 0.00 0.00 0.00 0.00 0.00 0.00 0.00 0.00 0.00 0.00 0.00 0.00 0.00 0.00 0.00 0.00 0.00 0.00 0.00 0.00 0.00 0.00 0.00 0.00 0.00 0.00 0.00 0.00 0.00 0.00 0.00 0.00 0.00 0.00 0.00 0.00 0.00 0.00 0.00 0.00 0.00 0.00
0.04 0.03 0.01 0.01 0.00 0.00 0.00 0.00 0.00 0.00 0.00 0.00 0.00 0.00 0.00 0.00 0.00 0.00 0.00 0.00 0.00 0.00 0.00 0.00 0.00 0.00 0.00 0.00 0.00 0.00 0.00 0.00 0.00 0.00 0.00 0.00 0.00 0.00 0.00 0.00 0.00 0.00 0.00
0.12 0.06 0.02 0.02 0.01 0.01 0.01 0.01 0.00 0.00 0.00 0.00 0.00 0.00 0.00 0.00 0.00 0.00 0.00 0.00 0.00 0.00 0.00 0.00 0.01 0.00 0.00 0.00 0.00 0.00 0.00 0.00 0.00 0.00 0.00 0.00 0.00 0.00 0.00 0.00 0.00 0.00 0.00
0.07 0.07 0.05 0.04 0.03 0.02 0.00 0.01 0.00 0.00 0.00 0.00 0.00 0.00 0.00 0.00 0.00 0.00 0.00 0.00 0.00 0.00 0.00 0.00 0.00 0.00 0.00 0.00 0.00 0.00 0.00 0.00 0.00 0.00 0.00 0.00 0.00 0.00 0.00 0.00 0.00 0.00 0.00
0.04 0.06 0.04 0.03 0.04 0.03 0.01 0.00 0.00 0.00 0.00 0.00 0.00 0.00 0.00 0.00 0.00 0.00 0.00 0.00 0.00 0.00 0.00 0.00 0.00 0.00 0.00 0.00 0.00 0.00 0.00 0.00 0.00 0.00 0.00 0.00 0.00 0.00 0.00 0.00 0.00 0.00 0.00
0.09 0.19 0.07 0.02 0.01 0.01 0.01 0.03 0.02 0.02 0.01 0.01 0.01 0.01 0.00 0.00 0.01 0.03 0.01 0.00 0.00 0.00 0.00 0.00 0.00 0.00 0.00 0.00 0.00 0.00 0.00 0.00 0.00 0.00 0.00 0.00 0.00 0.00 0.00 0.00 0.00 0.00 0.00
0.07 0.12 0.09 0.06 0.04 0.06 0.09 0.11 0.10 0.12 0.13 0.19 0.12 0.04 0.02 0.01 0.01 0.03 0.06 0.04 0.01 0.00 0.00 0.00 0.00 0.00 0.00 0.00 0.00 0.00 0.00 0.00 0.00 0.00 0.00 0.00 0.00 0.00 0.01 0.02 0.03 0.03 0.02
0.18 0.22 0.18 0.16 0.17 0.20 0.29 0.32 0.38 0.26 0.18 0.17 0.21 0.12 0.13 0.12 0.07 0.05 0.03 0.04 0.07 0.04 0.02 0.03 0.04 0.03 0.02 0.01 0.00 0.00 0.00 0.00 0.00 0.00 0.00 0.00 0.00 0.00 0.00 0.02 0.04 0.05 0.07
0.26 0.25 0.23 0.22 0.20 0.30 0.36 0.33 0.33 0.26 0.25 0.22 0.23 0.31 0.25 0.13 0.08 0.07 0.07 0.06 0.09 0.07 0.06 0.04 0.03 0.04 0.04 0.04 0.03 0.01 0.00 0.00 0.00 0.00 0.00 0.00 0.00 0.00 0.00 0.00 0.01 0.02 0.03
0.14 0.28 0.30 0.34 0.29 0.22 0.25 0.26 0.23 0.26 0.29 0.31 0.31 0.29 0.27 0.21 0.17 0.19 0.24 0.29 0.28 0.19 0.12 0.07 0.05 0.09 0.09 0.08 0.04 0.01 0.00 0.00 0.00 0.00 0.00 0.00 0.00 0.00 0.00 0.00 0.01 0.00 0.01
0.13 0.20 0.28 0.27 0.26 0.36 0.44 0.44 0.41 0.37 0.35 0.28 0.23 0.18 0.14 0.10 0.12 0.13 0.13 0.14 0.18 0.24 0.16 0.09 0.11 0.10 0.11 0.09 0.06 0.02 0.01 0.00 0.00 0.00 0.00 0.00 0.00 0.00 0.00 0.00 0.00 0.00 0.01
0.37 0.45 0.46 0.45 0.43 0.40 0.42 0.42 0.36 0.29 0.25 0.19 0.15 0.14 0.14 0.15 0.15 0.17 0.16 0.16 0.19 0.29 0.30 0.15 0.09 0.07 0.07 0.10 0.08 0.05 0.00 0.00 0.00 0.00 0.00 0.00 0.00 0.00 0.00 0.00 0.00 0.00 0.00
0.52 0.53 0.50 0.40 0.29 0.25 0.31 0.36 0.41 0.47 0.45 0.39 0.34 0.30 0.25 0.26 0.28 0.26 0.27 0.26 0.24 0.26 0.29 0.16 0.08 0.06 0.08 0.09 0.05 0.02 0.00 0.00 0.00 0.00 0.00 0.00 0.00 0.00 0.00 0.00 0.00 0.00 0.00
1.10 0.87 0.67 0.44 0.30 0.18 0.13 0.13 0.18 0.21 0.23 0.24 0.25 0.29 0.26 0.31 0.37 0.32 0.25 0.18 0.14 0.11 0.12 0.08 0.06 0.05 0.05 0.04 0.02 0.00 0.00 0.00 0.00 0.00 0.00 0.00 0.00 0.00 0.00 0.00 0.01 0.01 0.01
0.47 0.28 0.19 0.13 0.09 0.06 0.04 0.04 0.09 0.15 0.19 0.15 0.17 0.18 0.14 0.13 0.10 0.07 0.07 0.07 0.07 0.08 0.10 0.13 0.08 0.05 0.03 0.01 0.00 0.00 0.00 0.00 0.00 0.00 0.00 0.01 0.01 0.01 0.01 0.01 0.01 0.01 0.01
0.17 0.16 0.15 0.15 0.11 0.05 0.04 0.04 0.03 0.04 0.07 0.09 0.08 0.06 0.07 0.05 0.05 0.05 0.07 0.06 0.05 0.06 0.06 0.07 0.05 0.03 0.01 0.00 0.00 0.01 0.01 0.01 0.01 0.01 0.01 0.00 0.00 0.00 0.00 0.00 0.00 0.00 0.00
0.25 0.21 0.21 0.11 0.10 0.10 0.09 0.09 0.04 0.04 0.05 0.04 0.03 0.03 0.04 0.08 0.08 0.04 0.02 0.01 0.01 0.02 0.03 0.03 0.03 0.02 0.01 0.01 0.01 0.01 0.02 0.01 0.00 0.00 0.01 0.00 0.01 0.00 0.00 0.01 0.01 0.01 0.01
0.13 0.18 0.20 0.19 0.16 0.15 0.24 0.21 0.13 0.07 0.05 0.05 0.04 0.05 0.06 0.11 0.06 0.07 0.05 0.04 0.03 0.02 0.01 0.03 0.04 0.03 0.01 0.01 0.01 0.02 0.02 0.03 0.02 0.00 0.01 0.00 0.00 0.00 0.00 0.01 0.01 0.01 0.01
0.09 0.10 0.11 0.15 0.18 0.18 0.27 0.19 0.18 0.09 0.09 0.10 0.07 0.07 0.06 0.08 0.14 0.04 0.09 0.08 0.05 0.05 0.04 0.02 0.02 0.01 0.00 0.00 0.02 0.03 0.03 0.04 0.03 0.01 0.01 0.02 0.00 0.01 0.00 0.01 0.01 0.01 0.01
0.09 0.08 0.09 0.11 0.10 0.12 0.20 0.16 0.16 0.06 0.05 0.06 0.06 0.06 0.06 0.07 0.11 0.11 0.06 0.07 0.06 0.08 0.10 0.10 0.10 0.04 0.00 0.01 0.03 0.04 0.03 0.03 0.02 0.01 0.01 0.02 0.00 0.00 0.00 0.00 0.00 0.01 0.01
0.10 0.10 0.09 0.09 0.09 0.12 0.22 0.14 0.10 0.03 0.06 0.09 0.06 0.07 0.10 0.07 0.22 0.18 0.10 0.11 0.12 0.11 0.06 0.04 0.02 0.01 0.00 0.00 0.01 0.03 0.03 0.06 0.05 0.01 0.01 0.03 0.02 0.02 0.02 0.02 0.01 0.02 0.02
0.06 0.05 0.06 0.06 0.13 0.08 0.26 0.17 0.11 0.02 0.05 0.06 0.05 0.09 0.17 0.10 0.14 0.07 0.03 0.02 0.04 0.04 0.03 0.02 0.02 0.01 0.00 0.00 0.01 0.02 0.04 0.09 0.07 0.05 0.01 0.02 0.02 0.04 0.11 0.04 0.03 0.06 0.08

GFSMA_prec_precacc24_060.txt.gz
Total_Precipitation_Accumulation
0.09 0.10 0.02 0.01 0.00 0.00 0.00 0.00 0.00 0.00 0.00 0.00 0.00 0.00 0.00 0.00 0.00 0.00 0.00 0.00 0.00 0.01 0.02 0.01 0.00 0.00 0.00 0.00 0.00 0.00 0.00 0.00 0.00 0.00 0.00 0.00 0.00 0.00 0.00 0.00 0.00 0.00 0.00
0.07 0.08 0.04 0.02 0.00 0.00 0.00 0.00 0.00 0.00 0.00 0.00 0.00 0.00 0.00 0.00 0.00 0.00 0.00 0.00 0.00 0.01 0.02 0.02 0.00 0.00 0.00 0.00 0.00 0.00 0.00 0.00 0.00 0.00 0.00 0.00 0.00 0.00 0.00 0.00 0.00 0.00 0.00
0.04 0.04 0.03 0.01 0.00 0.00 0.00 0.00 0.00 0.00 0.00 0.00 0.00 0.00 0.00 0.00 0.00 0.00 0.00 0.00 0.00 0.00 0.01 0.01 0.00 0.00 0.00 0.00 0.00 0.00 0.00 0.00 0.00 0.00 0.00 0.00 0.00 0.00 0.00 0.00 0.00 0.00 0.00
0.02 0.03 0.02 0.01 0.00 0.00 0.00 0.00 0.00 0.00 0.00 0.00 0.00 0.00 0.00 0.00 0.00 0.00 0.00 0.00 0.00 0.00 0.00 0.01 0.00 0.00 0.00 0.00 0.00 0.00 0.00 0.00 0.00 0.00 0.00 0.00 0.00 0.00 0.00 0.00 0.00 0.00 0.00
0.01 0.03 0.08 0.05 0.01 0.01 0.00 0.00 0.00 0.00 0.00 0.00 0.00 0.00 0.00 0.00 0.00 0.00 0.00 0.00 0.00 0.00 0.00 0.00 0.00 0.00 0.00 0.00 0.00 0.00 0.00 0.00 0.00 0.00 0.00 0.00 0.00 0.00 0.00 0.00 0.00 0.00 0.00
0.04 0.04 0.01 0.02 0.01 0.00 0.00 0.00 0.00 0.00 0.00 0.00 0.00 0.00 0.00 0.00 0.00 0.00 0.00 0.00 0.00 0.00 0.00 0.00 0.00 0.00 0.00 0.00 0.00 0.00 0.00 0.00 0.00 0.00 0.00 0.00 0.00 0.00 0.00 0.00 0.00 0.00 0.00
0.10 0.06 0.02 0.02 0.01 0.01 0.01 0.01 0.00 0.00 0.00 0.00 0.00 0.00 0.00 0.00 0.00 0.00 0.00 0.00 0.00 0.00 0.00 0.00 0.01 0.00 0.00 0.00 0.00 0.00 0.00 0.00 0.00 0.00 0.00 0.00 0.00 0.00 0.00 0.00 0.00 0.00 0.00
0.07 0.07 0.05 0.04 0.03 0.02 0.00 0.01 0.00 0.00 0.00 0.00 0.00 0.00 0.00 0.00 0.00 0.00 0.00 0.00 0.00 0.00 0.00 0.00 0.00 0.00 0.00 0.00 0.00 0.00 0.00 0.00 0.00 0.00 0.00 0.00 0.00 0.00 0.00 0.00 0.00 0.00 0.00
0.04 0.06 0.04 0.03 0.04 0.03 0.01 0.00 0.00 0.00 0.00 0.00 0.00 0.00 0.00 0.00 0.00 0.00 0.00 0.00 0.00 0.00 0.00 0.00 0.00 0.00 0.00 0.00 0.00 0.00 0.00 0.00 0.00 0.00 0.00 0.00 0.00 0.00 0.00 0.00 0.00 0.00 0.00
0.08 0.17 0.07 0.02 0.01 0.01 0.02 0.04 0.02 0.02 0.01 0.01 0.01 0.01 0.00 0.03 0.09 0.08 0.01 0.00 0.00 0.00 0.00 0.00 0.00 0.00 0.00 0.00 0.00 0.00 0.00 0.00 0.00 0.00 0.00 0.00 0.00 0.01 0.01 0.00 0.00 0.00 0.00
0.07 0.09 0.09 0.06 0.04 0.06 0.09 0.15 0.12 0.12 0.13 0.21 0.13 0.03 0.01 0.00 0.01 0.10 0.10 0.05 0.01 0.00 0.00 0.00 0.00 0.00 0.00 0.00 0.00 0.00 0.00 0.00 0.00 0.00 0.00 0.00 0.00 0.00 0.02 0.03 0.05 0.05 0.04
0.17 0.20 0.17 0.16 0.17 0.19 0.22 0.26 0.33 0.25 0.18 0.17 0.26 0.14 0.13 0.13 0.08 0.06 0.05 0.06 0.10 0.05 0.02 0.03 0.04 0.03 0.02 0.01 0.00 0.00 0.00 0.00 0.00 0.00 0.00 0.00 0.00 0.00 0.00 0.02 0.04 0.05 0.08
0.26 0.25 0.24 0.20 0.13 0.19 0.28 0.29 0.33 0.28 0.29 0.26 0.24 0.26 0.24 0.17 0.10 0.10 0.13 0.08 0.12 0.10 0.06 0.04 0.03 0.04 0.04 0.05 0.04 0.03 0.01 0.00 0.00 0.00 0.00 0.00 0.00 0.00 0.00 0.00 0.01 0.02 0.03
0.12 0.21 0.20 0.27 0.26 0.22 0.26 0.27 0.24 0.25 0.26 0.26 0.29 0.29 0.28 0.22 0.18 0.20 0.26 0.33 0.30 0.20 0.12 0.07 0.05 0.09 0.09 0.08 0.05 0.03 0.02 0.02 0.00 0.00 0.00 0.00 0.00 0.00 0.00 0.00 0.01 0.00 0.01
0.12 0.20 0.28 0.29 0.27 0.37 0.44 0.45 0.40 0.32 0.33 0.26 0.21 0.19 0.16 0.11 0.15 0.15 0.14 0.17 0.19 0.24 0.16 0.09 0.11 0.10 0.11 0.09 0.07 0.05 0.04 0.03 0.02 0.01 0.00 0.00 0.00 0.00 0.00 0.00 0.00 0.00 0.01
0.35 0.44 0.45 0.46 0.45 0.42 0.43 0.41 0.35 0.28 0.25 0.21 0.16 0.15 0.15 0.16 0.16 0.18 0.19 0.18 0.22 0.30 0.30 0.15 0.09 0.07 0.08 0.10 0.10 0.10 0.07 0.05 0.01 0.00 0.00 0.00 0.00 0.00 0.00 0.00 0.00 0.00 0.00
0.48 0.52 0.50 0.40 0.30 0.26 0.31 0.36 0.40 0.44 0.44 0.38 0.33 0.29 0.25 0.27 0.30 0.28 0.28 0.27 0.25 0.26 0.29 0.16 0.08 0.06 0.08 0.09 0.06 0.05 0.04 0.02 0.01 0.02 0.01 0.01 0.00 0.00 0.00 0.00 0.00 0.00 0.00
1.08 0.87 0.67 0.44 0.30 0.18 0.12 0.12 0.16 0.18 0.20 0.22 0.24 0.28 0.26 0.32 0.39 0.34 0.27 0.20 0.14 0.12 0.13 0.09 0.06 0.05 0.05 0.04 0.04 0.02 0.01 0.00 0.00 0.00 0.00 0.00 0.00 0.00 0.00 0.00 0.01 0.01 0.01
0.47 0.28 0.19 0.13 0.08 0.05 0.03 0.03 0.07 0.12 0.17 0.15 0.15 0.16 0.15 0.14 0.12 0.10 0.10 0.09 0.09 0.09 0.11 0.13 0.10 0.07 0.06 0.03 0.02 0.02 0.01 0.00 0.00 0.00 0.00 0.01 0.01 0.01 0.01 0.01 0.01 0.01 0.01
0.16 0.16 0.14 0.15 0.10 0.05 0.03 0.03 0.02 0.03 0.05 0.06 0.06 0.06 0.07 0.07 0.07 0.07 0.09 0.09 0.08 0.07 0.07 0.08 0.07 0.04 0.03 0.02 0.03 0.03 0.02 0.01 0.02 0.01 0.01 0.00 0.00 0.00 0.00 0.00 0.00 0.00 0.00
0.25 0.21 0.21 0.11 0.10 0.10 0.09 0.08 0.04 0.03 0.04 0.04 0.03 0.03 0.04 0.08 0.09 0.05 0.03 0.03 0.03 0.05 0.07 0.05 0.05 0.03 0.03 0.03 0.04 0.06 0.08 0.05 0.04 0.00 0.01 0.00 0.01 0.00 0.00 0.01 0.01 0.01 0.01
0.13 0.18 0.20 0.19 0.16 0.15 0.24 0.21 0.13 0.07 0.05 0.04 0.04 0.05 0.06 0.11 0.06 0.09 0.10 0.10 0.08 0.07 0.08 0.08 0.06 0.04 0.05 0.09 0.11 0.13 0.12 0.10 0.08 0.01 0.01 0.00 0.00 0.00 0.00 0.01 0.01 0.01 0.01
0.09 0.10 0.11 0.16 0.19 0.18 0.27 0.19 0.18 0.09 0.09 0.10 0.08 0.07 0.06 0.09 0.15 0.06 0.15 0.16 0.13 0.16 0.13 0.08 0.09 0.14 0.19 0.20 0.21 0.20 0.13 0.07 0.04 0.01 0.01 0.02 0.00 0.01 0.00 0.01 0.01 0.01 0.01
0.09 0.08 0.09 0.12 0.10 0.12 0.20 0.16 0.16 0.06 0.05 0.06 0.06 0.07 0.06 0.08 0.14 0.16 0.12 0.17 0.20 0.25 0.27 0.28 0.30 0.32 0.28 0.18 0.10 0.08 0.05 0.04 0.02 0.01 0.01 0.02 0.00 0.00 0.00 0.00 0.00 0.01 0.01
0.10 0.10 0.09 0.09 0.09 0.12 0.22 0.15 0.10 0.03 0.07 0.10 0.08 0.11 0.16 0.13 0.37 0.30 0.17 0.20 0.24 0.24 0.24 0.18 0.12 0.09 0.06 0.04 0.03 0.04 0.04 0.07 0.06 0.02 0.01 0.04 0.02 0.02 0.02 0.02 0.01 0.02 0.02
0.06 0.05 0.06 0.06 0.13 0.08 0.26 0.19 0.13 0.03 0.09 0.11 0.11 0.17 0.31 0.17 0.26 0.15 0.08 0.05 0.09 0.11 0.10 0.09 0.06 0.05 0.03 0.03 0.03 0.04 0.05 0.10 0.08 0.05 0.01 0.02 0.02 0.04 0.11 0.04 0.03 0.06 0.08

GFSMA_prec_precacc24_063.txt.gz
Total_Precipitation_Accumulation
0.10 0.16 0.02 0.01 0.00 0.00 0.00 0.00 0.00 0.00 0.00 0.00 0.00 0.00 0.00 0.00 0.00 0.00 0.00 0.00 0.00 0.01 0.01 0.01 0.00 0.00 0.00 0.00 0.00 0.00 0.00 0.00 0.00 0.00 0.00 0.00 0.00 0.00 0.00 0.00 0.00 0.00 0.00
0.06 0.10 0.02 0.01 0.00 0.00 0.00 0.00 0.00 0.00 0.00 0.00 0.00 0.00 0.00 0.00 0.00 0.00 0.00 0.00 0.00 0.01 0.02 0.01 0.00 0.00 0.00 0.00 0.00 0.00 0.00 0.00 0.00 0.00 0.00 0.00 0.00 0.00 0.00 0.00 0.00 0.00 0.00
0.03 0.05 0.02 0.00 0.00 0.00 0.00 0.00 0.00 0.00 0.00 0.00 0.00 0.00 0.00 0.00 0.00 0.00 0.00 0.00 0.00 0.00 0.01 0.01 0.00 0.00 0.00 0.00 0.00 0.00 0.00 0.00 0.00 0.00 0.00 0.00 0.00 0.00 0.00 0.00 0.00 0.00 0.00
0.02 0.04 0.03 0.02 0.00 0.00 0.00 0.00 0.00 0.00 0.00 0.00 0.00 0.00 0.00 0.00 0.00 0.00 0.00 0.00 0.00 0.00 0.00 0.01 0.00 0.00 0.00 0.00 0.00 0.00 0.00 0.00 0.00 0.00 0.00 0.00 0.00 0.00 0.00 0.00 0.00 0.00 0.00
0.01 0.05 0.11 0.08 0.02 0.02 0.00 0.00 0.00 0.00 0.00 0.00 0.00 0.00 0.00 0.00 0.00 0.00 0.00 0.00 0.00 0.00 0.00 0.00 0.00 0.00 0.00 0.00 0.00 0.00 0.00 0.00 0.00 0.00 0.00 0.00 0.00 0.00 0.00 0.00 0.00 0.00 0.00
0.01 0.02 0.01 0.04 0.03 0.03 0.00 0.00 0.00 0.00 0.00 0.00 0.00 0.00 0.00 0.00 0.00 0.00 0.00 0.00 0.00 0.00 0.00 0.00 0.00 0.00 0.00 0.00 0.00 0.00 0.00 0.00 0.00 0.00 0.00 0.00 0.00 0.00 0.00 0.00 0.00 0.00 0.00
0.02 0.03 0.01 0.03 0.02 0.04 0.01 0.01 0.00 0.00 0.00 0.00 0.00 0.00 0.00 0.00 0.00 0.00 0.00 0.00 0.00 0.00 0.00 0.00 0.01 0.00 0.00 0.00 0.00 0.00 0.00 0.00 0.00 0.00 0.00 0.00 0.00 0.00 0.00 0.00 0.00 0.00 0.00
0.01 0.03 0.04 0.04 0.04 0.04 0.02 0.01 0.00 0.00 0.00 0.00 0.00 0.00 0.00 0.00 0.00 0.00 0.00 0.00 0.00 0.00 0.00 0.00 0.00 0.00 0.00 0.00 0.00 0.00 0.00 0.00 0.00 0.00 0.00 0.00 0.00 0.00 0.00 0.00 0.00 0.00 0.00
0.00 0.00 0.02 0.03 0.04 0.03 0.01 0.00 0.00 0.00 0.00 0.00 0.00 0.00 0.00 0.00 0.00 0.00 0.00 0.00 0.00 0.00 0.00 0.00 0.00 0.00 0.00 0.00 0.00 0.00 0.00 0.00 0.00 0.00 0.00 0.00 0.00 0.00 0.00 0.00 0.00 0.00 0.00
0.03 0.00 0.02 0.01 0.01 0.01 0.02 0.04 0.02 0.02 0.01 0.01 0.01 0.01 0.00 0.03 0.10 0.09 0.01 0.00 0.00 0.00 0.00 0.00 0.00 0.00 0.00 0.00 0.00 0.00 0.00 0.00 0.00 0.00 0.00 0.00 0.00 0.01 0.01 0.00 0.00 0.00 0.00
0.05 0.01 0.04 0.04 0.04 0.06 0.09 0.15 0.11 0.10 0.09 0.14 0.11 0.03 0.01 0.00 0.01 0.13 0.11 0.05 0.01 0.00 0.00 0.00 0.00 0.00 0.00 0.00 0.00 0.00 0.00 0.00 0.00 0.00 0.00 0.00 0.00 0.01 0.02 0.04 0.06 0.05 0.05
0.06 0.10 0.10 0.11 0.15 0.17 0.20 0.24 0.30 0.19 0.14 0.15 0.25 0.14 0.13 0.09 0.05 0.05 0.05 0.06 0.10 0.05 0.02 0.03 0.04 0.03 0.02 0.01 0.00 0.00 0.00 0.00 0.00 0.00 0.00 0.00 0.00 0.00 0.01 0.03 0.05 0.06 0.09
0.10 0.17 0.13 0.16 0.13 0.17 0.25 0.26 0.32 0.28 0.29 0.25 0.24 0.22 0.20 0.16 0.10 0.09 0.14 0.09 0.12 0.11 0.06 0.04 0.03 0.04 0.04 0.05 0.04 0.03 0.01 0.00 0.00 0.00 0.00 0.00 0.00 0.00 0.00 0.00 0.01 0.02 0.03
0.02 0.09 0.16 0.26 0.26 0.19 0.25 0.28 0.27 0.26 0.26 0.29 0.29 0.27 0.25 0.21 0.18 0.20 0.26 0.33 0.30 0.21 0.14 0.07 0.05 0.09 0.09 0.08 0.05 0.03 0.02 0.02 0.01 0.03 0.05 0.06 0.05 0.04 0.03 0.01 0.01 0.00 0.01
0.03 0.08 0.19 0.26 0.26 0.37 0.44 0.46 0.42 0.34 0.35 0.26 0.22 0.20 0.17 0.11 0.15 0.16 0.15 0.19 0.21 0.24 0.16 0.09 0.11 0.10 0.11 0.09 0.07 0.05 0.04 0.08 0.11 0.08 0.09 0.08 0.04 0.03 0.02 0.01 0.00 0.00 0.01
0.16 0.24 0.31 0.36 0.41 0.41 0.44 0.43 0.36 0.30 0.27 0.20 0.15 0.15 0.16 0.15 0.16 0.21 0.21 0.19 0.24 0.31 0.31 0.15 0.09 0.07 0.08 0.10 0.11 0.10 0.07 0.08 0.04 0.03 0.02 0.01 0.01 0.01 0.00 0.00 0.00 0.00 0.00
0.39 0.36 0.38 0.36 0.29 0.25 0.31 0.37 0.41 0.44 0.43 0.37 0.32 0.28 0.23 0.27 0.30 0.29 0.30 0.29 0.26 0.26 0.29 0.16 0.08 0.06 0.08 0.09 0.06 0.05 0.04 0.02 0.01 0.02 0.02 0.01 0.01 0.00 0.00 0.00 0.00 0.00 0.00
0.97 0.83 0.66 0.43 0.28 0.18 0.12 0.12 0.16 0.18 0.20 0.20 0.22 0.26 0.25 0.31 0.39 0.34 0.27 0.20 0.16 0.14 0.16 0.11 0.06 0.06 0.05 0.04 0.04 0.02 0.01 0.01 0.01 0.01 0.01 0.00 0.00 0.00 0.00 0.00 0.01 0.01 0.01
0.44 0.27 0.18 0.12 0.08 0.05 0.03 0.03 0.06 0.12 0.16 0.13 0.13 0.15 0.13 0.14 0.12 0.10 0.10 0.10 0.10 0.12 0.14 0.16 0.12 0.07 0.06 0.03 0.02 0.02 0.02 0.01 0.01 0.00 0.00 0.01 0.01 0.01 0.01 0.01 0.01 0.01 0.01
0.14 0.15 0.14 0.15 0.10 0.05 0.03 0.03 0.02 0.03 0.04 0.05 0.06 0.05 0.07 0.07 0.07 0.07 0.09 0.09 0.09 0.08 0.09 0.09 0.09 0.06 0.04 0.02 0.03 0.03 0.02 0.01 0.02 0.03 0.05 0.05 0.04 0.04 0.02 0.01 0.01 0.00 0.00
0.24 0.21 0.20 0.11 0.10 0.10 0.08 0.08 0.04 0.03 0.04 0.04 0.03 0.03 0.04 0.08 0.09 0.05 0.03 0.03 0.04 0.06 0.09 0.09 0.09 0.08 0.06 0.05 0.05 0.07 0.07 0.07 0.09 0.10 0.10 0.06 0.04 0.02 0.01 0.01 0.01 0.01 0.01
0.13 0.18 0.20 0.19 0.16 0.15 0.23 0.20 0.13 0.07 0.05 0.04 0.04 0.05 0.06 0.11 0.06 0.09 0.10 0.11 0.10 0.09 0.11 0.11 0.11 0.11 0.09 0.10 0.12 0.14 0.16 0.20 0.21 0.15 0.16 0.10 0.03 0.01 0.00 0.01 0.01 0.01 0.01
0.09 0.10 0.12 0.16 0.19 0.19 0.28 0.20 0.19 0.09 0.09 0.10 0.08 0.07 0.06 0.09 0.15 0.06 0.15 0.18 0.17 0.21 0.18 0.13 0.13 0.19 0.27 0.33 0.37 0.42 0.36 0.28 0.21 0.13 0.09 0.06 0.00 0.01 0.00 0.01 0.01 0.01 0.01
0.09 0.08 0.09 0.12 0.10 0.13 0.21 0.17 0.17 0.07 0.05 0.06 0.06 0.07 0.07 0.08 0.15 0.17 0.12 0.17 0.21 0.29 0.35 0.38 0.41 0.46 0.41 0.31 0.20 0.15 0.10 0.08 0.05 0.04 0.03 0.03 0.00 0.00 0.00 0.00 0.00 0.01 0.01
0.10 0.10 0.11 0.10 0.09 0.13 0.22 0.15 0.11 0.03 0.07 0.11 0.09 0.11 0.16 0.13 0.40 0.34 0.19 0.22 0.29 0.32 0.43 0.36 0.27 0.23 0.18 0.14 0.11 0.13 0.15 0.16 0.11 0.05 0.03 0.04 0.02 0.02 0.02 0.02 0.01 0.02 0.02
0.06 0.05 0.06 0.06 0.14 0.08 0.28 0.21 0.16 0.05 0.11 0.13 0.13 0.18 0.35 0.20 0.33 0.21 0.12 0.08 0.20 0.27 0.24 0.26 0.25 0.23 0.19 0.16 0.15 0.15 0.15 0.15 0.11 0.07 0.02 0.02 0.02 0.04 0.11 0.04 0.03 0.06 0.08

GFSMA_prec_precacc24_069.txt.gz
Total_Precipitation_Accumulation
0.18 0.21 0.04 0.01 0.00 0.00 0.00 0.00 0.00 0.00 0.00 0.00 0.00 0.00 0.00 0.00 0.00 0.00 0.00 0.00 0.00 0.01 0.01 0.00 0.00 0.00 0.00 0.00 0.00 0.00 0.00 0.00 0.00 0.00 0.00 0.00 0.00 0.00 0.00 0.00 0.00 0.00 0.00
0.10 0.10 0.02 0.01 0.00 0.00 0.00 0.00 0.00 0.00 0.00 0.00 0.00 0.00 0.00 0.00 0.00 0.00 0.00 0.00 0.00 0.01 0.02 0.00 0.00 0.00 0.00 0.00 0.00 0.00 0.00 0.00 0.00 0.00 0.00 0.00 0.00 0.00 0.00 0.00 0.00 0.00 0.00
0.05 0.05 0.01 0.00 0.00 0.00 0.00 0.00 0.00 0.00 0.00 0.00 0.00 0.00 0.00 0.00 0.00 0.00 0.00 0.00 0.00 0.00 0.01 0.01 0.00 0.00 0.00 0.00 0.00 0.00 0.00 0.00 0.00 0.00 0.00 0.00 0.00 0.00 0.00 0.00 0.00 0.00 0.00
0.03 0.04 0.02 0.02 0.00 0.00 0.00 0.00 0.00 0.00 0.00 0.00 0.00 0.00 0.00 0.00 0.00 0.00 0.00 0.00 0.00 0.00 0.00 0.01 0.00 0.00 0.00 0.00 0.00 0.00 0.00 0.00 0.00 0.00 0.00 0.00 0.00 0.00 0.00 0.00 0.00 0.00 0.00
0.01 0.04 0.11 0.08 0.02 0.02 0.00 0.00 0.00 0.00 0.00 0.00 0.00 0.00 0.00 0.00 0.00 0.00 0.00 0.00 0.00 0.00 0.00 0.00 0.00 0.00 0.00 0.00 0.00 0.00 0.00 0.00 0.00 0.00 0.00 0.00 0.00 0.00 0.00 0.00 0.00 0.00 0.00
0.01 0.02 0.02 0.04 0.03 0.03 0.00 0.00 0.00 0.00 0.00 0.00 0.00 0.00 0.00 0.00 0.00 0.00 0.00 0.00 0.00 0.00 0.00 0.00 0.00 0.00 0.00 0.00 0.00 0.00 0.00 0.00 0.00 0.00 0.00 0.00 0.00 0.00 0.00 0.00 0.00 0.00 0.00
0.04 0.03 0.02 0.03 0.02 0.05 0.01 0.01 0.00 0.00 0.00 0.00 0.00 0.00 0.00 0.00 0.00 0.00 0.00 0.00 0.00 0.00 0.00 0.00 0.01 0.00 0.00 0.00 0.00 0.00 0.00 0.00 0.00 0.00 0.00 0.00 0.00 0.00 0.00 0.00 0.00 0.00 0.00
0.03 0.05 0.05 0.05 0.04 0.05 0.02 0.01 0.00 0.00 0.00 0.00 0.00 0.00 0.00 0.00 0.00 0.00 0.00 0.00 0.00 0.00 0.00 0.00 0.00 0.00 0.00 0.00 0.00 0.00 0.00 0.00 0.00 0.00 0.00 0.00 0.00 0.00 0.00 0.00 0.00 0.00 0.00
0.05 0.03 0.03 0.04 0.04 0.04 0.02 0.01 0.00 0.00 0.00 0.00 0.00 0.00 0.00 0.01 0.00 0.00 0.00 0.00 0.00 0.00 0.00 0.00 0.00 0.00 0.00 0.00 0.00 0.00 0.00 0.00 0.00 0.00 0.00 0.00 0.00 0.00 0.00 0.00 0.00 0.00 0.00
0.07 0.05 0.03 0.02 0.01 0.01 0.04 0.04 0.02 0.00 0.01 0.00 0.00 0.00 0.00 0.03 0.10 0.09 0.01 0.00 0.00 0.00 0.00 0.00 0.00 0.00 0.00 0.00 0.00 0.00 0.00 0.00 0.00 0.00 0.00 0.00 0.00 0.01 0.01 0.00 0.00 0.00 0.00
0.12 0.05 0.01 0.04 0.04 0.03 0.04 0.10 0.06 0.04 0.03 0.09 0.07 0.02 0.01 0.00 0.01 0.13 0.11 0.05 0.01 0.00 0.00 0.00 0.00 0.00 0.00 0.00 0.00 0.00 0.00 0.00 0.00 0.00 0.00 0.00 0.00 0.01 0.03 0.04 0.06 0.05 0.05
0.12 0.10 0.04 0.03 0.08 0.10 0.10 0.17 0.24 0.14 0.09 0.13 0.25 0.14 0.13 0.09 0.05 0.05 0.05 0.06 0.10 0.05 0.02 0.03 0.04 0.03 0.02 0.01 0.00 0.00 0.00 0.00 0.00 0.00 0.00 0.00 0.00 0.03 0.09 0.08 0.08 0.09 0.14
0.06 0.07 0.05 0.05 0.04 0.05 0.08 0.15 0.27 0.26 0.25 0.24 0.24 0.22 0.20 0.16 0.10 0.09 0.14 0.10 0.12 0.11 0.06 0.04 0.03 0.04 0.05 0.05 0.04 0.03 0.01 0.00 0.00 0.00 0.00 0.01 0.02 0.06 0.13 0.21 0.25 0.23 0.19
0.00 0.00 0.01 0.03 0.04 0.04 0.06 0.08 0.14 0.21 0.23 0.28 0.29 0.27 0.25 0.21 0.19 0.20 0.27 0.34 0.31 0.21 0.14 0.07 0.05 0.09 0.09 0.08 0.05 0.03 0.02 0.02 0.02 0.04 0.07 0.09 0.11 0.13 0.15 0.14 0.14 0.14 0.15
0.00 0.00 0.00 0.02 0.02 0.06 0.16 0.24 0.31 0.30 0.34 0.26 0.22 0.20 0.17 0.10 0.15 0.17 0.16 0.19 0.23 0.25 0.16 0.09 0.11 0.10 0.11 0.09 0.07 0.05 0.04 0.08 0.11 0.09 0.10 0.10 0.08 0.07 0.06 0.05 0.04 0.04 0.05
0.00 0.00 0.01 0.03 0.05 0.10 0.24 0.30 0.30 0.27 0.26 0.19 0.14 0.14 0.14 0.13 0.14 0.20 0.19 0.19 0.25 0.32 0.31 0.15 0.09 0.07 0.08 0.10 0.11 0.10 0.07 0.08 0.04 0.03 0.02 0.02 0.02 0.01 0.01 0.00 0.00 0.01 0.03
0.00 0.01 0.04 0.06 0.08 0.12 0.25 0.35 0.39 0.43 0.41 0.34 0.30 0.24 0.20 0.24 0.28 0.27 0.28 0.28 0.26 0.27 0.30 0.16 0.08 0.06 0.08 0.09 0.06 0.05 0.04 0.02 0.01 0.03 0.02 0.01 0.01 0.01 0.00 0.00 0.01 0.01 0.01
0.03 0.09 0.09 0.15 0.21 0.13 0.10 0.12 0.15 0.16 0.17 0.17 0.18 0.21 0.20 0.28 0.37 0.33 0.26 0.20 0.16 0.14 0.16 0.11 0.07 0.06 0.05 0.05 0.04 0.02 0.01 0.01 0.01 0.01 0.02 0.01 0.01 0.01 0.00 0.00 0.00 0.01 0.02
0.03 0.05 0.07 0.05 0.02 0.00 0.01 0.01 0.04 0.10 0.13 0.10 0.10 0.11 0.11 0.12 0.11 0.10 0.10 0.09 0.10 0.12 0.14 0.16 0.12 0.07 0.06 0.03 0.03 0.03 0.02 0.02 0.01 0.01 0.01 0.02 0.03 0.04 0.05 0.06 0.06 0.06 0.07
0.05 0.09 0.08 0.08 0.05 0.01 0.00 0.00 0.00 0.01 0.03 0.03 0.05 0.05 0.07 0.07 0.07 0.07 0.09 0.09 0.09 0.08 0.09 0.09 0.09 0.06 0.04 0.02 0.03 0.03 0.02 0.02 0.03 0.04 0.06 0.08 0.11 0.12 0.11 0.11 0.13 0.15 0.15
0.09 0.11 0.11 0.05 0.05 0.06 0.04 0.06 0.03 0.03 0.03 0.03 0.03 0.03 0.04 0.07 0.08 0.05 0.03 0.03 0.04 0.06 0.09 0.09 0.10 0.08 0.06 0.06 0.06 0.07 0.09 0.08 0.10 0.12 0.13 0.10 0.10 0.15 0.20 0.30 0.30 0.28 0.25
0.08 0.12 0.13 0.13 0.10 0.10 0.18 0.19 0.12 0.07 0.05 0.04 0.04 0.05 0.06 0.10 0.06 0.09 0.10 0.11 0.10 0.09 0.11 0.12 0.11 0.11 0.09 0.11 0.12 0.15 0.19 0.27 0.31 0.27 0.30 0.28 0.22 0.19 0.19 0.18 0.22 0.20 0.14
0.16 0.10 0.12 0.16 0.18 0.19 0.27 0.21 0.20 0.10 0.09 0.10 0.08 0.07 0.06 0.09 0.15 0.06 0.15 0.18 0.17 0.23 0.20 0.15 0.15 0.20 0.28 0.35 0.40 0.45 0.42 0.35 0.32 0.23 0.20 0.19 0.19 0.18 0.15 0.16 0.19 0.14 0.07
0.14 0.12 0.14 0.15 0.15 0.15 0.23 0.25 0.32 0.16 0.09 0.07 0.07 0.07 0.07 0.08 0.15 0.17 0.12 0.18 0.22 0.29 0.37 0.40 0.44 0.53 0.49 0.40 0.32 0.32 0.31 0.32 0.32 0.31 0.30 0.34 0.31 0.27 0.22 0.17 0.15 0.10 0.05
0.12 0.14 0.14 0.16 0.15 0.15 0.30 0.29 0.29 0.17 0.15 0.16 0.14 0.14 0.18 0.14 0.43 0.40 0.24 0.23 0.30 0.34 0.47 0.44 0.35 0.35 0.34 0.30 0.27 0.27 0.34 0.39 0.44 0.42 0.34 0.32 0.29 0.27 0.23 0.19 0.14 0.06 0.03
0.08 0.09 0.08 0.09 0.23 0.15 0.38 0.32 0.27 0.12 0.14 0.16 0.18 0.22 0.43 0.27 0.39 0.28 0.17 0.10 0.22 0.31 0.31 0.37 0.41 0.45 0.46 0.49 0.55 0.47 0.45 0.45 0.45 0.40 0.28 0.23 0.20 0.18 0.16 0.09 0.07 0.04 0.04

GFSMA_prec_precacc24_075.txt.gz
Total_Precipitation_Accumulation
0.23 0.29 0.14 0.11 0.09 0.07 0.01 0.00 0.00 0.00 0.00 0.00 0.00 0.00 0.00 0.00 0.00 0.00 0.00 0.00 0.01 0.01 0.00 0.01 0.01 0.00 0.00 0.00 0.00 0.00 0.00 0.00 0.00 0.00 0.00 0.00 0.00 0.00 0.00 0.00 0.00 0.00 0.00
0.13 0.15 0.06 0.10 0.05 0.03 0.01 0.00 0.00 0.00 0.00 0.00 0.00 0.00 0.00 0.00 0.00 0.00 0.00 0.00 0.00 0.01 0.01 0.00 0.00 0.00 0.00 0.00 0.00 0.00 0.00 0.00 0.00 0.00 0.00 0.00 0.00 0.00 0.00 0.00 0.00 0.00 0.00
0.08 0.09 0.02 0.06 0.07 0.02 0.00 0.00 0.00 0.00 0.00 0.00 0.00 0.00 0.00 0.00 0.00 0.00 0.00 0.00 0.00 0.00 0.01 0.01 0.00 0.00 0.00 0.00 0.00 0.00 0.00 0.00 0.00 0.00 0.00 0.00 0.00 0.00 0.00 0.00 0.00 0.00 0.00
0.09 0.09 0.06 0.07 0.07 0.02 0.00 0.00 0.00 0.00 0.00 0.00 0.00 0.00 0.00 0.00 0.00 0.00 0.00 0.00 0.00 0.00 0.00 0.01 0.01 0.00 0.00 0.00 0.00 0.00 0.00 0.00 0.00 0.00 0.00 0.00 0.00 0.00 0.00 0.00 0.00 0.00 0.00
0.11 0.12 0.16 0.13 0.10 0.04 0.00 0.00 0.00 0.00 0.00 0.00 0.00 0.00 0.00 0.00 0.00 0.00 0.00 0.00 0.00 0.00 0.00 0.00 0.00 0.00 0.00 0.00 0.00 0.00 0.00 0.00 0.00 0.00 0.00 0.00 0.00 0.00 0.00 0.00 0.00 0.00 0.00
0.31 0.13 0.07 0.06 0.09 0.05 0.00 0.00 0.00 0.00 0.00 0.00 0.00 0.00 0.00 0.00 0.00 0.00 0.00 0.00 0.00 0.00 0.00 0.00 0.00 0.00 0.00 0.00 0.00 0.00 0.00 0.00 0.00 0.00 0.00 0.00 0.00 0.00 0.00 0.00 0.00 0.00 0.00
0.56 0.17 0.11 0.04 0.03 0.04 0.01 0.00 0.00 0.00 0.00 0.00 0.00 0.00 0.00 0.00 0.00 0.00 0.00 0.00 0.00 0.00 0.00 0.00 0.01 0.00 0.00 0.00 0.00 0.00 0.00 0.00 0.00 0.00 0.00 0.00 0.00 0.00 0.00 0.00 0.00 0.00 0.00
0.62 0.28 0.17 0.07 0.02 0.02 0.02 0.00 0.00 0.00 0.00 0.00 0.00 0.00 0.00 0.00 0.00 0.00 0.00 0.00 0.00 0.00 0.00 0.00 0.00 0.00 0.00 0.00 0.00 0.00 0.00 0.00 0.00 0.00 0.00 0.00 0.00 0.00 0.00 0.00 0.00 0.00 0.00
0.48 0.37 0.19 0.08 0.01 0.01 0.01 0.00 0.00 0.00 0.00 0.00 0.00 0.00 0.00 0.01 0.00 0.00 0.00 0.00 0.00 0.00 0.00 0.00 0.00 0.00 0.00 0.00 0.00 0.00 0.00 0.00 0.00 0.00 0.00 0.00 0.00 0.00 0.00 0.00 0.00 0.00 0.00
0.19 0.27 0.21 0.09 0.01 0.01 0.03 0.02 0.01 0.00 0.00 0.00 0.00 0.00 0.00 0.03 0.10 0.10 0.02 0.00 0.00 0.00 0.00 0.00 0.00 0.00 0.00 0.00 0.00 0.00 0.00 0.00 0.00 0.00 0.00 0.00 0.01 0.01 0.01 0.00 0.00 0.00 0.00
0.23 0.13 0.20 0.15 0.07 0.02 0.03 0.07 0.03 0.01 0.00 0.06 0.04 0.00 0.00 0.00 0.01 0.12 0.10 0.05 0.01 0.00 0.00 0.00 0.00 0.00 0.00 0.00 0.00 0.00 0.00 0.00 0.00 0.00 0.00 0.00 0.00 0.01 0.02 0.03 0.05 0.05 0.05
0.42 0.26 0.19 0.22 0.15 0.10 0.09 0.15 0.16 0.06 0.02 0.07 0.20 0.10 0.11 0.07 0.04 0.04 0.04 0.05 0.10 0.05 0.02 0.03 0.04 0.03 0.02 0.01 0.00 0.00 0.00 0.00 0.00 0.00 0.00 0.00 0.00 0.03 0.09 0.08 0.07 0.08 0.13
0.17 0.26 0.17 0.19 0.21 0.11 0.07 0.11 0.24 0.19 0.16 0.16 0.16 0.13 0.13 0.12 0.06 0.07 0.12 0.09 0.12 0.11 0.06 0.04 0.03 0.04 0.05 0.05 0.04 0.03 0.01 0.00 0.00 0.00 0.00 0.01 0.02 0.06 0.13 0.21 0.25 0.25 0.21
0.01 0.05 0.11 0.13 0.16 0.19 0.14 0.10 0.14 0.15 0.15 0.15 0.10 0.08 0.07 0.06 0.08 0.10 0.23 0.32 0.29 0.20 0.13 0.07 0.04 0.09 0.09 0.08 0.05 0.03 0.02 0.02 0.02 0.04 0.07 0.09 0.11 0.13 0.15 0.13 0.13 0.14 0.17
0.00 0.00 0.03 0.13 0.13 0.13 0.14 0.13 0.13 0.12 0.16 0.12 0.10 0.09 0.07 0.02 0.07 0.12 0.13 0.17 0.19 0.20 0.13 0.08 0.11 0.10 0.11 0.09 0.07 0.05 0.04 0.08 0.11 0.09 0.10 0.10 0.08 0.07 0.06 0.05 0.04 0.03 0.04
0.01 0.00 0.00 0.02 0.11 0.13 0.11 0.13 0.10 0.08 0.11 0.08 0.09 0.14 0.15 0.09 0.09 0.15 0.14 0.15 0.22 0.29 0.28 0.15 0.09 0.07 0.08 0.10 0.11 0.10 0.07 0.08 0.04 0.03 0.02 0.02 0.02 0.01 0.01 0.00 0.00 0.01 0.02
0.01 0.00 0.00 0.00 0.00 0.01 0.01 0.05 0.10 0.05 0.03 0.02 0.04 0.08 0.12 0.16 0.23 0.21 0.22 0.24 0.24 0.27 0.29 0.16 0.08 0.06 0.08 0.09 0.06 0.05 0.04 0.02 0.01 0.03 0.02 0.01 0.01 0.01 0.00 0.00 0.01 0.01 0.01
0.00 0.00 0.00 0.00 0.00 0.00 0.00 0.00 0.01 0.04 0.04 0.05 0.07 0.12 0.13 0.20 0.30 0.27 0.22 0.17 0.14 0.14 0.17 0.11 0.06 0.06 0.05 0.05 0.04 0.02 0.01 0.01 0.01 0.01 0.02 0.01 0.01 0.01 0.01 0.01 0.01 0.00 0.01
0.00 0.00 0.00 0.00 0.00 0.00 0.00 0.00 0.00 0.00 0.00 0.03 0.07 0.07 0.05 0.05 0.05 0.06 0.08 0.08 0.08 0.10 0.14 0.16 0.12 0.07 0.06 0.03 0.03 0.03 0.02 0.02 0.01 0.01 0.01 0.02 0.03 0.04 0.06 0.06 0.06 0.06 0.06
0.00 0.00 0.00 0.00 0.00 0.00 0.00 0.00 0.00 0.00 0.01 0.01 0.01 0.02 0.03 0.04 0.04 0.04 0.06 0.06 0.07 0.08 0.09 0.09 0.09 0.06 0.04 0.02 0.03 0.03 0.02 0.02 0.03 0.04 0.06 0.08 0.11 0.12 0.11 0.11 0.14 0.16 0.17
0.00 0.00 0.00 0.00 0.00 0.00 0.00 0.00 0.00 0.01 0.00 0.00 0.01 0.01 0.02 0.03 0.03 0.02 0.03 0.03 0.03 0.06 0.09 0.09 0.10 0.09 0.06 0.06 0.06 0.07 0.09 0.08 0.10 0.12 0.13 0.10 0.10 0.15 0.20 0.31 0.31 0.31 0.30
0.08 0.04 0.03 0.03 0.03 0.04 0.07 0.05 0.04 0.02 0.02 0.01 0.01 0.02 0.02 0.05 0.04 0.07 0.09 0.11 0.09 0.09 0.11 0.12 0.11 0.11 0.09 0.11 0.12 0.15 0.20 0.27 0.31 0.27 0.30 0.28 0.22 0.19 0.19 0.19 0.27 0.25 0.22
0.13 0.09 0.11 0.11 0.10 0.14 0.25 0.17 0.18 0.08 0.04 0.05 0.04 0.05 0.05 0.07 0.13 0.06 0.14 0.17 0.17 0.23 0.20 0.15 0.15 0.20 0.28 0.35 0.41 0.45 0.42 0.36 0.32 0.23 0.20 0.20 0.20 0.20 0.22 0.28 0.37 0.30 0.25
0.06 0.08 0.09 0.09 0.13 0.16 0.24 0.28 0.37 0.23 0.11 0.08 0.06 0.10 0.11 0.10 0.17 0.22 0.14 0.18 0.22 0.30 0.39 0.42 0.47 0.56 0.54 0.46 0.36 0.36 0.35 0.37 0.39 0.36 0.37 0.42 0.41 0.38 0.33 0.32 0.41 0.30 0.26
0.03 0.04 0.06 0.09 0.11 0.10 0.28 0.28 0.29 0.18 0.15 0.16 0.20 0.28 0.36 0.22 0.50 0.47 0.28 0.28 0.35 0.44 0.65 0.55 0.45 0.54 0.53 0.40 0.33 0.32 0.43 0.68 0.89 0.76 0.63 0.59 0.56 0.51 0.49 0.49 0.48 0.41 0.32
0.02 0.04 0.04 0.05 0.18 0.11 0.32 0.28 0.25 0.12 0.13 0.17 0.24 0.36 0.74 0.37 0.41 0.31 0.21 0.14 0.37 0.68 0.54 0.54 0.57 0.66 0.63 0.66 0.77 0.62 0.61 0.89 1.17 1.16 1.04 0.92 0.91 0.87 0.80 0.70 0.56 0.43 0.34

GFSMA_prec_precacc24_078.txt.gz
Total_Precipitation_Accumulation
0.23 0.29 0.15 0.14 0.14 0.18 0.28 0.14 0.06 0.03 0.02 0.00 0.00 0.00 0.00 0.00 0.00 0.00 0.00 0.00 0.01 0.01 0.01 0.01 0.01 0.01 0.01 0.01 0.00 0.00 0.00 0.00 0.00 0.00 0.00 0.00 0.00 0.00 0.00 0.00 0.00 0.00 0.00
0.13 0.15 0.08 0.14 0.09 0.13 0.21 0.08 0.02 0.02 0.01 0.00 0.00 0.00 0.00 0.00 0.00 0.00 0.00 0.00 0.00 0.01 0.02 0.01 0.01 0.01 0.01 0.01 0.00 0.00 0.00 0.00 0.00 0.00 0.00 0.00 0.00 0.00 0.00 0.00 0.00 0.00 0.00
0.11 0.12 0.03 0.09 0.12 0.09 0.15 0.09 0.03 0.02 0.01 0.00 0.00 0.00 0.00 0.00 0.00 0.00 0.00 0.00 0.00 0.00 0.01 0.01 0.01 0.00 0.00 0.00 0.00 0.00 0.00 0.00 0.00 0.00 0.00 0.00 0.00 0.00 0.00 0.00 0.00 0.00 0.00
0.14 0.13 0.08 0.08 0.11 0.12 0.12 0.06 0.01 0.01 0.01 0.00 0.00 0.00 0.00 0.00 0.00 0.00 0.00 0.00 0.00 0.00 0.00 0.01 0.01 0.01 0.01 0.00 0.00 0.00 0.00 0.00 0.00 0.00 0.00 0.00 0.00 0.00 0.00 0.00 0.00 0.00 0.00
0.19 0.14 0.20 0.14 0.14 0.16 0.11 0.03 0.00 0.01 0.01 0.00 0.00 0.00 0.00 0.00 0.00 0.00 0.00 0.00 0.00 0.00 0.00 0.00 0.00 0.00 0.00 0.00 0.00 0.00 0.00 0.00 0.00 0.00 0.00 0.00 0.00 0.00 0.00 0.00 0.00 0.00 0.00
0.85 0.23 0.11 0.08 0.15 0.16 0.07 0.02 0.01 0.00 0.00 0.00 0.00 0.00 0.00 0.00 0.00 0.00 0.00 0.00 0.00 0.00 0.00 0.00 0.00 0.00 0.00 0.00 0.00 0.00 0.00 0.00 0.00 0.00 0.00 0.00 0.00 0.00 0.00 0.00 0.00 0.00 0.00
1.32 0.64 0.24 0.08 0.09 0.14 0.06 0.01 0.00 0.00 0.00 0.00 0.00 0.00 0.00 0.00 0.00 0.00 0.00 0.00 0.00 0.00 0.00 0.01 0.01 0.00 0.00 0.00 0.00 0.00 0.00 0.00 0.00 0.00 0.00 0.00 0.00 0.00 0.00 0.00 0.00 0.00 0.00
0.85 0.74 0.36 0.19 0.09 0.10 0.09 0.01 0.01 0.00 0.00 0.00 0.00 0.00 0.01 0.01 0.00 0.00 0.00 0.00 0.00 0.00 0.00 0.00 0.00 0.00 0.00 0.00 0.00 0.00 0.00 0.00 0.00 0.00 0.00 0.00 0.00 0.00 0.00 0.00 0.00 0.00 0.00
0.64 0.71 0.41 0.33 0.15 0.06 0.05 0.01 0.00 0.00 0.00 0.00 0.00 0.00 0.01 0.01 0.01 0.00 0.00 0.00 0.00 0.00 0.00 0.00 0.00 0.00 0.00 0.00 0.00 0.00 0.00 0.00 0.00 0.00 0.01 0.00 0.00 0.00 0.00 0.00 0.00 0.00 0.00
0.35 0.63 0.46 0.36 0.21 0.05 0.05 0.02 0.00 0.00 0.00 0.00 0.00 0.00 0.00 0.03 0.10 0.09 0.01 0.00 0.00 0.00 0.00 0.00 0.00 0.00 0.00 0.00 0.00 0.00 0.00 0.00 0.00 0.00 0.00 0.01 0.01 0.01 0.00 0.00 0.00 0.00 0.00
0.26 0.43 0.43 0.34 0.16 0.06 0.04 0.07 0.02 0.00 0.00 0.03 0.03 0.00 0.00 0.00 0.01 0.11 0.09 0.04 0.00 0.00 0.00 0.00 0.00 0.00 0.00 0.00 0.00 0.00 0.00 0.00 0.00 0.00 0.00 0.00 0.00 0.02 0.02 0.02 0.04 0.04 0.05
0.52 0.45 0.33 0.28 0.17 0.11 0.09 0.12 0.15 0.06 0.02 0.06 0.16 0.09 0.10 0.06 0.04 0.04 0.04 0.04 0.07 0.03 0.00 0.02 0.04 0.03 0.02 0.01 0.00 0.00 0.00 0.00 0.00 0.00 0.00 0.00 0.00 0.03 0.09 0.08 0.05 0.05 0.10
0.20 0.36 0.33 0.28 0.24 0.13 0.08 0.11 0.21 0.18 0.15 0.15 0.14 0.11 0.12 0.11 0.05 0.06 0.10 0.04 0.04 0.05 0.02 0.02 0.03 0.04 0.05 0.05 0.04 0.03 0.01 0.00 0.00 0.00 0.00 0.01 0.02 0.06 0.13 0.21 0.25 0.25 0.20
0.01 0.08 0.24 0.28 0.22 0.21 0.16 0.11 0.14 0.15 0.15 0.15 0.10 0.08 0.06 0.05 0.04 0.02 0.03 0.05 0.03 0.05 0.07 0.04 0.03 0.07 0.08 0.08 0.05 0.03 0.02 0.02 0.02 0.04 0.07 0.09 0.11 0.13 0.15 0.13 0.13 0.14 0.17
0.01 0.01 0.07 0.20 0.19 0.16 0.17 0.16 0.14 0.12 0.16 0.12 0.10 0.09 0.07 0.02 0.05 0.06 0.04 0.06 0.07 0.04 0.02 0.02 0.05 0.09 0.10 0.09 0.07 0.05 0.04 0.08 0.11 0.09 0.10 0.10 0.08 0.07 0.06 0.05 0.04 0.03 0.04
0.02 0.01 0.02 0.05 0.16 0.21 0.16 0.17 0.14 0.09 0.11 0.08 0.09 0.13 0.13 0.05 0.03 0.06 0.05 0.05 0.10 0.11 0.11 0.09 0.08 0.07 0.07 0.10 0.10 0.10 0.07 0.08 0.04 0.03 0.02 0.02 0.02 0.01 0.01 0.00 0.00 0.01 0.02
0.01 0.00 0.01 0.01 0.01 0.04 0.06 0.08 0.12 0.11 0.07 0.03 0.03 0.05 0.05 0.07 0.10 0.08 0.07 0.10 0.13 0.16 0.22 0.12 0.06 0.05 0.07 0.08 0.06 0.05 0.04 0.02 0.01 0.03 0.02 0.01 0.01 0.01 0.00 0.00 0.01 0.01 0.01
0.00 0.01 0.00 0.00 0.00 0.00 0.02 0.02 0.02 0.07 0.07 0.07 0.03 0.03 0.02 0.03 0.07 0.08 0.13 0.14 0.11 0.10 0.15 0.10 0.04 0.04 0.04 0.04 0.04 0.03 0.01 0.01 0.01 0.01 0.02 0.01 0.01 0.01 0.01 0.01 0.01 0.00 0.01
0.00 0.00 0.00 0.00 0.00 0.00 0.00 0.00 0.00 0.00 0.00 0.01 0.03 0.04 0.03 0.03 0.03 0.04 0.04 0.04 0.04 0.07 0.12 0.16 0.11 0.06 0.05 0.04 0.04 0.03 0.02 0.02 0.01 0.01 0.01 0.02 0.03 0.04 0.06 0.06 0.06 0.06 0.06
0.01 0.00 0.00 0.00 0.00 0.00 0.00 0.01 0.01 0.01 0.00 0.00 0.01 0.02 0.04 0.04 0.03 0.03 0.04 0.04 0.04 0.05 0.07 0.08 0.08 0.06 0.04 0.02 0.04 0.04 0.02 0.02 0.03 0.04 0.06 0.08 0.11 0.12 0.11 0.11 0.14 0.16 0.17
0.01 0.00 0.00 0.01 0.01 0.01 0.00 0.00 0.00 0.00 0.00 0.00 0.00 0.01 0.02 0.03 0.02 0.03 0.05 0.05 0.07 0.10 0.11 0.11 0.11 0.09 0.06 0.06 0.06 0.08 0.11 0.09 0.11 0.12 0.13 0.10 0.10 0.15 0.21 0.31 0.31 0.31 0.30
0.08 0.05 0.04 0.03 0.04 0.05 0.08 0.02 0.02 0.00 0.00 0.01 0.01 0.02 0.02 0.04 0.03 0.04 0.06 0.09 0.10 0.11 0.12 0.13 0.12 0.12 0.10 0.11 0.12 0.15 0.20 0.28 0.31 0.28 0.31 0.29 0.22 0.20 0.19 0.20 0.29 0.26 0.23
0.14 0.10 0.12 0.12 0.12 0.15 0.28 0.14 0.16 0.07 0.04 0.05 0.05 0.04 0.05 0.08 0.14 0.05 0.13 0.18 0.18 0.26 0.23 0.19 0.17 0.22 0.32 0.39 0.44 0.46 0.42 0.36 0.32 0.23 0.20 0.21 0.22 0.24 0.26 0.35 0.46 0.31 0.27
0.07 0.08 0.08 0.09 0.12 0.15 0.21 0.24 0.32 0.21 0.11 0.07 0.07 0.10 0.11 0.10 0.18 0.25 0.14 0.19 0.24 0.38 0.52 0.51 0.56 0.66 0.66 0.52 0.40 0.40 0.41 0.46 0.50 0.47 0.44 0.52 0.54 0.50 0.43 0.42 0.57 0.38 0.32
0.03 0.04 0.06 0.08 0.09 0.06 0.20 0.24 0.26 0.18 0.14 0.16 0.20 0.26 0.33 0.19 0.45 0.43 0.27 0.28 0.37 0.56 0.80 0.64 0.51 0.62 0.62 0.48 0.39 0.36 0.50 0.89 1.23 1.17 1.09 1.03 0.96 0.87 0.84 0.79 0.75 0.64 0.48
0.02 0.04 0.02 0.03 0.12 0.08 0.25 0.24 0.22 0.12 0.13 0.16 0.22 0.33 0.67 0.33 0.37 0.30 0.20 0.14 0.37 0.72 0.60 0.62 0.67 0.78 0.77 0.80 0.94 0.75 0.74 1.07 1.44 1.51 1.40 1.28 1.29 1.25 1.18 1.05 0.86 0.71 0.57

GFSMA_prec_precacc24_084.txt.gz
Total_Precipitation_Accumulation
0.16 0.20 0.14 0.15 0.16 0.22 0.43 0.43 0.31 0.26 0.23 0.13 0.01 0.00 0.00 0.00 0.00 0.00 0.00 0.01 0.02 0.02 0.01 0.02 0.02 0.01 0.01 0.01 0.01 0.01 0.00 0.00 0.00 0.00 0.00 0.00 0.00 0.00 0.00 0.00 0.00 0.00 0.00
0.12 0.08 0.09 0.14 0.10 0.18 0.38 0.49 0.46 0.38 0.27 0.10 0.04 0.00 0.00 0.00 0.00 0.00 0.00 0.00 0.01 0.02 0.02 0.02 0.02 0.02 0.02 0.02 0.01 0.00 0.00 0.00 0.00 0.00 0.00 0.00 0.00 0.00 0.00 0.00 0.00 0.00 0.00
0.14 0.13 0.07 0.11 0.14 0.15 0.32 0.45 0.56 0.62 0.38 0.16 0.02 0.00 0.00 0.00 0.00 0.00 0.00 0.00 0.00 0.01 0.02 0.03 0.02 0.01 0.02 0.01 0.00 0.00 0.00 0.00 0.00 0.00 0.00 0.00 0.00 0.00 0.00 0.00 0.00 0.00 0.00
0.24 0.16 0.10 0.10 0.14 0.20 0.36 0.41 0.43 0.64 0.39 0.13 0.01 0.00 0.00 0.00 0.00 0.00 0.00 0.00 0.00 0.00 0.01 0.02 0.02 0.02 0.03 0.01 0.00 0.00 0.00 0.00 0.00 0.00 0.00 0.00 0.00 0.00 0.00 0.00 0.00 0.00 0.00
0.29 0.23 0.18 0.12 0.16 0.26 0.41 0.44 0.39 0.47 0.27 0.11 0.00 0.00 0.00 0.00 0.00 0.00 0.00 0.00 0.00 0.00 0.00 0.00 0.01 0.01 0.02 0.02 0.00 0.00 0.00 0.00 0.00 0.00 0.00 0.00 0.00 0.00 0.00 0.00 0.00 0.00 0.00
0.97 0.35 0.22 0.13 0.16 0.22 0.39 0.49 0.43 0.31 0.16 0.04 0.00 0.00 0.00 0.00 0.00 0.00 0.00 0.00 0.00 0.00 0.00 0.00 0.00 0.00 0.00 0.01 0.00 0.00 0.00 0.00 0.00 0.00 0.00 0.00 0.00 0.00 0.00 0.00 0.00 0.00 0.00
1.60 0.91 0.47 0.17 0.14 0.16 0.21 0.31 0.40 0.24 0.22 0.04 0.00 0.01 0.01 0.00 0.00 0.00 0.00 0.00 0.00 0.00 0.00 0.00 0.00 0.00 0.00 0.00 0.00 0.00 0.00 0.00 0.00 0.00 0.00 0.00 0.00 0.00 0.00 0.00 0.00 0.00 0.00
0.94 1.26 0.70 0.45 0.21 0.21 0.19 0.31 0.31 0.18 0.16 0.04 0.00 0.01 0.03 0.03 0.01 0.00 0.00 0.00 0.00 0.00 0.00 0.00 0.00 0.00 0.00 0.00 0.00 0.00 0.00 0.00 0.00 0.00 0.00 0.00 0.00 0.00 0.00 0.00 0.00 0.00 0.00
0.71 0.94 0.88 0.68 0.41 0.31 0.18 0.13 0.22 0.13 0.07 0.05 0.00 0.00 0.02 0.02 0.01 0.01 0.00 0.00 0.00 0.00 0.00 0.00 0.00 0.00 0.00 0.00 0.00 0.00 0.00 0.00 0.00 0.00 0.01 0.00 0.00 0.00 0.00 0.00 0.00 0.00 0.00
0.41 0.72 0.72 0.65 0.47 0.32 0.31 0.13 0.16 0.15 0.08 0.03 0.02 0.00 0.00 0.00 0.01 0.03 0.02 0.01 0.00 0.00 0.00 0.00 0.00 0.00 0.00 0.00 0.00 0.00 0.00 0.00 0.00 0.00 0.00 0.01 0.01 0.00 0.00 0.00 0.00 0.00 0.00
0.23 0.50 0.63 0.72 0.53 0.40 0.32 0.21 0.14 0.14 0.09 0.04 0.00 0.02 0.01 0.01 0.01 0.03 0.01 0.00 0.00 0.00 0.00 0.00 0.00 0.00 0.00 0.00 0.00 0.00 0.00 0.00 0.00 0.00 0.00 0.00 0.00 0.01 0.01 0.00 0.00 0.00 0.01
0.50 0.55 0.66 0.59 0.62 0.41 0.31 0.31 0.18 0.13 0.09 0.04 0.04 0.02 0.01 0.01 0.00 0.01 0.01 0.01 0.00 0.00 0.00 0.00 0.00 0.00 0.00 0.00 0.00 0.00 0.00 0.00 0.00 0.00 0.00 0.00 0.00 0.03 0.09 0.08 0.05 0.04 0.06
0.20 0.39 0.53 0.56 0.56 0.48 0.27 0.29 0.30 0.17 0.11 0.05 0.03 0.03 0.04 0.04 0.02 0.01 0.02 0.03 0.02 0.01 0.02 0.00 0.00 0.00 0.00 0.00 0.00 0.00 0.00 0.00 0.00 0.00 0.00 0.01 0.02 0.06 0.13 0.21 0.25 0.25 0.20
0.02 0.11 0.31 0.47 0.43 0.51 0.41 0.27 0.26 0.19 0.16 0.13 0.08 0.04 0.04 0.04 0.04 0.01 0.02 0.02 0.02 0.02 0.02 0.02 0.00 0.00 0.00 0.00 0.00 0.00 0.00 0.00 0.01 0.03 0.07 0.09 0.11 0.13 0.15 0.13 0.13 0.14 0.17
0.03 0.02 0.09 0.29 0.35 0.28 0.41 0.29 0.20 0.14 0.14 0.13 0.13 0.10 0.06 0.02 0.04 0.05 0.04 0.05 0.08 0.03 0.00 0.00 0.01 0.01 0.02 0.03 0.01 0.00 0.00 0.05 0.09 0.09 0.10 0.10 0.08 0.07 0.06 0.05 0.04 0.03 0.04
0.04 0.04 0.03 0.06 0.22 0.33 0.28 0.30 0.23 0.14 0.12 0.08 0.08 0.12 0.11 0.03 0.02 0.05 0.03 0.04 0.07 0.07 0.03 0.00 0.00 0.00 0.01 0.01 0.00 0.00 0.00 0.03 0.03 0.02 0.02 0.02 0.02 0.01 0.01 0.00 0.00 0.01 0.02
0.03 0.03 0.05 0.03 0.05 0.14 0.20 0.23 0.20 0.15 0.11 0.07 0.04 0.05 0.05 0.06 0.07 0.06 0.05 0.06 0.06 0.08 0.08 0.01 0.00 0.00 0.00 0.00 0.00 0.00 0.00 0.00 0.00 0.01 0.00 0.01 0.01 0.01 0.00 0.00 0.01 0.01 0.01
0.01 0.02 0.04 0.04 0.02 0.03 0.09 0.16 0.16 0.16 0.09 0.10 0.08 0.04 0.03 0.05 0.06 0.05 0.05 0.06 0.06 0.05 0.09 0.05 0.01 0.00 0.00 0.00 0.00 0.01 0.00 0.01 0.01 0.01 0.02 0.01 0.01 0.01 0.01 0.01 0.01 0.00 0.01
0.00 0.00 0.02 0.04 0.02 0.01 0.03 0.06 0.06 0.09 0.06 0.03 0.05 0.05 0.02 0.03 0.03 0.03 0.03 0.01 0.01 0.03 0.05 0.06 0.02 0.01 0.00 0.01 0.02 0.02 0.01 0.02 0.01 0.01 0.01 0.01 0.03 0.04 0.06 0.07 0.06 0.06 0.06
0.01 0.01 0.01 0.02 0.02 0.02 0.04 0.05 0.04 0.05 0.08 0.06 0.06 0.08 0.05 0.02 0.02 0.02 0.02 0.01 0.02 0.04 0.05 0.05 0.03 0.02 0.03 0.01 0.05 0.03 0.02 0.02 0.02 0.04 0.07 0.09 0.12 0.13 0.12 0.11 0.14 0.16 0.17
0.02 0.02 0.01 0.02 0.02 0.02 0.02 0.02 0.03 0.06 0.08 0.10 0.10 0.09 0.10 0.12 0.11 0.13 0.13 0.12 0.16 0.15 0.15 0.18 0.16 0.11 0.08 0.09 0.11 0.10 0.15 0.12 0.13 0.19 0.20 0.19 0.18 0.18 0.23 0.34 0.34 0.33 0.31
0.09 0.06 0.06 0.05 0.05 0.06 0.11 0.04 0.02 0.01 0.03 0.06 0.10 0.10 0.04 0.03 0.02 0.04 0.04 0.04 0.06 0.09 0.10 0.11 0.14 0.15 0.08 0.06 0.05 0.08 0.16 0.28 0.31 0.32 0.37 0.37 0.28 0.28 0.28 0.31 0.44 0.35 0.29
0.16 0.11 0.14 0.14 0.13 0.16 0.31 0.15 0.15 0.05 0.03 0.05 0.05 0.05 0.04 0.08 0.15 0.02 0.07 0.10 0.11 0.20 0.21 0.21 0.16 0.19 0.29 0.38 0.43 0.43 0.44 0.44 0.44 0.38 0.39 0.41 0.41 0.46 0.49 0.60 0.73 0.46 0.39
0.11 0.11 0.11 0.10 0.13 0.16 0.24 0.24 0.31 0.19 0.09 0.06 0.06 0.09 0.10 0.08 0.16 0.20 0.06 0.10 0.14 0.26 0.41 0.36 0.42 0.57 0.60 0.50 0.46 0.55 0.63 0.70 0.75 0.73 0.71 0.79 0.77 0.75 0.69 0.68 0.88 0.59 0.45
0.12 0.11 0.11 0.11 0.10 0.08 0.23 0.22 0.25 0.16 0.11 0.11 0.17 0.20 0.24 0.12 0.21 0.24 0.12 0.09 0.15 0.35 0.67 0.54 0.42 0.57 0.61 0.48 0.42 0.40 0.58 1.02 1.42 1.42 1.39 1.34 1.27 1.16 1.16 1.10 1.02 0.84 0.61
0.06 0.10 0.05 0.05 0.12 0.08 0.16 0.14 0.15 0.10 0.06 0.08 0.14 0.21 0.46 0.21 0.17 0.18 0.14 0.09 0.29 0.62 0.49 0.55 0.64 0.76 0.76 0.81 0.95 0.74 0.72 1.07 1.47 1.56 1.46 1.36 1.39 1.36 1.29 1.15 0.95 0.78 0.62

GFSMA_prec_precacc24_087.txt.gz
Total_Precipitation_Accumulation
0.15 0.13 0.14 0.15 0.16 0.22 0.43 0.43 0.32 0.30 0.27 0.13 0.01 0.02 0.01 0.00 0.00 0.00 0.00 0.01 0.02 0.02 0.01 0.02 0.02 0.02 0.02 0.02 0.01 0.01 0.00 0.00 0.00 0.00 0.00 0.00 0.00 0.00 0.00 0.00 0.00 0.00 0.00
0.12 0.07 0.08 0.14 0.10 0.18 0.38 0.49 0.47 0.40 0.38 0.21 0.13 0.04 0.02 0.00 0.00 0.00 0.00 0.00 0.01 0.02 0.02 0.02 0.02 0.02 0.02 0.02 0.01 0.00 0.00 0.00 0.00 0.00 0.00 0.00 0.00 0.00 0.00 0.00 0.00 0.00 0.00
0.14 0.11 0.07 0.11 0.14 0.15 0.32 0.45 0.57 0.67 0.50 0.30 0.18 0.05 0.00 0.00 0.00 0.00 0.00 0.00 0.00 0.01 0.02 0.03 0.03 0.02 0.02 0.02 0.01 0.01 0.00 0.00 0.00 0.00 0.00 0.00 0.00 0.00 0.00 0.00 0.00 0.00 0.00
0.24 0.15 0.09 0.10 0.16 0.24 0.42 0.41 0.43 0.66 0.54 0.29 0.15 0.03 0.00 0.00 0.00 0.00 0.00 0.00 0.00 0.00 0.01 0.02 0.02 0.03 0.04 0.02 0.01 0.01 0.00 0.00 0.00 0.00 0.00 0.00 0.00 0.00 0.00 0.00 0.00 0.00 0.00
0.29 0.22 0.16 0.11 0.19 0.34 0.45 0.44 0.39 0.54 0.62 0.34 0.10 0.02 0.00 0.00 0.00 0.00 0.00 0.00 0.00 0.00 0.00 0.01 0.01 0.01 0.03 0.02 0.01 0.01 0.00 0.00 0.00 0.00 0.00 0.00 0.00 0.00 0.00 0.00 0.00 0.00 0.00
0.98 0.37 0.25 0.16 0.22 0.22 0.40 0.49 0.47 0.47 0.58 0.32 0.07 0.02 0.00 0.00 0.00 0.00 0.00 0.00 0.00 0.00 0.00 0.00 0.00 0.00 0.00 0.01 0.00 0.00 0.00 0.00 0.00 0.00 0.00 0.00 0.00 0.00 0.00 0.00 0.00 0.00 0.00
1.63 0.94 0.49 0.19 0.16 0.15 0.21 0.33 0.50 0.46 0.57 0.35 0.10 0.03 0.01 0.00 0.00 0.00 0.00 0.00 0.00 0.00 0.00 0.00 0.00 0.00 0.00 0.00 0.00 0.00 0.00 0.00 0.00 0.00 0.00 0.00 0.00 0.00 0.00 0.00 0.00 0.00 0.00
0.96 1.28 0.71 0.47 0.24 0.20 0.18 0.32 0.40 0.41 0.43 0.20 0.04 0.01 0.03 0.03 0.01 0.00 0.00 0.00 0.00 0.00 0.00 0.00 0.00 0.00 0.00 0.00 0.00 0.00 0.00 0.00 0.00 0.00 0.00 0.00 0.00 0.00 0.00 0.00 0.00 0.00 0.00
0.72 0.94 0.88 0.69 0.41 0.32 0.21 0.16 0.25 0.21 0.23 0.17 0.01 0.00 0.02 0.02 0.01 0.01 0.00 0.00 0.00 0.00 0.00 0.00 0.00 0.00 0.00 0.00 0.00 0.00 0.00 0.00 0.00 0.00 0.01 0.00 0.00 0.00 0.00 0.00 0.00 0.00 0.00
0.42 0.72 0.72 0.65 0.48 0.34 0.38 0.24 0.22 0.22 0.17 0.17 0.04 0.00 0.00 0.00 0.00 0.02 0.02 0.01 0.00 0.00 0.00 0.00 0.00 0.00 0.00 0.00 0.00 0.00 0.00 0.00 0.00 0.00 0.00 0.01 0.01 0.00 0.00 0.00 0.00 0.00 0.00
0.24 0.50 0.63 0.72 0.54 0.41 0.35 0.31 0.26 0.24 0.15 0.13 0.04 0.02 0.01 0.01 0.00 0.00 0.00 0.00 0.00 0.00 0.00 0.00 0.00 0.00 0.00 0.00 0.00 0.00 0.00 0.00 0.00 0.00 0.00 0.00 0.00 0.01 0.01 0.00 0.00 0.00 0.00
0.50 0.55 0.66 0.59 0.62 0.43 0.34 0.38 0.28 0.21 0.15 0.11 0.07 0.02 0.01 0.01 0.01 0.00 0.01 0.01 0.00 0.00 0.00 0.00 0.00 0.00 0.00 0.00 0.00 0.00 0.00 0.00 0.00 0.00 0.00 0.00 0.00 0.03 0.09 0.07 0.04 0.03 0.05
0.20 0.38 0.53 0.56 0.57 0.52 0.34 0.39 0.43 0.29 0.17 0.10 0.06 0.04 0.03 0.01 0.00 0.01 0.01 0.02 0.01 0.00 0.02 0.00 0.00 0.00 0.00 0.00 0.00 0.00 0.00 0.00 0.00 0.00 0.00 0.00 0.02 0.06 0.13 0.21 0.25 0.24 0.19
0.02 0.11 0.31 0.47 0.45 0.60 0.55 0.35 0.34 0.31 0.24 0.15 0.08 0.05 0.05 0.05 0.05 0.02 0.02 0.02 0.01 0.01 0.02 0.03 0.00 0.00 0.00 0.00 0.00 0.00 0.00 0.00 0.00 0.00 0.02 0.04 0.06 0.10 0.12 0.12 0.12 0.14 0.17
0.03 0.02 0.09 0.29 0.38 0.38 0.54 0.40 0.29 0.22 0.21 0.19 0.15 0.11 0.07 0.05 0.07 0.04 0.03 0.03 0.06 0.03 0.00 0.01 0.02 0.01 0.02 0.04 0.02 0.00 0.00 0.00 0.00 0.01 0.01 0.02 0.04 0.05 0.04 0.04 0.04 0.03 0.04
0.04 0.04 0.03 0.06 0.22 0.38 0.37 0.45 0.33 0.22 0.19 0.14 0.13 0.16 0.12 0.04 0.02 0.02 0.01 0.03 0.04 0.06 0.03 0.00 0.00 0.00 0.03 0.04 0.03 0.02 0.00 0.00 0.00 0.01 0.01 0.01 0.01 0.01 0.00 0.00 0.00 0.01 0.02
0.03 0.03 0.05 0.03 0.05 0.17 0.27 0.40 0.43 0.24 0.20 0.14 0.09 0.09 0.07 0.06 0.07 0.06 0.04 0.05 0.06 0.09 0.09 0.01 0.00 0.00 0.00 0.00 0.00 0.00 0.01 0.01 0.00 0.00 0.00 0.00 0.00 0.01 0.00 0.01 0.01 0.01 0.01
0.02 0.02 0.04 0.04 0.02 0.04 0.13 0.26 0.36 0.27 0.15 0.17 0.17 0.12 0.08 0.07 0.07 0.07 0.07 0.07 0.05 0.04 0.08 0.04 0.00 0.00 0.00 0.00 0.00 0.01 0.00 0.00 0.00 0.00 0.01 0.01 0.01 0.01 0.02 0.02 0.01 0.01 0.01
0.00 0.00 0.03 0.04 0.02 0.02 0.05 0.14 0.18 0.16 0.16 0.10 0.16 0.17 0.10 0.07 0.06 0.06 0.07 0.04 0.02 0.02 0.02 0.03 0.01 0.01 0.00 0.01 0.02 0.02 0.01 0.00 0.00 0.01 0.01 0.02 0.03 0.04 0.06 0.07 0.06 0.06 0.06
0.02 0.01 0.01 0.06 0.06 0.02 0.06 0.10 0.11 0.13 0.20 0.19 0.12 0.15 0.12 0.10 0.05 0.03 0.03 0.02 0.02 0.03 0.03 0.04 0.01 0.01 0.02 0.01 0.05 0.03 0.02 0.03 0.03 0.03 0.05 0.09 0.11 0.11 0.11 0.12 0.16 0.18 0.18
0.02 0.02 0.01 0.03 0.06 0.03 0.03 0.05 0.08 0.11 0.13 0.23 0.25 0.19 0.16 0.17 0.15 0.14 0.14 0.12 0.16 0.14 0.14 0.15 0.11 0.07 0.06 0.10 0.13 0.15 0.22 0.18 0.20 0.21 0.24 0.26 0.29 0.29 0.33 0.46 0.42 0.40 0.38
0.11 0.07 0.07 0.06 0.06 0.07 0.14 0.06 0.04 0.02 0.05 0.10 0.15 0.16 0.12 0.08 0.04 0.06 0.07 0.07 0.08 0.08 0.07 0.11 0.12 0.12 0.09 0.08 0.07 0.08 0.12 0.17 0.18 0.19 0.23 0.29 0.27 0.31 0.32 0.35 0.50 0.41 0.35
0.17 0.13 0.16 0.16 0.15 0.17 0.32 0.16 0.16 0.06 0.04 0.06 0.07 0.09 0.10 0.17 0.22 0.03 0.08 0.09 0.08 0.17 0.18 0.18 0.14 0.16 0.25 0.29 0.29 0.22 0.22 0.24 0.28 0.27 0.32 0.38 0.42 0.47 0.51 0.62 0.76 0.48 0.40
0.11 0.12 0.11 0.11 0.14 0.17 0.25 0.25 0.32 0.19 0.10 0.06 0.06 0.10 0.12 0.10 0.18 0.22 0.07 0.12 0.17 0.27 0.39 0.32 0.36 0.48 0.51 0.40 0.36 0.46 0.56 0.65 0.71 0.70 0.69 0.77 0.77 0.75 0.69 0.68 0.88 0.60 0.45
0.14 0.13 0.11 0.12 0.10 0.09 0.25 0.24 0.26 0.16 0.11 0.12 0.17 0.22 0.25 0.13 0.23 0.24 0.12 0.08 0.12 0.28 0.49 0.36 0.27 0.43 0.49 0.39 0.32 0.29 0.45 0.90 1.34 1.38 1.36 1.32 1.27 1.16 1.15 1.10 1.02 0.84 0.61
0.12 0.15 0.16 0.16 0.21 0.12 0.22 0.18 0.15 0.08 0.04 0.06 0.12 0.20 0.43 0.18 0.11 0.12 0.09 0.06 0.18 0.46 0.35 0.38 0.45 0.58 0.60 0.68 0.83 0.62 0.61 0.98 1.41 1.53 1.44 1.35 1.39 1.36 1.29 1.15 0.95 0.78 0.62

GFSMA_prec_precacc24_093.txt.gz
Total_Precipitation_Accumulation
0.07 0.08 0.12 0.15 0.16 0.22 0.43 0.43 0.33 0.33 0.42 0.37 0.35 0.34 0.20 0.07 0.04 0.02 0.02 0.02 0.13 0.06 0.03 0.05 0.04 0.03 0.02 0.03 0.03 0.03 0.01 0.00 0.00 0.00 0.00 0.00 0.00 0.00 0.00 0.00 0.00 0.00 0.00
0.08 0.07 0.08 0.14 0.10 0.18 0.38 0.49 0.47 0.40 0.47 0.43 0.54 0.31 0.15 0.07 0.03 0.04 0.01 0.00 0.02 0.05 0.03 0.05 0.04 0.03 0.03 0.03 0.03 0.02 0.02 0.01 0.01 0.01 0.01 0.00 0.00 0.00 0.00 0.00 0.00 0.00 0.00
0.12 0.11 0.07 0.11 0.14 0.15 0.33 0.45 0.58 0.69 0.62 0.45 0.59 0.36 0.12 0.05 0.04 0.06 0.03 0.00 0.00 0.01 0.02 0.04 0.05 0.04 0.04 0.03 0.02 0.02 0.01 0.01 0.02 0.01 0.01 0.00 0.00 0.00 0.00 0.00 0.00 0.00 0.00
0.23 0.16 0.09 0.10 0.16 0.26 0.43 0.46 0.44 0.68 0.57 0.35 0.31 0.34 0.12 0.06 0.03 0.06 0.03 0.00 0.00 0.00 0.01 0.02 0.03 0.04 0.06 0.03 0.02 0.02 0.01 0.01 0.01 0.01 0.01 0.00 0.00 0.00 0.00 0.00 0.00 0.00 0.00
0.28 0.22 0.16 0.11 0.20 0.36 0.48 0.49 0.44 0.54 0.62 0.38 0.19 0.26 0.10 0.05 0.04 0.03 0.02 0.00 0.00 0.00 0.00 0.01 0.01 0.02 0.04 0.04 0.01 0.02 0.01 0.01 0.01 0.01 0.00 0.00 0.00 0.00 0.00 0.00 0.00 0.00 0.00
0.98 0.37 0.25 0.16 0.24 0.28 0.44 0.50 0.50 0.50 0.61 0.44 0.27 0.28 0.16 0.04 0.05 0.04 0.01 0.00 0.00 0.00 0.00 0.00 0.00 0.01 0.01 0.02 0.01 0.02 0.02 0.01 0.01 0.01 0.00 0.00 0.00 0.00 0.00 0.00 0.00 0.00 0.00
1.62 0.94 0.49 0.20 0.16 0.18 0.29 0.38 0.54 0.49 0.61 0.59 0.52 0.46 0.33 0.15 0.06 0.04 0.01 0.00 0.00 0.00 0.00 0.00 0.00 0.00 0.00 0.01 0.00 0.01 0.02 0.01 0.01 0.00 0.00 0.00 0.00 0.00 0.00 0.00 0.00 0.00 0.00
0.94 1.27 0.72 0.48 0.27 0.24 0.20 0.36 0.43 0.43 0.51 0.44 0.39 0.34 0.39 0.36 0.22 0.05 0.01 0.00 0.00 0.00 0.00 0.00 0.00 0.00 0.00 0.00 0.00 0.00 0.01 0.01 0.01 0.00 0.00 0.00 0.00 0.00 0.00 0.00 0.00 0.00 0.00
0.67 0.91 0.89 0.70 0.45 0.38 0.26 0.19 0.29 0.23 0.31 0.33 0.15 0.23 0.20 0.19 0.11 0.05 0.01 0.00 0.00 0.00 0.00 0.00 0.00 0.00 0.00 0.00 0.00 0.00 0.00 0.00 0.00 0.01 0.01 0.00 0.00 0.00 0.00 0.00 0.00 0.00 0.00
0.38 0.68 0.70 0.65 0.50 0.36 0.42 0.28 0.28 0.29 0.23 0.26 0.16 0.17 0.06 0.05 0.05 0.12 0.08 0.02 0.00 0.00 0.00 0.00 0.00 0.00 0.00 0.00 0.00 0.00 0.00 0.00 0.00 0.00 0.00 0.01 0.01 0.00 0.00 0.00 0.00 0.00 0.00
0.17 0.48 0.63 0.70 0.53 0.41 0.35 0.32 0.33 0.33 0.22 0.19 0.09 0.13 0.13 0.09 0.13 0.14 0.13 0.05 0.00 0.00 0.00 0.00 0.00 0.00 0.00 0.00 0.00 0.00 0.00 0.00 0.00 0.00 0.00 0.00 0.00 0.01 0.00 0.00 0.00 0.00 0.00
0.42 0.50 0.64 0.57 0.61 0.43 0.34 0.35 0.33 0.33 0.27 0.22 0.19 0.08 0.08 0.11 0.11 0.11 0.06 0.02 0.00 0.00 0.00 0.00 0.00 0.00 0.00 0.00 0.00 0.00 0.00 0.00 0.00 0.00 0.00 0.00 0.00 0.00 0.00 0.01 0.01 0.00 0.00
0.16 0.34 0.51 0.53 0.55 0.51 0.36 0.39 0.42 0.43 0.35 0.26 0.25 0.15 0.07 0.06 0.08 0.11 0.08 0.03 0.01 0.00 0.02 0.00 0.00 0.00 0.00 0.00 0.00 0.00 0.00 0.00 0.00 0.00 0.00 0.00 0.00 0.00 0.00 0.00 0.01 0.03 0.03
0.02 0.11 0.31 0.45 0.42 0.59 0.59 0.46 0.49 0.43 0.52 0.40 0.31 0.27 0.14 0.10 0.09 0.06 0.04 0.06 0.04 0.01 0.02 0.03 0.00 0.00 0.00 0.00 0.00 0.00 0.00 0.00 0.00 0.00 0.00 0.00 0.00 0.00 0.00 0.00 0.00 0.01 0.03
0.03 0.02 0.09 0.29 0.37 0.38 0.61 0.70 0.57 0.48 0.49 0.55 0.43 0.33 0.18 0.13 0.11 0.05 0.03 0.05 0.07 0.04 0.00 0.01 0.02 0.02 0.03 0.04 0.02 0.00 0.00 0.00 0.00 0.00 0.00 0.00 0.00 0.00 0.01 0.01 0.01 0.01 0.01
0.04 0.04 0.03 0.06 0.22 0.40 0.44 0.69 0.65 0.53 0.58 0.54 0.52 0.49 0.33 0.17 0.10 0.04 0.02 0.02 0.04 0.05 0.04 0.01 0.00 0.00 0.03 0.04 0.05 0.03 0.01 0.01 0.00 0.01 0.02 0.02 0.01 0.01 0.02 0.02 0.02 0.01 0.00
0.03 0.03 0.05 0.03 0.05 0.17 0.32 0.57 0.78 0.55 0.58 0.54 0.46 0.44 0.34 0.22 0.16 0.09 0.05 0.07 0.07 0.09 0.09 0.04 0.02 0.01 0.00 0.00 0.00 0.00 0.01 0.01 0.01 0.03 0.04 0.05 0.05 0.05 0.04 0.02 0.01 0.01 0.01
0.02 0.02 0.04 0.04 0.02 0.04 0.18 0.44 0.74 0.76 0.56 0.55 0.53 0.42 0.37 0.29 0.22 0.16 0.12 0.12 0.10 0.06 0.09 0.05 0.01 0.01 0.01 0.00 0.00 0.00 0.00 0.00 0.01 0.03 0.02 0.01 0.01 0.01 0.02 0.02 0.01 0.00 0.00
0.02 0.02 0.03 0.04 0.03 0.02 0.08 0.32 0.47 0.65 0.60 0.45 0.51 0.54 0.43 0.32 0.28 0.24 0.18 0.13 0.08 0.06 0.06 0.04 0.01 0.01 0.01 0.01 0.02 0.01 0.00 0.00 0.00 0.00 0.00 0.00 0.00 0.00 0.02 0.01 0.01 0.02 0.02
0.03 0.02 0.02 0.07 0.06 0.02 0.10 0.20 0.28 0.45 0.61 0.58 0.51 0.58 0.52 0.42 0.26 0.21 0.18 0.13 0.11 0.11 0.08 0.05 0.02 0.03 0.05 0.03 0.06 0.03 0.02 0.02 0.03 0.05 0.09 0.14 0.14 0.12 0.12 0.11 0.12 0.13 0.13
0.02 0.02 0.02 0.04 0.07 0.03 0.04 0.10 0.18 0.28 0.50 0.63 0.60 0.56 0.39 0.38 0.37 0.32 0.31 0.25 0.23 0.21 0.19 0.18 0.13 0.10 0.10 0.12 0.14 0.15 0.21 0.18 0.22 0.26 0.27 0.28 0.28 0.22 0.22 0.23 0.17 0.16 0.15
0.08 0.07 0.07 0.07 0.10 0.09 0.17 0.09 0.10 0.10 0.13 0.23 0.29 0.30 0.28 0.25 0.21 0.23 0.22 0.20 0.19 0.17 0.13 0.12 0.13 0.13 0.10 0.08 0.07 0.08 0.10 0.12 0.12 0.14 0.15 0.17 0.13 0.16 0.18 0.20 0.34 0.24 0.22
0.09 0.11 0.14 0.15 0.17 0.18 0.35 0.20 0.20 0.10 0.10 0.11 0.14 0.18 0.17 0.29 0.36 0.14 0.16 0.15 0.12 0.18 0.18 0.17 0.13 0.16 0.25 0.30 0.29 0.24 0.22 0.25 0.27 0.26 0.29 0.31 0.29 0.33 0.38 0.48 0.60 0.34 0.33
0.09 0.10 0.10 0.11 0.11 0.18 0.27 0.24 0.24 0.12 0.09 0.10 0.10 0.13 0.15 0.14 0.27 0.31 0.13 0.14 0.18 0.28 0.40 0.33 0.36 0.46 0.48 0.35 0.29 0.34 0.40 0.44 0.47 0.46 0.43 0.47 0.47 0.48 0.47 0.51 0.73 0.49 0.39
0.14 0.13 0.12 0.09 0.08 0.10 0.21 0.16 0.14 0.03 0.05 0.09 0.15 0.22 0.26 0.13 0.25 0.22 0.08 0.10 0.14 0.31 0.50 0.32 0.22 0.34 0.36 0.25 0.18 0.15 0.26 0.65 0.99 1.00 1.04 1.02 0.98 0.89 0.92 0.91 0.89 0.78 0.58
0.17 0.17 0.19 0.18 0.20 0.10 0.20 0.17 0.13 0.06 0.06 0.05 0.10 0.23 0.43 0.17 0.13 0.09 0.06 0.05 0.18 0.47 0.34 0.29 0.31 0.37 0.33 0.35 0.43 0.29 0.29 0.63 1.03 1.16 1.17 1.12 1.19 1.18 1.16 1.06 0.88 0.74 0.60

GFSMA_prec_precacc24_096.txt.gz
Total_Precipitation_Accumulation
0.06 0.06 0.03 0.07 0.13 0.22 0.43 0.43 0.33 0.33 0.42 0.38 0.38 0.46 0.41 0.27 0.23 0.18 0.15 0.17 0.30 0.37 0.10 0.07 0.07 0.06 0.04 0.04 0.05 0.04 0.01 0.00 0.00 0.00 0.01 0.00 0.01 0.01 0.00 0.00 0.00 0.00 0.00
0.08 0.06 0.06 0.11 0.09 0.18 0.38 0.49 0.47 0.40 0.47 0.43 0.60 0.55 0.50 0.34 0.23 0.23 0.05 0.03 0.05 0.25 0.19 0.09 0.07 0.04 0.04 0.04 0.05 0.04 0.02 0.01 0.02 0.01 0.01 0.00 0.00 0.00 0.00 0.00 0.00 0.00 0.00
0.12 0.10 0.07 0.09 0.14 0.15 0.33 0.45 0.58 0.69 0.62 0.45 0.62 0.59 0.52 0.37 0.22 0.24 0.11 0.00 0.01 0.03 0.10 0.07 0.07 0.07 0.05 0.03 0.03 0.03 0.02 0.03 0.02 0.02 0.01 0.00 0.00 0.00 0.00 0.00 0.00 0.00 0.00
0.20 0.14 0.07 0.08 0.16 0.26 0.44 0.46 0.44 0.68 0.57 0.36 0.31 0.46 0.43 0.35 0.21 0.21 0.17 0.06 0.03 0.00 0.01 0.03 0.03 0.06 0.07 0.03 0.02 0.03 0.02 0.02 0.02 0.02 0.01 0.00 0.00 0.01 0.01 0.00 0.00 0.00 0.00
0.23 0.18 0.13 0.08 0.20 0.37 0.48 0.49 0.44 0.54 0.62 0.38 0.19 0.29 0.29 0.33 0.27 0.16 0.15 0.13 0.05 0.01 0.00 0.01 0.01 0.02 0.04 0.04 0.02 0.02 0.02 0.02 0.02 0.02 0.01 0.01 0.00 0.01 0.01 0.00 0.00 0.00 0.00
0.85 0.31 0.22 0.16 0.24 0.29 0.45 0.51 0.51 0.50 0.61 0.44 0.27 0.29 0.19 0.16 0.22 0.17 0.09 0.09 0.04 0.00 0.00 0.00 0.00 0.01 0.01 0.03 0.02 0.02 0.02 0.02 0.02 0.02 0.02 0.01 0.01 0.01 0.01 0.00 0.00 0.00 0.00
1.43 0.90 0.48 0.20 0.17 0.18 0.29 0.38 0.54 0.49 0.61 0.59 0.53 0.47 0.34 0.17 0.11 0.14 0.11 0.04 0.02 0.00 0.00 0.00 0.00 0.00 0.00 0.01 0.01 0.01 0.03 0.03 0.02 0.02 0.01 0.01 0.01 0.00 0.00 0.00 0.00 0.00 0.00
0.78 1.20 0.69 0.49 0.27 0.25 0.20 0.36 0.44 0.44 0.52 0.44 0.40 0.34 0.41 0.42 0.36 0.19 0.10 0.07 0.01 0.00 0.00 0.00 0.00 0.00 0.00 0.00 0.00 0.00 0.02 0.03 0.02 0.01 0.01 0.01 0.00 0.00 0.00 0.00 0.00 0.00 0.00
0.62 0.84 0.83 0.69 0.45 0.38 0.27 0.20 0.31 0.27 0.33 0.36 0.16 0.24 0.21 0.22 0.17 0.26 0.19 0.08 0.02 0.00 0.00 0.00 0.00 0.00 0.00 0.00 0.00 0.00 0.00 0.01 0.02 0.02 0.01 0.00 0.00 0.00 0.00 0.00 0.00 0.00 0.00
0.40 0.64 0.64 0.62 0.50 0.36 0.42 0.30 0.31 0.34 0.31 0.31 0.19 0.17 0.07 0.05 0.07 0.18 0.23 0.19 0.05 0.01 0.00 0.00 0.00 0.00 0.00 0.00 0.00 0.00 0.00 0.00 0.00 0.00 0.00 0.01 0.01 0.00 0.00 0.00 0.00 0.00 0.00
0.17 0.46 0.53 0.66 0.53 0.42 0.36 0.35 0.36 0.37 0.27 0.25 0.12 0.14 0.13 0.10 0.16 0.17 0.25 0.21 0.11 0.03 0.01 0.00 0.00 0.00 0.00 0.00 0.00 0.00 0.00 0.00 0.00 0.00 0.00 0.00 0.01 0.02 0.01 0.00 0.00 0.00 0.00
0.34 0.49 0.56 0.48 0.59 0.44 0.35 0.36 0.35 0.36 0.30 0.26 0.24 0.10 0.08 0.12 0.14 0.19 0.22 0.19 0.14 0.09 0.02 0.00 0.00 0.00 0.00 0.00 0.00 0.00 0.00 0.00 0.00 0.00 0.00 0.00 0.00 0.00 0.00 0.00 0.00 0.00 0.00
0.12 0.31 0.48 0.50 0.54 0.51 0.37 0.39 0.41 0.45 0.37 0.30 0.28 0.17 0.10 0.07 0.12 0.22 0.28 0.27 0.17 0.07 0.04 0.00 0.00 0.00 0.00 0.00 0.00 0.00 0.00 0.00 0.00 0.00 0.00 0.00 0.00 0.00 0.00 0.00 0.00 0.00 0.00
0.02 0.10 0.27 0.41 0.38 0.55 0.57 0.44 0.45 0.39 0.48 0.39 0.33 0.28 0.16 0.16 0.16 0.14 0.16 0.21 0.16 0.07 0.03 0.03 0.00 0.00 0.00 0.00 0.00 0.00 0.00 0.00 0.00 0.00 0.00 0.00 0.00 0.00 0.00 0.00 0.00 0.00 0.00
0.03 0.03 0.08 0.25 0.35 0.35 0.56 0.66 0.53 0.45 0.46 0.49 0.39 0.33 0.23 0.18 0.20 0.21 0.13 0.10 0.12 0.12 0.03 0.02 0.02 0.02 0.03 0.04 0.02 0.00 0.00 0.00 0.00 0.00 0.00 0.00 0.00 0.00 0.01 0.01 0.01 0.01 0.01
0.04 0.04 0.04 0.07 0.23 0.39 0.40 0.67 0.65 0.53 0.59 0.58 0.57 0.54 0.38 0.23 0.18 0.17 0.14 0.07 0.07 0.07 0.06 0.01 0.00 0.00 0.03 0.04 0.05 0.03 0.01 0.01 0.00 0.01 0.02 0.02 0.01 0.01 0.02 0.02 0.02 0.01 0.00
0.04 0.03 0.06 0.03 0.06 0.18 0.32 0.55 0.78 0.56 0.64 0.71 0.64 0.60 0.46 0.33 0.34 0.26 0.16 0.11 0.10 0.09 0.09 0.10 0.03 0.01 0.01 0.01 0.01 0.01 0.01 0.01 0.01 0.03 0.04 0.05 0.05 0.05 0.04 0.02 0.01 0.01 0.00
0.02 0.02 0.04 0.04 0.02 0.04 0.18 0.44 0.74 0.78 0.62 0.65 0.72 0.67 0.62 0.44 0.37 0.33 0.22 0.18 0.13 0.11 0.09 0.11 0.08 0.03 0.02 0.02 0.02 0.01 0.01 0.01 0.01 0.04 0.02 0.01 0.01 0.01 0.01 0.02 0.00 0.00 0.00
0.02 0.02 0.03 0.04 0.03 0.02 0.08 0.32 0.47 0.71 0.74 0.65 0.65 0.74 0.60 0.50 0.46 0.34 0.22 0.19 0.14 0.13 0.14 0.09 0.06 0.05 0.04 0.03 0.03 0.01 0.01 0.01 0.00 0.01 0.00 0.01 0.00 0.01 0.01 0.01 0.01 0.02 0.02
0.03 0.02 0.02 0.07 0.06 0.02 0.10 0.20 0.28 0.47 0.70 0.78 0.73 0.71 0.73 0.61 0.47 0.34 0.25 0.20 0.20 0.20 0.17 0.13 0.07 0.07 0.08 0.06 0.09 0.05 0.04 0.03 0.04 0.06 0.10 0.15 0.14 0.13 0.13 0.13 0.15 0.15 0.14
0.02 0.02 0.02 0.04 0.07 0.03 0.04 0.11 0.22 0.31 0.54 0.76 0.80 0.80 0.64 0.69 0.63 0.55 0.46 0.34 0.30 0.28 0.27 0.25 0.19 0.16 0.16 0.19 0.20 0.21 0.26 0.21 0.24 0.27 0.28 0.29 0.28 0.23 0.23 0.24 0.18 0.16 0.14
0.05 0.05 0.07 0.06 0.09 0.08 0.17 0.10 0.12 0.14 0.18 0.31 0.44 0.52 0.60 0.55 0.47 0.52 0.45 0.40 0.33 0.29 0.25 0.22 0.21 0.20 0.17 0.16 0.15 0.15 0.17 0.18 0.17 0.18 0.18 0.19 0.15 0.18 0.19 0.21 0.35 0.21 0.16
0.07 0.08 0.11 0.13 0.15 0.16 0.29 0.15 0.16 0.09 0.14 0.12 0.19 0.30 0.37 0.62 0.62 0.32 0.38 0.37 0.34 0.38 0.34 0.29 0.21 0.22 0.29 0.32 0.31 0.25 0.23 0.25 0.27 0.26 0.30 0.32 0.31 0.37 0.39 0.47 0.54 0.24 0.19
0.08 0.08 0.08 0.08 0.08 0.13 0.18 0.15 0.17 0.05 0.11 0.15 0.13 0.13 0.19 0.25 0.46 0.49 0.32 0.36 0.34 0.38 0.48 0.39 0.39 0.49 0.48 0.35 0.29 0.34 0.41 0.46 0.51 0.50 0.47 0.48 0.47 0.48 0.45 0.46 0.62 0.38 0.25
0.15 0.13 0.11 0.08 0.06 0.08 0.15 0.14 0.14 0.02 0.04 0.10 0.13 0.21 0.22 0.11 0.30 0.30 0.14 0.16 0.20 0.35 0.52 0.34 0.22 0.30 0.33 0.24 0.17 0.15 0.25 0.59 0.85 0.90 0.94 0.93 0.88 0.78 0.79 0.75 0.71 0.63 0.45
0.23 0.20 0.21 0.19 0.20 0.10 0.18 0.17 0.15 0.06 0.08 0.05 0.07 0.16 0.27 0.15 0.16 0.09 0.04 0.04 0.14 0.39 0.34 0.33 0.32 0.32 0.30 0.31 0.34 0.24 0.25 0.50 0.81 0.96 1.01 0.97 1.02 0.99 0.95 0.89 0.75 0.62 0.49